[[{"header":{"parameterUnit":"m.s-1","parameterCategory":1,"la1":31.0,"la2":29.5877,"lo1":-88.7671,"lo2":-86.6584,"dy":0.0162,"dx":0.0185,"nx":115,"ny":88,"refTime":"2026-03-30T12:00:00:Z","depth":0,"parameterNumber":2,"parameterNumberName":"U-component_of_WINDS"},"data":[0.0,0.0,0.0,0.0,0.0,0.0,0.0,0.0,0.0,0.0,0.0,0.0,0.0,0.0,0.0,0.0,0.0,0.0,0.0,0.0,0.0,0.0,0.0,0.0,0.0,0.0,0.0,0.0,0.0,0.0,0.0,0.0,0.0,0.0,0.0,0.0,0.0,0.0,0.0,0.0,0.0,0.0,0.0,0.0,0.0,0.0,0.0,0.0,0.0,0.0,0.0,0.0,0.0,0.0,0.0,0.0,0.0,0.0,0.0,0.0,0.0,0.0,0.0,0.0,0.0,0.0,0.0,0.0,0.0,0.0,0.0,0.0,0.0,0.0,0.0,0.0,0.0,0.0,0.0,0.0,0.0,0.0,0.0,0.0,0.0,0.0,0.0,0.0,0.0,0.0,0.0,0.0,0.0,0.0,0.0,0.0,0.0,0.0,0.0,0.0,0.0,0.0,0.0,0.0,0.0,0.0,0.0,0.0,0.0,0.0,0.0,0.0,0.0,0.0,0.0,0.0,0.0,0.0,0.0,0.0,0.0,0.0,0.0,0.0,0.0,0.0,0.0,0.0,0.0,0.0,0.0,0.0,0.0,0.0,0.0,0.0,0.0,0.0,0.0,0.0,0.0,0.0,0.0,0.0,0.0,0.0,0.0,0.0,0.0,0.0,0.0,0.0,0.0,0.0,0.0,0.0,0.0,0.0,0.0,0.0,0.0,0.0,0.0,0.0,0.0,0.0,0.0,0.0,0.0,0.0,0.0,0.0,0.0,0.0,0.0,0.0,0.0,0.0,0.0,0.0,0.0,0.0,0.0,0.0,0.0,0.0,0.0,0.0,0.0,0.0,0.0,0.0,0.0,0.0,0.0,0.0,0.0,0.0,0.0,0.0,0.0,0.0,0.0,0.0,0.0,0.0,0.0,0.0,0.0,0.0,0.0,0.0,0.0,0.0,0.0,0.0,0.0,0.0,0.0,0.0,0.0,0.0,0.0,0.0,0.0,0.0,0.0,0.0,0.0,0.0,0.0,0.0,0.0,0.0,0.0,0.0,0.0,0.0,0.0,0.0,0.0,0.0,0.0,0.0,0.0,0.0,0.0,0.0,0.0,0.0,0.0,0.0,0.0,0.0,0.0,0.0,0.0,0.0,0.0,0.0,0.0,0.0,0.0,0.0,0.0,0.0,0.0,0.0,0.0,0.0,0.0,0.0,0.0,0.0,0.0,0.0,0.0,0.0,0.0,0.0,0.0,0.0,0.0,0.0,0.0,0.0,0.0,0.0,0.0,0.0,0.0,0.0,0.0,0.0,0.0,0.0,0.0,0.0,0.0,0.0,0.0,0.0,0.0,0.0,0.0,0.0,0.0,0.0,0.0,0.0,0.0,0.0,0.0,0.0,0.0,0.0,0.0,0.0,0.0,0.0,0.0,0.0,0.0,0.0,0.0,0.0,0.0,0.0,0.0,0.0,0.0,0.0,0.0,0.0,0.0,0.0,0.0,0.0,0.0,0.0,0.0,0.0,0.0,0.0,0.0,0.0,0.0,0.0,0.0,0.0,0.0,0.0,0.0,0.0,0.0,0.0,0.0,0.0,0.0,0.0,0.0,0.0,0.0,0.0,0.0,0.0,0.0,0.0,0.0,0.0,0.0,0.0,0.0,0.0,0.0,0.0,0.0,0.0,0.0,0.0,0.0,0.0,0.0,0.0,0.0,0.0,0.0,0.0,0.0,0.0,0.0,0.0,0.0,0.0,0.0,0.0,0.0,0.0,0.0,0.0,0.0,0.0,0.0,0.0,0.0,0.0,0.0,0.0,0.0,0.0,0.0,0.0,0.0,0.0,0.0,0.0,0.0,0.0,0.0,0.0,0.0,0.0,0.0,0.0,0.0,0.0,0.0,0.0,0.0,0.0,0.0,0.0,0.0,0.0,0.0,0.0,0.0,0.0,0.0,0.0,0.0,0.0,0.0,0.0,0.0,0.0,0.0,0.0,0.0,0.0,0.0,0.0,0.0,0.0,0.0,0.0,0.0,0.0,0.0,0.0,0.0,0.0,0.0,0.0,0.0,0.0,0.0,0.0,0.0,0.0,0.0,0.0,0.0,0.0,0.0,0.0,0.0,0.0,0.0,0.0,0.0,0.0,0.0,0.0,0.0,0.0,0.0,0.0,0.0,0.0,0.0,0.0,0.0,0.0,0.0,0.0,0.0,0.0,0.0,0.0,0.0,0.0,0.0,0.0,0.0,0.0,0.0,0.0,0.0,0.0,0.0,0.0,0.0,0.0,0.0,0.0,0.0,0.0,0.0,0.0,0.0,0.0,0.0,0.0,0.0,0.0,0.0,0.0,0.0,0.0,0.0,0.0,0.0,0.0,0.0,0.0,0.0,0.0,0.0,0.0,0.0,0.0,0.0,0.0,0.0,0.0,0.0,0.0,0.0,0.0,0.0,0.0,0.0,0.0,0.0,0.0,0.0,0.0,0.0,0.0,0.0,0.0,0.0,0.0,0.0,0.0,0.0,0.0,0.0,0.0,0.0,0.0,0.0,0.0,0.0,0.0,0.0,0.0,0.0,0.0,0.0,0.0,0.0,0.0,0.0,0.0,0.0,0.0,0.0,0.0,0.0,0.0,0.0,0.0,0.0,0.0,0.0,0.0,0.0,0.0,0.0,0.0,0.0,0.0,0.0,0.0,0.0,0.0,0.0,0.0,0.0,0.0,0.0,0.0,0.0,0.0,0.0,0.0,0.0,0.0,0.0,0.0,0.0,0.0,0.0,0.0,0.0,0.0,0.0,0.0,0.0,0.0,0.0,0.0,0.0,0.0,0.0,0.0,0.0,0.0,0.0,0.0,0.0,0.0,0.0,0.0,0.0,0.0,0.0,0.0,0.0,0.0,0.0,0.0,0.0,0.0,0.0,0.0,0.0,0.0,0.0,0.0,0.0,0.0,0.0,0.0,0.0,0.0,0.0,0.0,0.0,0.0,0.0,0.0,0.0,0.0,0.0,0.0,0.0,0.0,0.0,0.0,0.0,0.0,0.0,0.0,0.0,0.0,0.0,0.0,0.0,0.0,0.0,0.0,0.0,0.0,0.0,0.0,0.0,0.0,0.0,0.0,0.0,0.0,0.0,0.0,0.0,0.0,0.0,0.0,0.0,0.0,0.0,0.0,0.0,0.0,0.0,0.0,0.0,0.0,0.0,0.0,0.0,0.0,0.0,0.0,0.0,0.0,0.0,0.0,0.0,0.0,0.0,0.0,0.0,0.0,0.0,0.0,0.0,0.0,0.0,0.0,0.0,0.0,0.0,0.0,0.0,0.0,0.0,0.0,0.0,0.0,0.0,0.0,0.0,0.0,0.0,0.0,0.0,0.0,0.0,0.0,0.0,0.0,0.0,0.0,0.0,0.0,0.0,0.0,0.0,0.0,0.0,0.0,0.0,0.0,0.0,0.0,0.0,0.0,0.0,0.0,0.0,0.0,0.0,0.0,0.0,0.0,0.0,0.0,0.0,0.0,0.0,0.0,0.0,0.0,0.0,0.0,0.0,0.0,0.0,0.0,0.0,0.0,0.0,0.0,0.0,0.0,0.0,0.0,0.0,0.0,0.0,0.0,0.0,0.0,0.0,0.0,0.0,0.0,0.0,0.0,0.0,0.0,0.0,0.0,0.0,0.0,0.0,0.0,0.0,0.0,0.0,0.0,0.0,0.0,0.0,0.0,0.0,0.0,0.0,0.0,0.0,0.0,0.0,0.0,0.0,0.0,0.0,0.0,0.0,0.0,0.0,0.0,0.0,0.0,0.0,0.0,0.0,0.0,0.0,0.0,0.0,0.0,0.0,0.0,0.0,0.0,0.0,0.0,0.0,0.0,0.0,0.0,0.0,0.0,0.0,0.0,0.0,0.0,0.0,0.0,0.0,0.0,0.0,0.0,0.0,0.0,0.0,0.0,0.0,0.0,0.0,0.0,0.0,0.0,0.0,0.0,0.0,0.0,0.0,0.0,0.0,0.0,0.0,0.0,0.0,0.0,0.0,0.0,0.0,0.0,0.0,0.0,0.0,0.0,0.0,0.0,0.0,0.0,0.0,0.0,0.0,0.0,0.0,0.0,0.0,0.0,0.0,0.0,0.0,0.0,0.0,0.0,0.0,0.0,0.0,0.0,0.0,0.0,0.0,0.0,0.0,0.0,0.0,0.0,0.0,0.0,0.0,0.0,0.0,0.0,0.0,0.0,0.0,0.0,0.0,0.0,0.0,0.0,0.0,0.0,0.0,0.0,0.0,0.0,-3.0522,0.0,0.0,0.0,0.0,0.0,0.0,0.0,0.0,0.0,0.0,0.0,0.0,0.0,0.0,0.0,0.0,0.0,0.0,0.0,0.0,0.0,0.0,0.0,0.0,0.0,0.0,0.0,0.0,0.0,0.0,0.0,0.0,0.0,0.0,0.0,0.0,0.0,0.0,0.0,0.0,0.0,0.0,0.0,0.0,0.0,0.0,0.0,0.0,0.0,0.0,0.0,0.0,0.0,0.0,0.0,0.0,0.0,0.0,0.0,0.0,0.0,0.0,0.0,0.0,0.0,0.0,0.0,0.0,0.0,0.0,0.0,0.0,0.0,0.0,0.0,0.0,0.0,0.0,0.0,0.0,0.0,0.0,0.0,0.0,0.0,0.0,0.0,0.0,0.0,0.0,0.0,0.0,0.0,0.0,0.0,0.0,0.0,0.0,0.0,0.0,0.0,0.0,0.0,0.0,0.0,0.0,0.0,0.0,0.0,0.0,-3.3574,-3.3544,-3.2587,-3.1899,-3.1599,0.0,0.0,0.0,0.0,0.0,0.0,0.0,0.0,0.0,0.0,0.0,0.0,0.0,0.0,0.0,0.0,0.0,0.0,0.0,0.0,0.0,0.0,0.0,0.0,0.0,0.0,0.0,0.0,0.0,0.0,0.0,0.0,0.0,0.0,0.0,0.0,0.0,0.0,0.0,0.0,0.0,0.0,0.0,0.0,0.0,0.0,0.0,0.0,0.0,0.0,0.0,0.0,0.0,0.0,0.0,0.0,0.0,0.0,0.0,0.0,0.0,0.0,0.0,0.0,0.0,0.0,0.0,0.0,0.0,0.0,0.0,0.0,0.0,0.0,0.0,0.0,0.0,0.0,0.0,0.0,0.0,0.0,0.0,0.0,0.0,0.0,0.0,0.0,0.0,0.0,0.0,0.0,0.0,0.0,0.0,0.0,0.0,0.0,0.0,0.0,0.0,0.0,0.0,0.0,0.0,0.0,0.0,0.0,0.0,0.0,0.0,0.0,-3.3215,-3.2348,-3.2019,0.0,0.0,0.0,0.0,0.0,0.0,0.0,0.0,0.0,0.0,0.0,0.0,0.0,0.0,0.0,0.0,0.0,0.0,0.0,0.0,0.0,0.0,0.0,0.0,0.0,0.0,0.0,0.0,0.0,0.0,0.0,0.0,0.0,0.0,0.0,0.0,0.0,0.0,0.0,0.0,0.0,0.0,0.0,0.0,0.0,0.0,0.0,0.0,0.0,0.0,0.0,0.0,0.0,0.0,0.0,0.0,0.0,0.0,0.0,0.0,0.0,0.0,0.0,0.0,0.0,0.0,0.0,0.0,0.0,0.0,0.0,0.0,0.0,0.0,0.0,0.0,0.0,0.0,0.0,0.0,0.0,0.0,0.0,0.0,0.0,0.0,0.0,0.0,0.0,0.0,0.0,0.0,0.0,0.0,0.0,0.0,0.0,0.0,0.0,0.0,0.0,0.0,0.0,0.0,0.0,0.0,0.0,0.0,0.0,0.0,-3.4503,-3.4503,-3.3215,0.0,-3.0761,0.0,0.0,0.0,0.0,0.0,0.0,0.0,0.0,0.0,0.0,0.0,0.0,0.0,0.0,0.0,0.0,0.0,0.0,0.0,0.0,0.0,0.0,0.0,0.0,0.0,0.0,0.0,0.0,0.0,0.0,0.0,0.0,0.0,0.0,0.0,0.0,0.0,0.0,0.0,0.0,0.0,0.0,0.0,0.0,0.0,0.0,0.0,0.0,0.0,0.0,0.0,0.0,0.0,0.0,0.0,0.0,0.0,0.0,0.0,0.0,0.0,0.0,0.0,0.0,0.0,0.0,0.0,0.0,0.0,0.0,0.0,0.0,0.0,0.0,0.0,0.0,0.0,0.0,0.0,0.0,0.0,0.0,0.0,0.0,0.0,0.0,0.0,0.0,0.0,0.0,0.0,0.0,0.0,0.0,0.0,0.0,0.0,0.0,0.0,0.0,0.0,0.0,0.0,0.0,0.0,0.0,0.0,0.0,0.0,0.0,-3.51,-3.51,-3.3425,-3.1898,0.0,0.0,0.0,0.0,0.0,0.0,0.0,0.0,0.0,0.0,0.0,0.0,0.0,0.0,0.0,0.0,0.0,0.0,0.0,0.0,0.0,0.0,0.0,0.0,0.0,0.0,0.0,0.0,0.0,0.0,0.0,0.0,0.0,0.0,0.0,0.0,0.0,0.0,0.0,0.0,0.0,0.0,0.0,0.0,0.0,0.0,0.0,0.0,0.0,0.0,0.0,0.0,0.0,0.0,0.0,0.0,0.0,0.0,0.0,0.0,0.0,0.0,0.0,0.0,0.0,0.0,0.0,0.0,0.0,0.0,0.0,0.0,0.0,0.0,0.0,0.0,0.0,0.0,0.0,0.0,0.0,0.0,0.0,0.0,0.0,0.0,0.0,0.0,0.0,0.0,0.0,0.0,0.0,0.0,0.0,0.0,0.0,0.0,0.0,0.0,0.0,0.0,0.0,0.0,0.0,0.0,0.0,0.0,0.0,0.0,-3.5026,-3.4904,-3.4604,-3.291,-3.1367,-3.0117,0.0,0.0,0.0,0.0,0.0,0.0,0.0,0.0,0.0,0.0,0.0,0.0,0.0,0.0,0.0,0.0,0.0,0.0,0.0,0.0,0.0,0.0,0.0,0.0,0.0,0.0,0.0,0.0,0.0,0.0,0.0,0.0,0.0,0.0,0.0,0.0,0.0,0.0,0.0,0.0,0.0,0.0,0.0,0.0,0.0,0.0,0.0,0.0,0.0,0.0,0.0,0.0,0.0,0.0,0.0,0.0,0.0,0.0,0.0,0.0,0.0,0.0,0.0,0.0,0.0,0.0,0.0,0.0,0.0,0.0,0.0,0.0,0.0,0.0,0.0,0.0,0.0,0.0,0.0,0.0,0.0,0.0,0.0,0.0,0.0,0.0,0.0,0.0,0.0,0.0,0.0,0.0,0.0,0.0,0.0,0.0,0.0,0.0,0.0,0.0,0.0,0.0,0.0,0.0,0.0,0.0,0.0,0.0,-3.3932,-3.3862,-3.3407,-3.2605,-3.1355,-3.0134,0.0,0.0,0.0,0.0,0.0,0.0,0.0,0.0,0.0,0.0,0.0,0.0,0.0,0.0,0.0,0.0,0.0,0.0,0.0,0.0,0.0,0.0,0.0,0.0,0.0,0.0,0.0,0.0,0.0,0.0,0.0,0.0,0.0,0.0,0.0,0.0,0.0,0.0,0.0,0.0,0.0,0.0,0.0,0.0,0.0,0.0,0.0,0.0,0.0,0.0,0.0,0.0,0.0,0.0,0.0,0.0,0.0,0.0,0.0,0.0,0.0,0.0,0.0,0.0,0.0,0.0,0.0,0.0,0.0,0.0,0.0,0.0,0.0,0.0,0.0,0.0,0.0,0.0,0.0,0.0,0.0,0.0,0.0,0.0,0.0,0.0,0.0,0.0,0.0,0.0,0.0,0.0,0.0,0.0,0.0,0.0,0.0,0.0,0.0,0.0,0.0,0.0,0.0,0.0,0.0,0.0,0.0,0.0,0.0,-3.2777,-3.2258,-3.1452,-3.0337,-2.9487,-2.859,0.0,0.0,0.0,0.0,0.0,0.0,0.0,0.0,0.0,0.0,0.0,0.0,0.0,0.0,0.0,0.0,0.0,0.0,0.0,0.0,0.0,0.0,0.0,0.0,0.0,0.0,0.0,0.0,0.0,0.0,0.0,0.0,0.0,0.0,0.0,0.0,0.0,0.0,0.0,0.0,0.0,0.0,0.0,0.0,0.0,0.0,0.0,0.0,0.0,0.0,0.0,0.0,0.0,0.0,0.0,0.0,0.0,0.0,0.0,0.0,0.0,0.0,0.0,0.0,0.0,0.0,0.0,0.0,0.0,0.0,0.0,0.0,0.0,0.0,0.0,0.0,0.0,0.0,0.0,0.0,0.0,0.0,0.0,0.0,0.0,0.0,0.0,0.0,0.0,0.0,0.0,0.0,0.0,0.0,0.0,0.0,0.0,0.0,0.0,0.0,0.0,0.0,0.0,0.0,0.0,0.0,0.0,0.0,0.0,-3.1589,0.0,-3.0589,-2.9383,-2.8557,-2.7721,0.0,0.0,0.0,0.0,0.0,0.0,0.0,0.0,0.0,0.0,0.0,0.0,0.0,0.0,0.0,0.0,0.0,0.0,0.0,0.0,0.0,0.0,0.0,0.0,0.0,0.0,0.0,0.0,0.0,0.0,0.0,0.0,0.0,0.0,0.0,0.0,0.0,0.0,0.0,0.0,0.0,0.0,0.0,0.0,0.0,0.0,0.0,0.0,0.0,0.0,0.0,0.0,0.0,0.0,0.0,0.0,0.0,0.0,0.0,0.0,0.0,0.0,0.0,0.0,0.0,0.0,0.0,0.0,0.0,0.0,0.0,0.0,0.0,0.0,0.0,0.0,0.0,0.0,0.0,0.0,0.0,0.0,0.0,0.0,0.0,0.0,0.0,0.0,0.0,0.0,0.0,0.0,0.0,0.0,0.0,0.0,0.0,0.0,0.0,0.0,0.0,0.0,0.0,0.0,0.0,0.0,0.0,0.0,-3.0011,-3.0283,-3.1021,-3.084,-2.9784,-2.8605,-2.7589,0.0,0.0,0.0,0.0,0.0,0.0,0.0,0.0,0.0,0.0,0.0,0.0,0.0,0.0,0.0,0.0,0.0,0.0,0.0,0.0,0.0,0.0,0.0,0.0,0.0,0.0,0.0,0.0,0.0,0.0,0.0,0.0,0.0,0.0,0.0,0.0,0.0,0.0,0.0,0.0,0.0,0.0,0.0,0.0,0.0,0.0,0.0,0.0,0.0,0.0,0.0,0.0,0.0,0.0,0.0,0.0,0.0,0.0,0.0,0.0,0.0,0.0,0.0,0.0,0.0,0.0,0.0,0.0,0.0,0.0,0.0,0.0,0.0,0.0,0.0,0.0,0.0,0.0,0.0,0.0,0.0,0.0,0.0,0.0,0.0,0.0,0.0,0.0,0.0,0.0,0.0,0.0,0.0,0.0,0.0,0.0,0.0,0.0,0.0,0.0,0.0,0.0,0.0,0.0,0.0,0.0,0.0,0.0,0.0,-2.9354,-2.9965,-2.9793,-2.8666,-2.8273,-2.749,0.0,0.0,0.0,0.0,0.0,0.0,0.0,0.0,0.0,0.0,0.0,0.0,0.0,0.0,0.0,0.0,0.0,0.0,0.0,0.0,0.0,0.0,0.0,0.0,0.0,0.0,0.0,0.0,0.0,0.0,0.0,0.0,0.0,0.0,0.0,0.0,0.0,0.0,0.0,0.0,0.0,0.0,0.0,0.0,0.0,0.0,0.0,0.0,0.0,0.0,0.0,0.0,0.0,0.0,0.0,0.0,0.0,0.0,0.0,0.0,0.0,0.0,0.0,0.0,0.0,0.0,0.0,0.0,0.0,0.0,0.0,0.0,0.0,0.0,0.0,0.0,0.0,0.0,0.0,0.0,0.0,0.0,0.0,0.0,0.0,0.0,0.0,0.0,0.0,0.0,0.0,0.0,0.0,0.0,0.0,0.0,0.0,0.0,0.0,0.0,0.0,0.0,0.0,0.0,0.0,0.0,0.0,0.0,0.0,-3.0815,-3.112,-3.0683,-2.9377,-2.9151,-2.8357,-2.6969,0.0,0.0,0.0,0.0,0.0,0.0,0.0,0.0,0.0,0.0,0.0,0.0,0.0,0.0,0.0,0.0,0.0,0.0,0.0,0.0,0.0,0.0,0.0,0.0,0.0,0.0,0.0,0.0,0.0,0.0,0.0,0.0,0.0,0.0,0.0,0.0,0.0,0.0,0.0,0.0,0.0,0.0,0.0,0.0,0.0,0.0,0.0,0.0,0.0,0.0,0.0,0.0,0.0,0.0,0.0,0.0,0.0,0.0,0.0,0.0,0.0,0.0,0.0,0.0,0.0,0.0,0.0,0.0,0.0,0.0,0.0,0.0,0.0,0.0,0.0,0.0,0.0,0.0,0.0,0.0,0.0,0.0,0.0,0.0,0.0,0.0,0.0,0.0,0.0,0.0,0.0,0.0,0.0,0.0,0.0,0.0,0.0,0.0,0.0,0.0,0.0,0.0,0.0,0.0,0.0,0.0,0.0,0.0,-3.4022,-3.4198,-3.3445,-3.1738,-3.116,-3.0069,0.0,0.0,0.0,0.0,0.0,0.0,0.0,0.0,0.0,0.0,0.0,0.0,0.0,0.0,0.0,0.0,0.0,0.0,0.0,0.0,0.0,0.0,0.0,0.0,0.0,0.0,0.0,0.0,0.0,0.0,0.0,0.0,0.0,0.0,0.0,0.0,0.0,0.0,0.0,0.0,0.0,0.0,0.0,0.0,0.0,0.0,0.0,0.0,0.0,0.0,0.0,0.0,0.0,0.0,0.0,0.0,0.0,0.0,0.0,0.0,0.0,0.0,0.0,0.0,0.0,0.0,0.0,0.0,0.0,0.0,0.0,0.0,0.0,0.0,0.0,0.0,0.0,0.0,0.0,0.0,0.0,0.0,0.0,0.0,0.0,0.0,0.0,0.0,0.0,0.0,0.0,0.0,0.0,0.0,0.0,0.0,0.0,0.0,0.0,0.0,0.0,0.0,0.0,0.0,0.0,0.0,0.0,0.0,0.0,-3.5751,-3.7713,-3.7588,-3.5198,-3.4148,-3.2667,0.0,0.0,0.0,0.0,0.0,0.0,0.0,0.0,0.0,0.0,0.0,0.0,0.0,0.0,0.0,0.0,0.0,0.0,0.0,0.0,0.0,0.0,0.0,0.0,0.0,0.0,0.0,0.0,0.0,0.0,0.0,0.0,0.0,0.0,0.0,0.0,0.0,0.0,0.0,0.0,0.0,0.0,0.0,0.0,0.0,0.0,0.0,0.0,0.0,0.0,0.0,0.0,0.0,0.0,0.0,0.0,0.0,0.0,0.0,0.0,0.0,0.0,0.0,0.0,0.0,0.0,0.0,0.0,0.0,0.0,0.0,0.0,0.0,0.0,0.0,0.0,0.0,0.0,0.0,0.0,0.0,0.0,0.0,0.0,0.0,0.0,0.0,0.0,0.0,0.0,0.0,0.0,0.0,0.0,0.0,0.0,0.0,0.0,0.0,0.0,0.0,0.0,0.0,0.0,0.0,0.0,0.0,0.0,-3.5504,-3.7436,-3.995,-4.0325,-3.8492,-3.6709,-3.4726,0.0,0.0,0.0,0.0,0.0,0.0,0.0,0.0,0.0,0.0,0.0,0.0,0.0,0.0,0.0,0.0,0.0,0.0,0.0,0.0,0.0,0.0,0.0,0.0,0.0,0.0,0.0,0.0,0.0,0.0,0.0,0.0,0.0,0.0,0.0,0.0,0.0,0.0,0.0,0.0,0.0,0.0,0.0,0.0,0.0,0.0,0.0,0.0,0.0,0.0,0.0,0.0,0.0,0.0,0.0,0.0,0.0,0.0,0.0,0.0,0.0,0.0,0.0,0.0,0.0,0.0,0.0,0.0,0.0,0.0,0.0,0.0,0.0,0.0,0.0,0.0,0.0,0.0,0.0,0.0,0.0,0.0,0.0,0.0,0.0,0.0,0.0,0.0,0.0,0.0,0.0,0.0,0.0,0.0,0.0,0.0,0.0,0.0,0.0,0.0,0.0,0.0,0.0,0.0,0.0,0.0,0.0,0.0,-3.6885,-3.9145,-4.1282,-4.2057,-4.1401,-3.8818,-3.6332,0.0,0.0,0.0,0.0,0.0,0.0,0.0,0.0,0.0,0.0,0.0,0.0,0.0,0.0,0.0,0.0,0.0,0.0,0.0,0.0,0.0,0.0,0.0,0.0,0.0,0.0,0.0,0.0,0.0,0.0,0.0,0.0,0.0,0.0,0.0,0.0,0.0,0.0,0.0,0.0,0.0,0.0,0.0,0.0,0.0,0.0,0.0,0.0,0.0,0.0,0.0,0.0,0.0,0.0,0.0,0.0,0.0,0.0,0.0,0.0,0.0,0.0,0.0,0.0,0.0,0.0,0.0,0.0,0.0,0.0,0.0,0.0,0.0,0.0,0.0,0.0,0.0,0.0,0.0,0.0,0.0,0.0,0.0,0.0,0.0,0.0,0.0,0.0,0.0,0.0,0.0,0.0,0.0,0.0,0.0,0.0,0.0,0.0,0.0,0.0,0.0,0.0,0.0,0.0,0.0,0.0,0.0,0.0,-3.8567,-4.0777,-4.2534,-4.3187,-4.2635,-3.9948,-3.7462,0.0,0.0,0.0,0.0,0.0,0.0,0.0,0.0,0.0,0.0,0.0,0.0,0.0,0.0,0.0,0.0,0.0,0.0,0.0,0.0,0.0,0.0,0.0,0.0,0.0,0.0,0.0,0.0,0.0,0.0,0.0,0.0,0.0,0.0,0.0,0.0,0.0,0.0,0.0,0.0,0.0,0.0,0.0,0.0,0.0,0.0,0.0,0.0,-3.106,0.0,0.0,0.0,0.0,0.0,0.0,0.0,0.0,0.0,0.0,0.0,0.0,0.0,0.0,0.0,0.0,0.0,0.0,0.0,0.0,0.0,0.0,0.0,0.0,0.0,0.0,0.0,0.0,0.0,0.0,0.0,0.0,0.0,0.0,0.0,0.0,0.0,0.0,0.0,0.0,0.0,0.0,0.0,0.0,0.0,0.0,0.0,0.0,0.0,0.0,0.0,0.0,0.0,0.0,0.0,0.0,0.0,0.0,0.0,-3.9747,-4.1681,-4.3087,-4.3539,-4.2936,-4.0802,-3.8592,0.0,0.0,0.0,0.0,0.0,0.0,0.0,0.0,0.0,0.0,0.0,0.0,0.0,0.0,0.0,0.0,0.0,0.0,0.0,0.0,0.0,0.0,0.0,0.0,0.0,0.0,0.0,0.0,0.0,0.0,0.0,0.0,0.0,0.0,0.0,0.0,0.0,0.0,0.0,0.0,0.0,0.0,0.0,0.0,0.0,0.0,0.0,0.0,0.0,0.0,0.0,0.0,0.0,0.0,0.0,0.0,0.0,0.0,0.0,0.0,0.0,0.0,0.0,0.0,0.0,0.0,0.0,0.0,0.0,0.0,0.0,0.0,0.0,0.0,0.0,0.0,0.0,0.0,0.0,0.0,0.0,0.0,0.0,0.0,0.0,0.0,0.0,0.0,0.0,0.0,0.0,0.0,0.0,0.0,0.0,0.0,0.0,0.0,0.0,0.0,0.0,0.0,0.0,0.0,0.0,0.0,0.0,-3.8341,-4.0827,-4.2414,-4.3489,-4.3765,-4.3087,-4.143,-3.9421,-3.7136,0.0,0.0,0.0,0.0,0.0,0.0,0.0,0.0,0.0,0.0,0.0,0.0,0.0,0.0,0.0,0.0,0.0,0.0,0.0,0.0,0.0,0.0,0.0,0.0,0.0,0.0,0.0,0.0,0.0,0.0,0.0,0.0,0.0,0.0,0.0,0.0,0.0,0.0,-2.9114,-2.915,0.0,0.0,0.0,0.0,0.0,0.0,0.0,0.0,-3.2479,0.0,0.0,0.0,0.0,0.0,0.0,0.0,0.0,0.0,0.0,0.0,0.0,0.0,0.0,0.0,0.0,0.0,0.0,0.0,0.0,0.0,0.0,0.0,0.0,0.0,0.0,0.0,0.0,0.0,0.0,0.0,0.0,0.0,0.0,0.0,0.0,0.0,0.0,0.0,0.0,0.0,0.0,0.0,0.0,0.0,0.0,0.0,0.0,0.0,0.0,0.0,0.0,0.0,0.0,0.0,0.0,-3.6128,-3.9874,-4.2333,-4.3514,-4.4644,-4.4719,-4.3664,-4.163,-3.9245,-3.6656,0.0,0.0,0.0,0.0,0.0,0.0,0.0,0.0,0.0,0.0,0.0,0.0,0.0,0.0,0.0,0.0,0.0,0.0,0.0,0.0,0.0,0.0,0.0,0.0,0.0,0.0,0.0,0.0,0.0,0.0,0.0,0.0,0.0,0.0,0.0,0.0,0.0,0.0,0.0,-2.9494,-2.9706,0.0,0.0,0.0,0.0,0.0,0.0,0.0,0.0,-3.2713,0.0,0.0,0.0,0.0,0.0,0.0,0.0,0.0,0.0,0.0,0.0,0.0,0.0,0.0,0.0,0.0,0.0,0.0,0.0,0.0,0.0,0.0,0.0,0.0,0.0,0.0,0.0,0.0,0.0,0.0,0.0,0.0,0.0,0.0,0.0,0.0,0.0,0.0,0.0,0.0,0.0,0.0,0.0,0.0,0.0,0.0,0.0,0.0,0.0,0.0,0.0,0.0,0.0,0.0,0.0,-3.8065,-4.1383,-4.3539,-4.4644,-4.5196,-4.4819,-4.3388,-4.1254,-3.8793,0.0,0.0,0.0,0.0,0.0,0.0,0.0,0.0,0.0,0.0,0.0,0.0,0.0,0.0,0.0,0.0,0.0,0.0,0.0,0.0,0.0,0.0,0.0,0.0,0.0,0.0,0.0,0.0,0.0,0.0,0.0,0.0,0.0,0.0,0.0,0.0,0.0,0.0,0.0,0.0,-2.9281,-2.9656,-2.9445,0.0,0.0,0.0,0.0,0.0,0.0,-3.2476,-3.211,0.0,0.0,0.0,0.0,0.0,0.0,0.0,0.0,0.0,0.0,0.0,0.0,0.0,0.0,0.0,0.0,0.0,0.0,0.0,0.0,0.0,0.0,0.0,0.0,0.0,0.0,0.0,0.0,0.0,0.0,0.0,0.0,0.0,0.0,0.0,0.0,0.0,0.0,0.0,0.0,0.0,0.0,0.0,0.0,0.0,0.0,0.0,0.0,0.0,0.0,0.0,0.0,0.0,0.0,0.0,-3.9492,-4.2343,-4.4294,-4.5244,-4.542,-4.4619,-4.2787,-4.0561,-3.8016,0.0,0.0,0.0,0.0,0.0,0.0,0.0,0.0,0.0,0.0,0.0,0.0,0.0,0.0,0.0,0.0,0.0,0.0,0.0,0.0,0.0,0.0,0.0,0.0,0.0,0.0,0.0,0.0,0.0,0.0,0.0,0.0,0.0,0.0,0.0,0.0,0.0,0.0,0.0,0.0,0.0,-2.962,-2.9385,-2.9448,0.0,0.0,0.0,0.0,-3.1636,-3.2061,0.0,0.0,0.0,0.0,0.0,0.0,0.0,0.0,0.0,0.0,0.0,0.0,0.0,0.0,0.0,0.0,0.0,0.0,0.0,0.0,0.0,0.0,0.0,0.0,0.0,0.0,0.0,0.0,0.0,0.0,0.0,0.0,0.0,0.0,0.0,0.0,0.0,0.0,0.0,0.0,0.0,0.0,0.0,0.0,0.0,0.0,0.0,0.0,0.0,0.0,0.0,0.0,0.0,0.0,0.0,0.0,-3.8868,-4.2076,-4.3998,-4.4639,-4.5083,-4.42,-4.1907,-3.9485,-3.6836,0.0,0.0,0.0,0.0,0.0,0.0,0.0,0.0,0.0,0.0,0.0,0.0,0.0,0.0,0.0,0.0,0.0,0.0,0.0,0.0,0.0,0.0,0.0,0.0,0.0,0.0,0.0,0.0,0.0,0.0,0.0,0.0,0.0,0.0,0.0,0.0,0.0,0.0,0.0,0.0,0.0,-3.0211,-3.0396,-3.0465,-3.0601,0.0,0.0,-3.2593,-3.2529,-3.2912,0.0,0.0,0.0,0.0,0.0,0.0,0.0,0.0,0.0,0.0,0.0,0.0,0.0,0.0,0.0,0.0,0.0,0.0,0.0,0.0,0.0,0.0,0.0,0.0,0.0,0.0,0.0,0.0,0.0,0.0,0.0,0.0,0.0,0.0,0.0,0.0,0.0,0.0,0.0,0.0,0.0,0.0,0.0,0.0,0.0,0.0,0.0,0.0,0.0,0.0,0.0,0.0,0.0,0.0,0.0,-3.5254,-3.8924,-4.1562,-4.3301,-4.4061,-4.4278,-4.312,-4.0595,-3.8022,-3.5439,0.0,0.0,0.0,0.0,0.0,0.0,0.0,0.0,0.0,0.0,0.0,0.0,0.0,0.0,0.0,0.0,0.0,0.0,0.0,0.0,0.0,0.0,0.0,0.0,0.0,0.0,0.0,0.0,0.0,0.0,0.0,0.0,0.0,0.0,0.0,0.0,0.0,0.0,0.0,0.0,0.0,0.0,-3.0779,-3.0991,0.0,0.0,0.0,-3.2122,-3.2365,0.0,0.0,0.0,0.0,0.0,0.0,0.0,0.0,0.0,0.0,0.0,0.0,0.0,0.0,0.0,0.0,0.0,0.0,0.0,0.0,0.0,0.0,0.0,0.0,0.0,0.0,0.0,0.0,0.0,0.0,0.0,0.0,0.0,0.0,0.0,0.0,0.0,0.0,0.0,0.0,0.0,0.0,0.0,0.0,0.0,0.0,0.0,0.0,0.0,0.0,0.0,0.0,0.0,0.0,0.0,0.0,0.0,-3.8489,-4.0669,-4.2221,-4.313,-4.3193,-4.1923,-3.9268,-3.6818,0.0,0.0,0.0,0.0,0.0,0.0,0.0,0.0,0.0,0.0,0.0,0.0,0.0,0.0,0.0,0.0,0.0,0.0,0.0,0.0,0.0,0.0,0.0,0.0,0.0,0.0,0.0,-2.0176,0.0,0.0,0.0,0.0,0.0,0.0,0.0,0.0,0.0,0.0,0.0,0.0,0.0,0.0,-3.1133,-3.1348,-3.1719,-3.1992,0.0,0.0,-3.2109,-3.2441,-3.3008,-3.2701,0.0,0.0,0.0,0.0,0.0,0.0,0.0,0.0,0.0,0.0,0.0,0.0,0.0,0.0,0.0,0.0,0.0,0.0,0.0,0.0,0.0,0.0,0.0,0.0,0.0,0.0,0.0,0.0,0.0,0.0,0.0,0.0,0.0,0.0,0.0,0.0,0.0,0.0,0.0,0.0,0.0,0.0,0.0,0.0,0.0,0.0,0.0,0.0,0.0,0.0,0.0,0.0,0.0,0.0,-3.2942,-3.6837,-3.9243,-4.074,-4.1482,-4.1738,-4.0675,-3.8275,-3.6075,-3.384,0.0,0.0,0.0,0.0,0.0,0.0,0.0,0.0,0.0,0.0,0.0,0.0,0.0,0.0,0.0,0.0,0.0,0.0,0.0,0.0,0.0,0.0,0.0,0.0,0.0,0.0,0.0,0.0,0.0,0.0,0.0,0.0,0.0,0.0,0.0,0.0,0.0,0.0,0.0,0.0,0.0,-3.1758,-3.2559,-3.3027,-3.3301,0.0,-3.3301,-3.3301,-3.332,-3.3379,-3.2737,-3.0853,0.0,0.0,0.0,0.0,0.0,0.0,0.0,0.0,0.0,0.0,0.0,0.0,0.0,0.0,0.0,0.0,0.0,0.0,0.0,0.0,0.0,0.0,0.0,0.0,0.0,0.0,0.0,0.0,0.0,0.0,0.0,0.0,0.0,0.0,0.0,0.0,0.0,0.0,0.0,0.0,0.0,0.0,0.0,0.0,0.0,0.0,0.0,0.0,0.0,0.0,0.0,0.0,0.0,-3.1218,-3.4891,-3.7249,-3.8891,-3.967,-3.9736,-3.8916,-3.7023,-3.5066,-3.2948,0.0,0.0,0.0,0.0,0.0,0.0,0.0,0.0,0.0,0.0,0.0,0.0,0.0,0.0,0.0,0.0,0.0,0.0,0.0,0.0,0.0,0.0,0.0,0.0,0.0,0.0,0.0,0.0,-2.082,-2.0937,-2.084,0.0,0.0,0.0,0.0,0.0,0.0,0.0,0.0,0.0,0.0,-3.2617,-3.3457,-3.3945,0.0,0.0,-3.4219,-3.4121,-3.3867,-3.3828,-3.3148,-3.1093,-2.9154,0.0,0.0,0.0,0.0,0.0,0.0,0.0,0.0,0.0,0.0,0.0,0.0,0.0,0.0,0.0,0.0,0.0,0.0,0.0,0.0,0.0,0.0,0.0,0.0,0.0,0.0,0.0,0.0,0.0,0.0,0.0,0.0,0.0,0.0,0.0,0.0,0.0,0.0,0.0,0.0,0.0,0.0,0.0,0.0,0.0,0.0,0.0,0.0,0.0,0.0,0.0,0.0,-3.0002,-3.3406,-3.5749,-3.7415,-3.8196,-3.8308,-3.7587,-3.601,-3.4433,-3.2586,0.0,0.0,0.0,0.0,0.0,0.0,0.0,0.0,0.0,0.0,0.0,0.0,0.0,0.0,0.0,0.0,0.0,0.0,0.0,0.0,0.0,0.0,0.0,0.0,0.0,0.0,0.0,0.0,-2.1504,-2.1387,-2.086,0.0,0.0,0.0,0.0,0.0,0.0,0.0,0.0,0.0,0.0,-3.3008,-3.4101,-3.4512,-3.4785,-3.5059,-3.4863,-3.4551,-3.4141,-3.375,-3.291,-3.1172,0.0,0.0,0.0,0.0,0.0,0.0,0.0,0.0,0.0,0.0,0.0,0.0,0.0,0.0,0.0,0.0,0.0,0.0,0.0,0.0,0.0,0.0,0.0,0.0,0.0,0.0,0.0,-2.9804,0.0,0.0,-2.9804,0.0,0.0,0.0,0.0,0.0,0.0,0.0,0.0,0.0,0.0,0.0,0.0,0.0,0.0,0.0,0.0,0.0,0.0,0.0,0.0,0.0,0.0,-2.9439,-3.247,-3.498,-3.6567,-3.7106,-3.7461,-3.6902,-3.542,-3.4491,-3.2956,-3.0613,0.0,0.0,0.0,0.0,0.0,0.0,0.0,0.0,0.0,0.0,0.0,0.0,0.0,0.0,0.0,0.0,0.0,0.0,0.0,0.0,0.0,0.0,0.0,0.0,0.0,0.0,-2.2973,-2.2715,-2.2109,0.0,0.0,0.0,0.0,0.0,0.0,0.0,0.0,0.0,-2.9238,-3.1133,-3.2793,-3.4434,-3.4707,-3.5,-3.584,-3.5234,-3.4551,-3.4101,-3.309,-3.1914,0.0,0.0,0.0,0.0,0.0,0.0,0.0,0.0,0.0,0.0,0.0,0.0,0.0,0.0,0.0,0.0,0.0,0.0,0.0,0.0,0.0,0.0,0.0,0.0,0.0,0.0,0.0,-3.1253,-3.0907,0.0,0.0,0.0,0.0,0.0,0.0,0.0,0.0,0.0,0.0,0.0,-3.1019,-3.1763,0.0,0.0,0.0,0.0,0.0,0.0,0.0,0.0,0.0,0.0,0.0,0.0,-2.868,-3.1406,-3.3918,-3.5581,-3.6316,-3.6471,-3.6147,-3.5375,-3.4518,-3.2385,-2.8795,0.0,0.0,0.0,0.0,0.0,0.0,0.0,0.0,0.0,0.0,0.0,0.0,0.0,0.0,0.0,0.0,0.0,0.0,0.0,0.0,0.0,0.0,0.0,0.0,0.0,-2.2305,0.0,0.0,0.0,0.0,0.0,0.0,0.0,0.0,0.0,0.0,0.0,-2.8184,-3.0195,-3.168,-3.3105,-3.4512,-3.4961,-3.5273,0.0,0.0,0.0,0.0,0.0,0.0,0.0,0.0,0.0,0.0,0.0,0.0,0.0,0.0,-3.0976,-2.998,-2.9922,-2.9883,-2.9453,0.0,0.0,0.0,0.0,0.0,0.0,0.0,0.0,0.0,0.0,0.0,0.0,0.0,0.0,-3.1993,-3.1484,-3.088,0.0,0.0,0.0,0.0,0.0,0.0,0.0,0.0,-3.2876,-3.3325,-3.267,-3.3366,-3.3264,-3.2346,-3.2326,-3.0956,0.0,0.0,0.0,0.0,0.0,0.0,0.0,0.0,-2.8672,-3.1094,-3.3633,-3.5293,-3.5976,-3.6035,-3.582,-3.5391,-3.4258,-3.2031,-2.8672,-2.7031,-2.5195,0.0,0.0,0.0,0.0,0.0,0.0,0.0,0.0,0.0,0.0,0.0,0.0,0.0,0.0,0.0,0.0,0.0,0.0,0.0,0.0,0.0,0.0,0.0,-2.2734,0.0,0.0,0.0,0.0,0.0,0.0,0.0,0.0,0.0,-2.5743,-2.7279,-2.8859,-3.0405,-3.1436,-3.2549,-3.3792,0.0,0.0,0.0,0.0,0.0,0.0,0.0,-3.1914,-3.1797,-3.1523,-3.1523,-3.2109,-3.2455,-3.2797,-3.3212,0.0,0.0,-3.2887,-3.2891,-3.2949,-3.2539,-3.2461,-3.2324,-3.1855,-3.1684,-3.1475,0.0,0.0,0.0,0.0,-3.396,0.0,0.0,0.0,-3.2581,-3.2175,0.0,-3.0861,0.0,0.0,0.0,0.0,-2.9214,-3.0192,0.0,0.0,-3.3875,-3.4512,-3.4185,-3.4557,-3.4277,-3.3516,-3.3418,-3.2581,-3.0878,-2.8717,0.0,0.0,0.0,0.0,0.0,0.0,-2.9375,-3.1523,-3.4082,-3.5605,-3.6016,-3.6035,-3.5801,-3.5332,-3.373,-3.2051,-3.0294,-2.9043,-2.7383,-2.5302,-2.4355,0.0,0.0,0.0,0.0,0.0,0.0,0.0,0.0,0.0,0.0,0.0,0.0,0.0,0.0,0.0,0.0,0.0,0.0,0.0,0.0,-2.3803,0.0,0.0,0.0,0.0,0.0,0.0,0.0,0.0,0.0,0.0,-2.6097,-2.7425,-2.8628,-2.9872,0.0,0.0,0.0,0.0,-3.3321,-3.4158,-3.4221,-3.4145,-3.4192,-3.3436,-3.3027,-3.3437,0.0,0.0,-3.4668,-3.4843,-3.4729,-3.4323,-3.4533,-3.5102,-3.5635,-3.5665,-3.5617,-3.5296,-3.5112,-3.5187,-3.4751,-3.4061,-3.3687,-3.9627,0.0,0.0,0.0,0.0,-3.6055,-3.6112,-3.6022,-3.5274,-3.4678,-3.4189,-3.2891,0.0,0.0,0.0,0.0,0.0,0.0,-3.2024,-3.2913,-3.4766,-3.541,-3.5039,-3.5449,-3.5351,-3.4805,-3.418,-3.3476,-3.2637,-3.1132,-2.9258,-2.7016,0.0,0.0,0.0,0.0,-2.9805,-3.1973,-3.4238,-3.5605,-3.6016,-3.6035,-3.5664,-3.4922,-3.4121,-3.3047,-3.166,-3.0664,-2.9297,-2.7461,-2.6562,0.0,0.0,0.0,0.0,0.0,0.0,0.0,0.0,0.0,0.0,0.0,0.0,0.0,0.0,0.0,0.0,0.0,0.0,0.0,-2.3401,-2.3791,-2.3595,0.0,0.0,0.0,0.0,0.0,0.0,0.0,0.0,0.0,-2.5485,-2.6764,-2.7794,0.0,0.0,-2.9463,-3.0119,-3.0575,-3.1143,-3.1983,-3.2802,0.0,-3.3741,-3.4269,-3.4785,-3.5215,-3.6035,-3.6816,-3.7363,-3.7009,-3.6349,-3.5338,-3.4737,-3.4256,-3.3674,-3.4487,-3.4975,-3.4762,-3.4855,-3.4911,-3.4506,-3.3902,-3.3197,-4.0954,-3.9484,-3.8484,-3.7761,-3.7292,-3.736,-3.7559,-3.7846,-3.6881,-3.6248,-3.5758,-3.4391,-3.3064,-3.1778,-3.109,0.0,0.0,0.0,-3.3486,-3.4379,-3.6005,-3.6562,-3.6191,-3.6582,-3.6367,-3.5644,-3.5098,-3.4531,-3.3906,-3.3164,-3.1914,-3.0156,0.0,-2.6992,-2.8281,-2.9394,-3.084,-3.2656,-3.4629,-3.5762,-3.6016,-3.6035,-3.5605,-3.4726,-3.4453,-3.3711,-3.2461,-3.1758,-3.0664,-2.9121,-2.8066,-2.6699,0.0,0.0,0.0,0.0,0.0,0.0,0.0,0.0,0.0,0.0,0.0,-1.9434,-1.9766,0.0,0.0,0.0,-2.1725,-2.2325,-2.297,-2.3305,0.0,0.0,0.0,0.0,0.0,0.0,0.0,-2.2902,-2.332,-2.3874,-2.4699,-2.5707,-2.6725,-2.7552,-2.8026,-2.8499,-2.8917,0.0,-2.9833,-3.0644,-3.1793,-3.2791,-3.3299,-3.4264,-3.5135,-3.5775,-3.6461,-3.7108,-3.7528,-3.6867,-3.5885,-3.4786,-3.3809,-3.275,-3.1759,-3.2401,-3.3231,-3.366,-3.3947,-3.407,-3.3944,-3.3283,-3.2458,-4.1754,-4.0766,-3.9148,-3.831,-3.8135,-3.8153,-3.8347,-3.8535,-3.7734,-3.7168,-3.668,-3.541,-3.418,-3.2949,-3.2129,0.0,-3.3613,-3.4434,-3.5234,-3.6113,-3.7363,-3.7715,-3.7363,-3.7734,-3.7285,-3.6113,-3.6016,-3.5527,-3.4707,-3.4648,-3.4453,-3.4048,-3.0508,-2.9336,-3.043,-3.1269,-3.2285,-3.3516,-3.5176,-3.6016,-3.6035,-3.6035,-3.5586,-3.4726,-3.4687,-3.4121,-3.291,-3.248,-3.168,-3.041,-2.916,-2.7891,-2.6543,0.0,0.0,0.0,0.0,0.0,0.0,0.0,0.0,0.0,0.0,0.0,0.0,0.0,0.0,0.0,-2.1776,0.0,-2.2505,-2.2731,0.0,0.0,0.0,-2.1611,-2.2203,-2.2319,-2.2539,-2.2871,0.0,0.0,-2.3834,-2.4596,-2.5648,-2.7122,-2.7548,-2.7862,-2.8162,-2.8537,-2.9108,-2.9856,-3.0972,-3.1916,-3.2689,-3.3534,-3.4378,-3.5012,-3.5358,-3.5429,-3.5738,-3.4914,-3.3919,-3.2994,-3.1868,-3.0809,-2.9974,-2.9897,-3.0391,-3.2087,-3.2569,-3.2806,-3.2989,-3.2521,-3.1573,-4.0634,-4.0097,-3.9725,-3.9533,-3.9556,-3.943,-3.9281,-3.9004,-3.8496,-3.8027,-3.7559,-3.6621,-3.5664,-3.4746,-3.4199,-3.4297,-3.4941,-3.5469,-3.5996,-3.6562,-3.748,-3.7871,-3.7773,-3.7871,-3.7598,-3.6953,-3.5996,-3.5254,-3.4707,-3.4375,-3.416,-3.4023,-3.3207,-3.2695,-3.2656,-3.2871,-3.3437,-3.4394,-3.5469,-3.6035,-3.6035,-3.6035,-3.5586,-3.4726,-3.4687,-3.4258,-3.332,-3.3184,-3.2695,-3.1738,-3.0801,-2.9394,-2.7461,-2.6035,0.0,0.0,0.0,0.0,0.0,0.0,0.0,0.0,0.0,-2.0339,-2.1268,0.0,-2.1421,0.0,-2.1787,-2.2245,-2.2659,-2.3257,0.0,0.0,-2.2653,-2.257,-2.2963,-2.2984,-2.3243,-2.3873,-2.3971,-2.4195,-2.4703,-2.5144,-2.5666,-2.6267,-2.6619,-2.6763,-2.6845,-2.69,-2.7332,-2.8158,-2.9286,-3.0283,-3.1181,-3.2192,-3.3001,-3.3187,-3.3221,-3.3255,-3.3339,-3.2674,-3.1699,-3.0531,-2.9619,-2.8724,-2.7848,-2.7572,-2.7939,-2.8829,-3.0061,-3.1151,-3.1507,-3.0961,-3.0159,-4.0684,-4.0469,-4.0469,-4.0555,-4.0549,-4.0235,-4.003,-3.9746,-3.9355,-3.8906,-3.8457,-3.7812,-3.7266,-3.6797,-3.6543,-3.6562,-3.6816,-3.7051,-3.7285,-3.7539,-3.7988,-3.8203,-3.8223,-3.8223,-3.7891,-3.7266,-3.6191,-3.5449,-3.5,-3.457,-3.4453,-3.4648,-3.4844,-3.4824,-3.457,-3.4199,-3.4336,-3.5,-3.5684,-3.6035,-3.6016,-3.584,-3.541,-3.4726,-3.4512,-3.4023,-3.3184,-3.3144,-3.2754,-3.1914,-3.1055,-2.9863,-2.8301,-2.6836,-2.5039,0.0,0.0,0.0,0.0,0.0,0.0,0.0,0.0,0.0,0.0,0.0,-2.1626,-2.1293,-2.1225,-2.152,-2.2219,-2.28,-2.32,-2.3249,-2.3107,-2.3134,-2.3465,-2.3721,-2.3981,-2.4363,-2.4797,-2.5104,-2.5438,-2.5718,-2.5959,-2.6132,-2.6279,-2.64,-2.64,-2.64,-2.6623,-2.7254,-2.8246,-2.9231,-3.0238,-3.1008,-3.1453,-3.1453,-3.1453,-3.1453,-3.1376,-3.0777,-2.9944,-2.9075,-2.8246,-2.7574,-2.6907,-2.6827,-2.7014,-2.762,-2.8383,-2.9215,-2.9684,-2.9374,-2.8963,-4.1172,-4.1172,-4.1172,-4.1172,-4.1152,-4.0762,-4.0566,-4.0488,-4.0137,-3.9687,-3.918,-3.875,-3.8574,-3.8574,-3.8516,-3.8496,-3.8496,-3.8437,-3.8418,-3.8418,-3.8457,-3.8496,-3.8496,-3.8555,-3.8125,-3.7266,-3.6426,-3.5801,-3.5391,-3.4922,-3.4941,-3.5391,-3.582,-3.6035,-3.5996,-3.5254,-3.5059,-3.5469,-3.584,-3.6035,-3.6016,-3.5605,-3.5176,-3.4707,-3.4238,-3.3594,-3.2754,-3.2715,-3.2324,-3.1465,-3.0684,-2.9863,-2.8945,-2.748,-2.5859,0.0,-2.3422,0.0,0.0,0.0,0.0,0.0,0.0,0.0,0.0,-2.204,-2.1759,-2.1152,-2.0706,-2.0802,-2.1708,-2.2245,-2.2806,-2.3313,-2.338,-2.3514,-2.3848,-2.4329,-2.4676,-2.4796,-2.5491,-2.5959,-2.6012,-2.6239,-2.6386,-2.6373,-2.6373,-2.6386,-2.64,-2.64,-2.6544,-2.686,-2.7555,-2.8325,-2.9168,-2.9556,-2.9556,-2.9556,-2.9556,-2.9634,-2.9556,-2.9027,-2.8495,-2.8104,-2.7398,-2.6903,-2.6814,-2.6881,-2.7081,-2.7655,-2.77,-2.7729,-2.8133,-2.8201,-2.8114,-4.1172,-4.1172,-4.1172,-4.1172,-4.1172,-4.1094,-4.084,-4.0508,-4.0449,-3.9941,-3.918,-3.8769,-3.8574,-3.8555,-3.8203,-3.8047,-3.8027,-3.7695,-3.7539,-3.7559,-3.7891,-3.8047,-3.8066,-3.8398,-3.8125,-3.7266,-3.6426,-3.5801,-3.5391,-3.4922,-3.4941,-3.5391,-3.582,-3.6035,-3.6016,0.0,0.0,0.0,-3.5976,-3.6035,-3.6016,-3.5605,-3.5176,-3.4707,-3.3945,0.0,-3.2344,-3.2346,-3.1894,-3.1074,-3.0859,0.0,0.0,0.0,0.0,0.0,0.0,0.0,0.0,0.0,0.0,0.0,-2.1994,-2.2201,-2.2245,-2.2083,-2.1958,-2.1845,-2.174,-2.1911,-2.2552,-2.3153,-2.3554,-2.3674,-2.3688,-2.3888,-2.4396,-2.4583,-2.4903,-2.5625,-2.5852,-2.613,-2.6266,-2.636,-2.6386,-2.64,-2.64,-2.64,-2.64,-2.64,-2.6386,-2.6544,-2.6781,-2.686,-2.7083,-2.7162,-2.7319,-2.7083,-2.7083,-2.7162,-2.724,-2.7083,-2.6939,-2.6781,-2.6623,-2.6719,-2.7068,-2.7188,-2.7348,-2.802,-2.7816,-2.7642,-2.7749,-2.7602,-2.7511,-4.1172,-4.1172,-4.1172,-4.1172,0.0,-4.1172,-4.1055,-4.082,-4.0605,-4.0019,-3.918,-3.875,-3.8457,-3.8223,-3.7812,-3.75,-3.7285,-3.6855,-3.6797,-3.7012,-3.7422,-3.7734,-3.793,-3.8379,-3.8242,-3.7578,-3.6738,-3.623,-3.6016,-3.5566,-3.5469,-3.5703,-3.6133,-3.623,-3.6035,-3.6035,-3.6035,-3.6035,-3.6035,-3.6035,-3.6016,-3.5605,-3.5176,-3.4707,-3.4082,0.0,0.0,0.0,0.0,0.0,0.0,0.0,0.0,0.0,0.0,-2.6864,-2.59,-2.4915,-2.3851,-2.3262,-2.2724,-2.2184,-2.2418,-2.2554,-2.2369,-2.2382,-2.2514,-2.2646,-2.2633,-2.2886,-2.346,-2.3808,-2.4048,-2.4182,-2.4329,-2.4543,-2.4823,-2.5117,-2.5464,-2.5865,-2.6079,-2.6226,-2.6373,-2.64,-2.64,-2.64,-2.64,-2.64,-2.64,-2.64,-2.64,-2.64,-2.64,-2.6386,-2.64,-2.64,-2.64,-2.6386,-2.64,-2.64,-2.64,-2.64,-2.64,-2.64,-2.64,-2.6587,-2.7108,-2.735,-2.7442,-2.802,-2.7789,-2.7495,-2.7482,-2.7362,-2.735,-4.1172,-4.1172,-4.1172,-4.1172,-4.1172,-4.1172,-4.1172,-4.1133,-4.0625,0.0,0.0,-3.8809,-3.8379,-3.8008,-3.7519,-3.7109,-3.6758,-3.625,-3.625,-3.668,-3.7109,-3.7519,-3.793,-3.8359,-3.8359,-3.7891,-3.7148,-3.6777,-3.6758,-3.6269,-3.6074,-3.6152,-3.6426,-3.6367,-3.6055,-3.6035,-3.6035,-3.6035,-3.6035,-3.6035,-3.6016,-3.5605,-3.5215,-3.4824,-3.4258,-3.3418,-3.2324,-3.2268,-3.1816,-3.1055,-3.0703,-3.0508,-3.041,-2.9505,-2.8709,-2.8145,-2.6986,-2.5861,-2.4805,-2.4039,-2.3329,-2.2708,-2.2916,-2.2979,-2.2672,-2.2886,-2.3126,-2.338,-2.3447,-2.3688,-2.4155,-2.4262,-2.4396,-2.469,-2.493,-2.5104,-2.5237,-2.5715,-2.6023,-2.6117,-2.6239,-2.6386,-2.6386,-2.64,-2.64,-2.64,-2.64,-2.64,-2.64,-2.64,-2.64,-2.64,-2.64,-2.64,-2.64,-2.64,-2.64,-2.64,-2.64,-2.64,-2.64,-2.64,-2.64,-2.64,-2.64,-2.664,-2.7121,-2.735,-2.7468,-2.8114,-2.7752,-2.735,-2.7336,-2.7175,-2.7081,-4.1172,-4.1172,-4.1172,-4.1172,-4.1172,-4.1172,-4.1172,-4.1113,-4.0332,-3.9922,-3.9746,-3.8926,-3.8535,-3.8437,-3.7656,-3.7266,-3.7148,-3.6367,-3.625,-3.668,-3.7109,-3.7519,-3.793,-3.8359,-3.834,-3.791,-3.7441,-3.7207,-3.7129,-3.6426,-3.6211,-3.6484,-3.6269,-3.6074,-3.6035,-3.6035,-3.6035,-3.6035,-3.6035,-3.6035,-3.6016,-3.5605,-3.5371,-3.5254,-3.4141,-3.3262,-3.2734,-3.2363,-3.1934,-3.1465,-3.1719,-3.1719,-3.1308,-3.0926,-3.0256,-2.9141,-2.822,-2.7084,-2.5732,-2.497,-2.4285,-2.373,-2.3852,-2.3888,-2.3621,-2.3621,-2.3732,-2.3714,-2.3928,-2.4102,-2.4222,-2.4449,-2.4716,-2.497,-2.505,-2.5277,-2.5809,-2.5983,-2.6066,-2.6279,-2.636,-2.64,-2.64,-2.64,-2.64,-2.64,-2.64,-2.64,-2.64,-2.64,-2.64,-2.64,-2.64,-2.64,-2.64,-2.64,-2.64,-2.64,-2.64,-2.64,-2.64,-2.64,-2.64,-2.64,-2.64,-2.6613,-2.7134,-2.735,-2.7578,-2.802,-2.7712,-2.7255,-2.7323,-2.6907,-2.656,-4.1172,-4.1172,-4.1172,-4.1172,-4.1172,-4.1172,-4.1172,-4.1113,-4.0508,-4.0098,-3.9805,-3.8965,-3.8437,-3.8184,-3.7578,-3.7168,-3.6934,-3.6309,-3.625,-3.668,-3.7109,-3.7519,-3.793,-3.8379,-3.8476,-3.8262,-3.8086,-3.7871,-3.7617,-3.7246,-3.6934,-3.668,-3.623,-3.6133,-3.6348,-3.6133,-3.6035,-3.6035,-3.6035,-3.6035,-3.6016,-3.584,-3.5625,-3.5391,-3.4785,-3.4062,-3.3164,-3.2762,-3.2169,-3.1331,-3.1302,-3.1138,-3.0724,-3.0259,-2.959,-2.8892,-2.7769,-2.6682,-2.5655,-2.4736,-2.417,-2.4053,-2.4128,-2.4222,-2.4249,-2.4235,-2.4235,-2.4249,-2.4502,-2.4676,-2.469,-2.4943,-2.517,-2.5291,-2.5451,-2.5665,-2.5996,-2.6106,-2.6253,-2.6373,-2.64,-2.64,-2.64,-2.64,-2.64,-2.64,-2.6386,-2.6386,-2.6386,-2.6386,-2.6386,-2.64,-2.64,-2.64,-2.64,-2.64,-2.64,-2.64,-2.64,-2.64,-2.64,-2.64,-2.64,-2.64,-2.64,-2.656,-2.6961,-2.7028,-2.7281,-2.7682,-2.7428,-2.7121,-2.7134,-2.68,-2.6426,-4.1172,-4.1172,-4.1172,-4.1172,-4.1172,-4.1172,-4.1172,-4.1133,-4.0703,-4.0332,-3.9941,-3.9101,-3.8476,-3.8047,-3.7617,-3.7266,-3.6914,-3.6504,-3.6543,-3.6953,-3.7285,-3.7656,-3.8066,-3.8418,-3.8574,-3.8574,-3.8574,-3.8398,-3.8086,-3.7871,-3.7402,-3.6719,-3.6328,-3.6328,-3.6641,-3.623,-3.6035,-3.6035,-3.6035,-3.6035,-3.6035,-3.6035,-3.5859,-3.5566,-3.543,-3.4902,-3.3881,-3.3322,-3.2511,-3.1364,-3.0888,-3.0365,-2.9877,-2.9163,-2.8575,-2.8042,-2.6923,-2.5926,-2.5257,-2.4457,-2.4062,-2.4275,-2.4369,-2.4502,-2.4703,-2.4796,-2.4796,-2.4783,-2.493,-2.509,-2.517,-2.5358,-2.5545,-2.5611,-2.5812,-2.5972,-2.6052,-2.6253,-2.64,-2.64,-2.64,-2.64,-2.64,-2.64,-2.6465,-2.6702,-2.6623,-2.6623,-2.6623,-2.6623,-2.6544,-2.6386,-2.64,-2.64,-2.64,-2.64,-2.64,-2.64,-2.64,-2.64,-2.64,-2.64,-2.64,-2.64,-2.64,-2.652,-2.6747,-2.6827,-2.7094,-2.7535,-2.7268,-2.6894,-2.6961,-2.6707,-2.64,-4.1172,-4.1172,-4.1172,-4.1172,-4.1172,-4.1172,-4.1172,-4.1113,-4.0703,-4.0508,-4.0351,-3.9531,-3.8906,-3.8496,-3.8066,-3.7832,-3.7754,-3.7383,-3.7402,-3.7754,-3.7851,-3.8105,-3.8476,-3.8555,-3.8574,-3.8574,-3.8574,-3.8535,-3.8398,-3.7715,-3.7129,-3.6719,-3.6621,-3.6641,-3.6641,-3.6269,-3.6035,-3.6035,-3.6035,-3.6035,-3.6035,-3.6035,-3.5996,-3.5976,-3.5586,-3.5351,-3.4984,-3.4145,-3.3001,-3.1932,-3.1078,-3.0273,-2.9158,-2.8458,-2.7739,-2.6999,-2.6254,-2.5524,-2.4796,-2.4556,-2.4543,-2.4609,-2.4823,-2.4983,-2.5037,-2.5264,-2.5317,-2.513,-2.5077,-2.5224,-2.5438,-2.5518,-2.5665,-2.5892,-2.5959,-2.613,-2.6279,-2.6373,-2.64,-2.64,-2.64,-2.64,-2.64,-2.6465,-2.6781,-2.7476,-2.7555,-2.7555,-2.7555,-2.7254,-2.686,-2.6544,-2.64,-2.64,-2.64,-2.64,-2.64,-2.64,-2.64,-2.64,-2.64,-2.64,-2.64,-2.64,-2.64,-2.6493,-2.668,-2.6841,-2.7001,-2.7348,-2.7175,-2.6774,-2.656,-2.644,-2.64,-4.1172,-4.1172,-4.1172,-4.1172,-4.1172,-4.1172,-4.1172,-4.1152,-4.0976,-4.0762,-4.0469,-3.9883,-3.9375,-3.8926,-3.8496,-3.8301,-3.8301,-3.8125,-3.8144,-3.8301,-3.8301,-3.8398,-3.8555,-3.8574,-3.8574,-3.8574,-3.8574,-3.8437,-3.8125,-3.7578,-3.7324,-3.7363,-3.7168,-3.7168,-3.7344,-3.6992,-3.6777,-3.6758,-3.6543,-3.6406,-3.6367,-3.5947,-3.5606,-3.5314,-3.4975,-3.4524,-3.4026,-3.2924,-3.1776,-3.0666,-2.9696,-2.8806,-2.7909,-2.7345,-2.6807,-2.6228,-2.5492,-2.4943,-2.4623,-2.4636,-2.4636,-2.4636,-2.4917,-2.5077,-2.509,-2.5344,-2.5518,-2.5598,-2.5598,-2.5651,-2.5772,-2.5932,-2.6079,-2.6186,-2.6213,-2.6266,-2.6373,-2.64,-2.64,-2.64,-2.64,-2.6386,-2.6465,-2.686,-2.7555,-2.8388,-2.87,-2.8715,-2.8622,-2.8168,-2.7398,-2.6623,-2.64,-2.64,-2.64,-2.64,-2.64,-2.64,-2.64,-2.64,-2.64,-2.64,-2.64,-2.64,-2.64,-2.6426,-2.652,-2.6587,-2.6707,-2.7014,-2.7094,-2.6734,-2.6453,-2.64,-2.64,-4.1172,-4.1172,-4.1172,-4.1172,-4.1172,-4.1172,-4.1172,-4.1172,-4.1172,-4.0996,-4.0664,-4.0137,-3.9726,-3.9336,-3.8828,-3.8574,-3.8574,-3.8574,-3.8574,-3.8574,-3.8574,-3.8574,-3.8574,-3.8574,-3.8574,-3.8574,-3.8574,-3.8359,-3.7949,-3.7773,-3.7754,-3.7851,-3.7617,-3.7617,-3.7851,-3.7519,-3.7305,-3.7246,-3.6825,-3.6452,-3.6255,-3.5268,-3.4627,-3.4402,-3.4006,-3.3357,-3.2343,-3.1358,-3.0352,-2.9167,-2.8138,-2.7226,-2.6408,-2.6056,-2.5753,-2.5492,-2.5024,-2.4756,-2.4756,-2.4823,-2.4877,-2.489,-2.5157,-2.5317,-2.5371,-2.5585,-2.5838,-2.6026,-2.6066,-2.6066,-2.6106,-2.6266,-2.6386,-2.64,-2.64,-2.64,-2.64,-2.64,-2.64,-2.64,-2.64,-2.6465,-2.6781,-2.7633,-2.8778,-2.9851,-3.016,-3.0021,-2.9696,-2.9012,-2.7947,-2.6623,-2.6386,-2.64,-2.64,-2.64,-2.64,-2.64,-2.64,-2.64,-2.64,-2.64,-2.64,-2.64,-2.64,-2.64,-2.644,-2.644,-2.6426,-2.6627,-2.6734,-2.6707,-2.6453,-2.64,-2.64,-4.1172,-4.1172,-4.1172,-4.1172,-4.1172,-4.1172,-4.1172,-4.1172,-4.1172,-4.1152,-4.1016,-4.0273,-3.9883,-3.9766,-3.8984,-3.8574,-3.8574,-3.8574,-3.8574,-3.8574,-3.8574,-3.8574,-3.8574,-3.8574,-3.8574,-3.8574,-3.8574,-3.8359,-3.7988,-3.8301,-3.832,-3.7949,-3.791,-3.791,-3.791,-3.7578,-3.7324,-3.7344,-3.6623,-3.6004,-3.5369,-3.3827,-3.2981,-3.3033,-3.2561,-3.1614,-3.0489,-2.9654,-2.8813,-2.7662,-2.6924,-2.6008,-2.4951,-2.473,-2.4743,-2.4697,-2.4965,-2.505,-2.5077,-2.5277,-2.5424,-2.5478,-2.5678,-2.597,-2.5929,-2.6092,-2.6279,-2.636,-2.6333,-2.6346,-2.6333,-2.636,-2.64,-2.64,-2.64,-2.64,-2.64,-2.64,-2.64,-2.6386,-2.6465,-2.6847,-2.7555,-2.9027,-3.0408,-3.1469,-3.1868,-3.1638,-3.07,-2.9711,-2.8261,-2.6939,-2.64,-2.64,-2.64,-2.64,-2.64,-2.64,-2.64,-2.64,-2.64,-2.64,-2.6386,-2.6373,-2.6333,-2.6333,-2.6373,-2.6386,-2.6373,-2.6493,-2.6653,-2.66,-2.6426,-2.64,-2.64,-4.1172,-4.1172,-4.1172,-4.1172,-4.1172,-4.1172,-4.1172,-4.1172,-4.1172,-4.1172,-4.1074,-4.0547,-4.0156,-3.9863,-3.9258,-3.8828,-3.8594,-3.8574,-3.8574,-3.8574,-3.8574,-3.8574,-3.8574,-3.8574,-3.8574,-3.8574,-3.8574,-3.8496,-3.8379,-3.8516,-3.8496,-3.8379,-3.834,-3.834,-3.832,-3.8184,-3.8125,-3.7994,-3.7105,-3.607,-3.4973,-3.3211,-3.1632,-3.0203,-3.0232,-2.9806,-2.8932,-2.8156,-2.7505,-2.6779,-2.6078,-2.5299,-2.471,-2.4636,-2.4636,-2.4663,-2.4917,-2.5077,-2.5117,-2.5344,-2.5518,-2.5531,-2.5785,-2.6037,-2.6077,-2.6213,-2.64,-2.64,-2.64,-2.64,-2.64,-2.64,-2.64,-2.64,-2.64,-2.64,-2.64,-2.64,-2.64,-2.6465,-2.6781,-2.7555,-2.8735,-3.0238,-3.2004,-3.3717,-3.3827,-3.307,-3.1912,-3.0623,-2.8949,-2.7018,-2.64,-2.64,-2.64,-2.64,-2.64,-2.64,-2.64,-2.64,-2.64,-2.636,-2.6346,-2.6159,-2.6146,-2.6052,-2.6026,-2.6119,-2.6146,-2.6319,-2.648,-2.6493,-2.6413,-2.6333,-2.6346,-4.1172,-4.1172,-4.1172,-4.1172,-4.1172,-4.1172,-4.1172,-4.1172,-4.1172,-4.1172,-4.1094,-4.0703,-4.0351,-4.0019,-3.9473,-3.9062,-3.8769,-3.8652,-3.8574,-3.8574,-3.8574,-3.8574,-3.8574,-3.8574,-3.8574,-3.8574,-3.8574,-3.8574,-3.8574,-3.8574,-3.8574,-3.8574,-3.8574,-3.8574,-3.8574,-3.8501,-3.8355,-3.7986,-3.6821,-3.5413,-3.4077,-3.2074,-3.0118,-2.8342,-2.8042,-2.7758,-2.7174,-2.6501,-2.6078,-2.5786,-2.5286,-2.4857,-2.4636,-2.473,-2.4783,-2.4823,-2.5157,-2.5358,-2.5398,-2.5625,-2.5798,-2.5798,-2.5972,-2.6092,-2.6106,-2.6279,-2.6373,-2.64,-2.64,-2.64,-2.64,-2.64,-2.64,-2.64,-2.64,-2.64,-2.64,-2.64,-2.6491,-2.6789,-2.7622,-2.8651,-2.9778,-3.142,-3.3208,-3.5301,-3.5058,-3.4254,-3.2886,-3.1405,-2.9634,-2.7319,-2.6702,-2.6544,-2.6465,-2.64,-2.64,-2.64,-2.64,-2.64,-2.636,-2.6319,-2.6199,-2.6012,-2.5838,-2.5718,-2.5705,-2.5812,-2.5959,-2.6119,-2.6199,-2.6226,-2.6213,-2.6226,-2.6279,-4.1172,-4.1172,-4.1172,-4.1172,-4.1172,-4.1172,-4.1172,-4.1172,-4.1172,-4.1172,-4.1113,-4.0742,-4.0547,-4.0332,-3.9687,-3.9258,-3.916,-3.8828,-3.8613,-3.8574,-3.8574,-3.8574,-3.8574,-3.8574,-3.8574,-3.8574,-3.8574,-3.8574,-3.8574,-3.8574,-3.8574,-3.8574,-3.8574,-3.8574,-3.8574,-3.8228,-3.7789,-3.7014,-3.5448,-3.3848,-3.2425,-3.0312,-2.8597,-2.7283,-2.6396,-2.5793,-2.5329,-2.4945,-2.4784,-2.471,-2.471,-2.4636,-2.4676,-2.489,-2.5064,-2.513,-2.5598,-2.597,-2.5945,-2.6159,-2.6293,-2.6293,-2.636,-2.6346,-2.6333,-2.6373,-2.64,-2.64,-2.64,-2.64,-2.64,-2.64,-2.64,-2.64,-2.64,-2.64,-2.64,-2.6373,-2.6581,-2.7269,-2.8479,-2.976,-3.093,-3.2538,-3.4269,-3.5336,-3.5539,-3.4954,-3.3512,-3.2139,-3.0346,-2.8325,-2.7319,-2.7097,-2.6702,-2.64,-2.64,-2.64,-2.64,-2.6386,-2.6319,-2.6266,-2.6052,-2.5838,-2.5478,-2.5358,-2.5451,-2.5558,-2.5705,-2.5852,-2.5905,-2.6066,-2.6159,-2.6226,-2.6239,-4.1172,-4.1172,-4.1172,-4.1172,-4.1172,-4.1172,-4.1172,-4.1172,-4.1172,-4.1172,-4.1152,-4.1035,-4.082,-4.0527,-4.0215,-3.9941,-3.9648,-3.9219,-3.8867,-3.8633,-3.8574,-3.8574,-3.8574,-3.8574,-3.8574,-3.8574,-3.8574,-3.8574,-3.8574,-3.8574,-3.8574,-3.8574,-3.8574,-3.8574,-3.8501,-3.7916,-3.7162,-3.5979,-3.4474,-3.26,-3.0529,-2.9147,-2.7946,-2.6781,-2.6148,-2.5845,-2.5728,-2.501,-2.4649,-2.4649,-2.4636,-2.4636,-2.469,-2.4917,-2.5077,-2.5144,-2.5638,-2.6037,-2.6063,-2.6226,-2.64,-2.64,-2.64,-2.64,-2.64,-2.64,-2.64,-2.64,-2.64,-2.64,-2.64,-2.64,-2.6386,-2.6386,-2.64,-2.6465,-2.6517,-2.6748,-2.7269,-2.822,-2.9547,-3.1063,-3.2784,-3.4252,-3.5256,-3.6289,-3.6228,-3.5445,-3.4444,-3.3048,-3.1365,-2.9311,-2.8501,-2.7633,-2.7175,-2.686,-2.6702,-2.6623,-2.6465,-2.6386,-2.6319,-2.6092,-2.5879,-2.5571,-2.5224,-2.5104,-2.5197,-2.5331,-2.5478,-2.5692,-2.5865,-2.6026,-2.6199,-2.6239,-2.6226,-4.1172,-4.1172,-4.1172,-4.1172,-4.1172,-4.1172,-4.1172,-4.1172,-4.1172,-4.1172,-4.1172,-4.1172,-4.1035,-4.0762,-4.0605,-4.0391,-4.0078,-3.9492,-3.9062,-3.8809,-3.8613,-3.8574,-3.8574,-3.8574,-3.8574,-3.8574,-3.8574,-3.8574,-3.8574,-3.8428,-3.8302,-3.8209,-3.8136,-3.8136,-3.8063,-3.7329,-3.6331,-3.5011,-3.3356,-3.1392,-2.9386,-2.8246,-2.7319,-2.6504,-2.6106,-2.605,-2.5983,-2.5304,-2.4957,-2.4957,-2.4957,-2.4957,-2.4983,-2.5251,-2.5411,-2.5491,-2.5825,-2.6197,-2.6146,-2.6293,-2.64,-2.64,-2.64,-2.64,-2.64,-2.64,-2.64,-2.64,-2.64,-2.64,-2.64,-2.64,-2.6544,-2.686,-2.686,-2.686,-2.6898,-2.729,-2.7947,-2.9003,-3.0357,-3.2108,-3.375,-3.4938,-3.5819,-3.6538,-3.6393,-3.5897,-3.5066,-3.3986,-3.2292,-3.0851,-2.9836,-2.8793,-2.7633,-2.7254,-2.7097,-2.686,-2.6623,-2.6465,-2.636,-2.5959,-2.5651,-2.5237,-2.4877,-2.4836,-2.493,-2.509,-2.5237,-2.5518,-2.5798,-2.5892,-2.5999,-2.6119,-2.6159,-4.1172,-4.1172,-4.1172,-4.1172,-4.1172,-4.1172,-4.1172,-4.1172,-4.1172,-4.1172,-4.1172,-4.1172,-4.1152,-4.1055,-4.0781,-4.0605,-4.043,-3.9766,-3.9414,-3.9219,-3.8906,-3.8652,-3.8594,-3.8574,-3.8574,-3.8574,-3.8574,-3.8574,-3.8574,-3.8155,-3.7715,-3.731,-3.7255,-3.7255,-3.7089,-3.6497,-3.5438,-3.4035,-3.2233,-3.0253,-2.8246,-2.7476,-2.6874,-2.6373,-2.6146,-2.609,-2.5972,-2.5718,-2.5531,-2.5504,-2.5438,-2.5424,-2.5531,-2.5785,-2.5892,-2.5892,-2.6213,-2.6333,-2.6373,-2.6373,-2.64,-2.64,-2.64,-2.64,-2.64,-2.64,-2.6465,-2.6465,-2.6544,-2.6544,-2.6623,-2.6702,-2.7083,-2.779,-2.7947,-2.779,-2.7762,-2.8207,-2.8851,-2.9704,-3.1046,-3.2648,-3.4256,-3.5154,-3.5635,-3.5967,-3.61,-3.587,-3.5759,-3.4939,-3.3826,-3.2701,-3.1666,-3.0623,-2.9696,-2.8949,-2.8715,-2.7855,-2.7305,-2.6847,-2.6385,-2.5892,-2.5411,-2.4983,-2.4642,-2.4676,-2.4756,-2.4983,-2.5197,-2.5478,-2.5651,-2.5692,-2.5865,-2.6079,-2.6186,-4.1172,-4.1172,-4.1172,-4.1172,-4.1172,-4.1172,-4.1172,-4.1172,-4.1172,-4.1172,-4.1172,-4.1172,-4.1172,-4.1152,-4.1055,-4.0996,-4.082,-4.041,-4.0176,-4.0039,-3.9355,-3.8867,-3.8633,-3.8574,-3.8574,-3.8574,-3.8574,-3.8574,-3.8574,-3.7936,-3.7089,-3.6053,-3.6108,-3.6108,-3.5923,-3.5288,-3.4221,-3.2961,-3.1315,-2.9245,-2.7319,-2.6781,-2.6544,-2.6386,-2.6306,-2.6266,-2.6279,-2.6199,-2.5932,-2.5545,-2.5518,-2.5518,-2.5571,-2.5812,-2.6063,-2.6104,-2.6226,-2.64,-2.64,-2.64,-2.64,-2.64,-2.64,-2.64,-2.64,-2.64,-2.6544,-2.6781,-2.7097,-2.7476,-2.7726,-2.8118,-2.9027,-3.0253,-2.9944,-2.9168,-2.9001,-2.9214,-2.9722,-3.072,-3.1858,-3.3389,-3.4966,-3.5752,-3.5977,-3.6045,-3.6113,-3.6228,-3.6265,-3.607,-3.5048,-3.4705,-3.3868,-3.2809,-3.1912,-3.1085,-3.016,-2.9075,-2.8218,-2.7305,-2.6656,-2.5879,-2.5331,-2.4735,-2.4629,-2.4649,-2.485,-2.5064,-2.5291,-2.5504,-2.5705,-2.5879,-2.6106,-2.6319,-2.6306,-4.1172,-4.1172,-4.1172,-4.1172,-4.1172,-4.1172,-4.1172,-4.1172,-4.1172,-4.1172,-4.1172,-4.1172,-4.1172,-4.1172,-4.1172,-4.1172,-4.1113,-4.0723,-4.0508,-4.0351,-3.959,-3.8984,-3.8672,-3.8574,-3.8574,-3.8574,-3.8574,-3.8574,-3.8428,-3.777,-3.6775,-3.5792,-3.5438,-3.5288,-3.4954,-3.407,-3.3087,-3.1912,-3.0392,-2.8481,-2.6623,-2.64,-2.6386,-2.64,-2.64,-2.64,-2.6386,-2.6386,-2.6213,-2.5959,-2.5892,-2.5879,-2.5892,-2.6039,-2.6132,-2.6224,-2.6306,-2.64,-2.64,-2.64,-2.64,-2.64,-2.64,-2.64,-2.64,-2.6386,-2.6544,-2.7175,-2.7855,-2.8637,-2.9338,-3.0253,-3.1622,-3.2961,-3.2614,-3.1622,-3.0685,-3.0795,-3.1225,-3.2047,-3.3014,-3.4364,-3.6266,-3.6474,-3.6543,-3.6582,-3.6641,-3.6825,-3.6996,-3.6745,-3.6402,-3.587,-3.5553,-3.4619,-3.3583,-3.2766,-3.1162,-3.0083,-2.8076,-2.7305,-2.6612,-2.5798,-2.5344,-2.4903,-2.4743,-2.473,-2.4997,-2.5211,-2.5358,-2.5585,-2.5916,-2.6144,-2.6266,-2.64,-2.64,-4.1172,-4.1172,-4.1172,-4.1172,-4.1172,-4.1172,-4.1172,-4.1172,-4.1172,-4.1172,-4.1172,-4.1172,-4.1172,-4.1172,-4.1172,-4.1172,-4.1152,-4.082,-4.0547,-4.0234,-3.9668,-3.9082,-3.8613,-3.8574,-3.8574,-3.8574,-3.8574,-3.8574,-3.8428,-3.777,-3.6793,-3.5736,-3.5139,-3.4614,-3.3995,-3.3028,-3.2021,-3.0993,-2.9634,-2.8104,-2.6702,-2.64,-2.64,-2.64,-2.64,-2.64,-2.64,-2.64,-2.636,-2.6386,-2.64,-2.6333,-2.6346,-2.6373,-2.6373,-2.636,-2.6373,-2.64,-2.64,-2.64,-2.64,-2.64,-2.64,-2.6479,-2.6479,-2.6623,-2.7004,-2.8026,-2.8997,-3.016,-3.1315,-3.2826,-3.4111,-3.5085,-3.5494,-3.4597,-3.3171,-3.2768,-3.3072,-3.3317,-3.4395,-3.5672,-3.672,-3.7305,-3.7266,-3.6953,-3.7012,-3.709,-3.7266,-3.7119,-3.6833,-3.6595,-3.6311,-3.6183,-3.5253,-3.4389,-3.2538,-3.0777,-2.8011,-2.6621,-2.627,-2.5651,-2.5331,-2.5064,-2.5024,-2.509,-2.5264,-2.5424,-2.5545,-2.5758,-2.6079,-2.6213,-2.6319,-2.6373,-2.64,-4.1172,-4.1172,-4.1172,-4.1172,-4.1172,-4.1172,-4.1172,-4.1172,-4.1172,-4.1172,-4.1172,-4.1172,-4.1172,-4.1172,-4.1172,-4.1172,-4.1172,-4.1016,-4.0723,-4.0019,-3.9902,-3.9277,-3.873,-3.8574,-3.8574,-3.8574,-3.8574,-3.8574,-3.8428,-3.777,-3.6775,-3.5682,-3.4914,-3.3995,-3.2977,-3.2097,-3.1024,-2.9913,-2.8856,-2.779,-2.6702,-2.64,-2.64,-2.64,-2.64,-2.64,-2.64,-2.64,-2.64,-2.64,-2.64,-2.64,-2.64,-2.64,-2.64,-2.64,-2.64,-2.64,-2.64,-2.64,-2.64,-2.64,-2.6386,-2.6544,-2.686,-2.724,-2.8011,-2.9323,-3.0623,-3.2157,-3.3844,-3.4989,-3.5867,-3.646,-3.6775,-3.6645,-3.5812,-3.5023,-3.4605,-3.4682,-3.5121,-3.5939,-3.7112,-3.7402,-3.7383,-3.7324,-3.7344,-3.7324,-3.7332,-3.7358,-3.7339,-3.7158,-3.7276,-3.7085,-3.6608,-3.5196,-3.2766,-3.0777,-2.8168,-2.6439,-2.6012,-2.5798,-2.5585,-2.5464,-2.5384,-2.5464,-2.5531,-2.5692,-2.5825,-2.6066,-2.6266,-2.6319,-2.636,-2.6386,-2.64,-4.1172,-4.1172,-4.1172,-4.1172,-4.1172,-4.1172,-4.1172,-4.1172,-4.1172,-4.1172,-4.1172,-4.1172,-4.1172,-4.1172,-4.1172,-4.1172,-4.1172,-4.1152,-4.0723,-4.0059,-3.9844,-3.9394,-3.873,-3.8574,-3.8574,-3.8574,-3.8574,-3.8574,-3.8428,-3.799,-3.7162,-3.6071,-3.5214,-3.3995,-3.2446,-3.1408,-3.0191,-2.9012,-2.809,-2.7254,-2.6544,-2.64,-2.64,-2.64,-2.64,-2.64,-2.64,-2.64,-2.64,-2.64,-2.64,-2.64,-2.64,-2.64,-2.64,-2.64,-2.6547,-2.6493,-2.6453,-2.6507,-2.6533,-2.6479,-2.6386,-2.6781,-2.7319,-2.7933,-2.9231,-3.0854,-3.2598,-3.4411,-3.6405,-3.6941,-3.7457,-3.7604,-3.7824,-3.7843,-3.7566,-3.6735,-3.6091,-3.6036,-3.6382,-3.7105,-3.7623,-3.7721,-3.7851,-3.7969,-3.7988,-3.7949,-3.7773,-3.7799,-3.7819,-3.785,-3.8059,-3.7996,-3.7693,-3.5849,-3.2766,-3.0546,-2.809,-2.6833,-2.6213,-2.6092,-2.5985,-2.5812,-2.5598,-2.5665,-2.5745,-2.5996,-2.6066,-2.6226,-2.6346,-2.6373,-2.64,-2.64,-2.64,-4.1172,-4.1172,-4.1172,-4.1172,-4.1172,-4.1172,-4.1172,-4.1172,-4.1172,-4.1172,-4.1172,-4.1172,-4.1172,-4.1172,-4.1172,-4.1172,-4.1172,-4.1133,-4.0723,-4.0137,-4.0059,-3.9531,-3.8926,-3.873,-3.8672,-3.8594,-3.8574,-3.8574,-3.8501,-3.8209,-3.777,-3.6922,-3.5829,-3.4296,-3.2614,-3.0947,-2.9416,-2.8026,-2.7333,-2.686,-2.6465,-2.64,-2.64,-2.64,-2.648,-2.6493,-2.652,-2.6547,-2.656,-2.652,-2.652,-2.652,-2.6507,-2.64,-2.6465,-2.6479,-2.6812,-2.6958,-2.7007,-2.7037,-2.7144,-2.6781,-2.686,-2.7319,-2.8168,-2.9323,-3.07,-3.2522,-3.4429,-3.6442,-3.8355,-3.8355,-3.8428,-3.8501,-3.8574,-3.8574,-3.8501,-3.799,-3.7419,-3.7253,-3.7432,-3.7958,-3.8234,-3.8359,-3.8496,-3.8574,-3.8574,-3.8476,-3.8262,-3.8105,-3.8066,-3.8027,-3.8105,-3.7667,-3.7234,-3.5533,-3.2598,-3.0392,-2.8011,-2.7069,-2.6346,-2.6279,-2.6146,-2.5932,-2.5798,-2.5879,-2.5959,-2.6079,-2.6226,-2.636,-2.64,-2.64,-2.64,-2.64,-2.64,-4.1172,-4.1172,-4.1172,-4.1172,-4.1172,-4.1172,-4.1172,-4.1172,-4.1172,-4.1172,-4.1172,-4.1172,-4.1172,-4.1172,-4.1172,-4.1172,-4.1172,-4.1133,-4.0879,-4.043,-4.0332,-3.9883,-3.918,-3.9004,-3.8887,-3.8652,-3.8574,-3.8574,-3.8574,-3.8501,-3.8282,-3.7916,-3.6645,-3.4822,-3.2674,-3.0854,-2.9027,-2.724,-2.6702,-2.6465,-2.6465,-2.64,-2.64,-2.6413,-2.6547,-2.6653,-2.676,-2.6961,-2.7121,-2.7121,-2.7121,-2.7162,-2.7001,-2.668,-2.6664,-2.7007,-2.7471,-2.7815,-2.8004,-2.8396,-2.8489,-2.851,-2.8573,-2.9105,-3.0036,-3.1085,-3.2538,-3.4371,-3.6182,-3.7843,-3.8501,-3.8574,-3.8574,-3.8574,-3.8574,-3.8574,-3.8574,-3.8428,-3.8282,-3.8117,-3.8355,-3.8501,-3.8574,-3.8574,-3.8574,-3.8574,-3.8574,-3.8457,-3.8223,-3.8105,-3.8027,-3.7988,-3.7949,-3.728,-3.6571,-3.4469,-3.2048,-3.0315,-2.8325,-2.686,-2.6373,-2.6386,-2.6266,-2.6092,-2.6092,-2.6186,-2.6253,-2.6266,-2.6306,-2.6386,-2.64,-2.64,-2.64,-2.64,-2.64,-4.1172,-4.1172,-4.1172,-4.1172,-4.1172,-4.1172,-4.1172,-4.1172,-4.1172,-4.1172,-4.1172,-4.1172,-4.1172,-4.1172,-4.1172,-4.1172,-4.1172,-4.1172,-4.0918,-4.0605,-4.0469,-4.0059,-3.9316,-3.9219,-3.8945,-3.8691,-3.8574,-3.8594,-3.8574,-3.8574,-3.8574,-3.8209,-3.6941,-3.4971,-3.2674,-3.0931,-2.8778,-2.6925,-2.64,-2.64,-2.64,-2.64,-2.64,-2.644,-2.652,-2.6587,-2.6627,-2.6707,-2.68,-2.6787,-2.68,-2.6974,-2.7067,-2.7185,-2.7244,-2.7699,-2.8431,-2.9149,-2.9676,-3.0298,-3.0903,-3.0793,-3.0777,-3.1239,-3.2157,-3.3281,-3.4579,-3.6405,-3.7383,-3.8355,-3.8574,-3.8574,-3.8574,-3.8574,-3.8574,-3.8574,-3.8574,-3.8574,-3.8574,-3.8574,-3.8574,-3.8574,-3.8574,-3.8574,-3.8574,-3.8574,-3.8574,-3.8437,-3.8242,-3.8203,-3.8164,-3.8184,-3.8111,-3.7337,-3.6294,-3.4093,-3.1972,-3.016,-2.8325,-2.6939,-2.64,-2.64,-2.64,-2.6319,-2.6373,-2.64,-2.6386,-2.6333,-2.6373,-2.64,-2.64,-2.64,-2.64,-2.64,-2.64,-4.0918,-4.0918,-4.0918,-4.0957,-4.1035,-4.1055,-4.1094,-4.1152,-4.1172,-4.1172,-4.1172,-4.1172,-4.1172,-4.1172,-4.1172,-4.1172,-4.1172,-4.1172,-4.0976,-4.0762,-4.0684,-4.0215,-3.9687,-3.9394,-3.9277,-3.8828,-3.8769,-3.8652,-3.8594,-3.8574,-3.8574,-3.8136,-3.7015,-3.4971,-3.2674,-3.0931,-2.8778,-2.7162,-2.64,-2.64,-2.64,-2.644,-2.644,-2.644,-2.6493,-2.6587,-2.656,-2.6667,-2.6694,-2.6694,-2.6733,-2.6853,-2.7289,-2.7815,-2.8375,-2.9022,-3.0072,-3.0683,-3.157,-3.2413,-3.3042,-3.2859,-3.2977,-3.3432,-3.4203,-3.5253,-3.659,-3.819,-3.8574,-3.8574,-3.8574,-3.8574,-3.8574,-3.8574,-3.8574,-3.8574,-3.8574,-3.8574,-3.8574,-3.8574,-3.8574,-3.8574,-3.8574,-3.8574,-3.8574,-3.8574,-3.8574,-3.8574,-3.8418,-3.8457,-3.8437,-3.8476,-3.8278,-3.7601,-3.6164,-3.4035,-3.2065,-3.0315,-2.8325,-2.6623,-2.64,-2.64,-2.6386,-2.6465,-2.64,-2.64,-2.64,-2.64,-2.64,-2.64,-2.64,-2.64,-2.64,-2.64,-2.64,-4.0039,-4.0059,-4.0059,-4.0254,-4.0586,-4.0625,-4.084,-4.1133,-4.1152,-4.1172,-4.1172,-4.1172,-4.1172,-4.1172,-4.1172,-4.1172,-4.1172,-4.1152,-4.1113,-4.1016,-4.0996,-4.0742,-4.0371,-4.0371,-3.9726,-3.916,-3.9082,-3.8906,-3.8652,-3.8574,-3.8574,-3.8282,-3.6941,-3.4971,-3.2581,-3.0931,-2.8871,-2.686,-2.6386,-2.6465,-2.6506,-2.6759,-2.6733,-2.6733,-2.6907,-2.7149,-2.704,-2.7135,-2.7284,-2.727,-2.7243,-2.7608,-2.8365,-2.937,-3.0627,-3.1371,-3.1927,-3.2255,-3.3348,-3.4383,-3.4945,-3.4839,-3.4822,-3.5139,-3.5885,-3.6793,-3.7824,-3.8428,-3.8574,-3.8574,-3.8574,-3.8574,-3.8574,-3.8574,-3.8574,-3.8574,-3.8574,-3.8574,-3.8574,-3.8574,-3.8574,-3.8574,-3.8574,-3.8574,-3.8574,-3.8574,-3.8574,-3.8574,-3.8574,-3.8574,-3.8574,-3.8574,-3.8428,-3.7843,-3.6479,-3.4278,-3.2522,-3.0639,-2.8715,-2.6781,-2.6781,-2.686,-2.6465,-2.6465,-2.6465,-2.6386,-2.64,-2.64,-2.64,-2.64,-2.64,-2.64,-2.64,-2.64,-2.64,-3.9434,-3.9883,-3.9883,-4.0,-4.0195,-4.041,-4.0625,-4.082,-4.1074,-4.1172,-4.1172,-4.1172,-4.1172,-4.1172,-4.1172,-4.1172,-4.1172,-4.1172,-4.1172,-4.1172,-4.1133,-4.0937,-4.0586,-4.0469,-4.0059,-3.9473,-3.916,-3.8945,-3.8711,-3.8613,-3.8574,-3.8355,-3.6941,-3.4971,-3.2581,-3.0931,-2.8778,-2.724,-2.686,-2.7175,-2.7532,-2.7759,-2.7931,-2.7805,-2.8086,-2.8114,-2.8086,-2.81,-2.8185,-2.8199,-2.8199,-2.8741,-2.9676,-3.073,-3.1975,-3.3737,-3.4476,-3.4971,-3.5569,-3.6405,-3.6793,-3.7015,-3.7015,-3.7236,-3.7623,-3.799,-3.8375,-3.8574,-3.8574,-3.8574,-3.8574,-3.8574,-3.8574,-3.8574,-3.8574,-3.8574,-3.8574,-3.8574,-3.8574,-3.8574,-3.8574,-3.8574,-3.8574,-3.8574,-3.8574,-3.8574,-3.8574,-3.8574,-3.8574,-3.8574,-3.8574,-3.8574,-3.8428,-3.8063,-3.6553,-3.4747,-3.3297,-3.1469,-2.9726,-2.8182,-2.7647,-2.7412,-2.7175,-2.6702,-2.6544,-2.6465,-2.6386,-2.64,-2.64,-2.64,-2.64,-2.64,-2.64,-2.64,-2.64,-3.8965,-3.9551,-3.957,-3.9629,-3.9746,-4.0059,-4.0332,-4.0566,-4.0859,-4.1055,-4.1152,-4.1172,-4.1172,-4.1172,-4.1172,-4.1172,-4.1172,-4.1172,-4.1172,-4.1172,-4.1133,-4.0996,-4.082,-4.0644,-4.0312,-3.9531,-3.9668,-3.9414,-3.9101,-3.8926,-3.8887,-3.8521,-3.7015,-3.4896,-3.2733,-3.0839,-2.8934,-2.7083,-2.7698,-2.8325,-2.89,-2.9661,-2.9879,-2.9849,-2.9864,-2.9864,-2.9804,-2.9819,-2.9819,-2.9912,-2.9927,-3.05,-3.1488,-3.2485,-3.3685,-3.5249,-3.6256,-3.6996,-3.7291,-3.7824,-3.8501,-3.8574,-3.8574,-3.8282,-3.8428,-3.8574,-3.8574,-3.8574,-3.8574,-3.8574,-3.8574,-3.8574,-3.8574,-3.8574,-3.8574,-3.8574,-3.8574,-3.8574,-3.8574,-3.8574,-3.8574,-3.8574,-3.8574,-3.8574,-3.8574,-3.8574,-3.8574,-3.8574,-3.8574,-3.8574,-3.8574,-3.8574,-3.8501,-3.8209,-3.7015,-3.542,-3.3919,-3.2538,-3.0793,-2.9649,-2.9182,-2.8481,-2.8011,-2.7541,-2.686,-2.6544,-2.6386,-2.64,-2.64,-2.64,-2.64,-2.64,-2.64,-2.64,-2.64,-3.8613,-3.8652,-3.8691,-3.8926,-3.9258,-3.9277,-3.9766,-4.0391,-4.0547,-4.082,-4.1152,-4.1172,-4.1172,-4.1172,-4.1172,-4.1172,-4.1172,-4.1172,-4.1172,-4.1172,-4.1152,-4.1133,-4.1035,-4.0976,-4.082,-4.0391,-4.0234,-4.0039,-3.9844,-3.957,-3.9219,-3.8491,-3.7165,-3.4932,-3.2766,-3.0886,-2.9416,-2.8246,-2.8856,-2.9851,-3.0778,-3.1644,-3.2309,-3.2255,-3.2386,-3.2544,-3.231,-3.2141,-3.2141,-3.2141,-3.2065,-3.2446,-3.3373,-3.4336,-3.5476,-3.6479,-3.753,-3.8136,-3.8355,-3.8355,-3.8501,-3.8574,-3.8574,-3.8574,-3.8574,-3.8574,-3.8574,-3.8574,-3.8574,-3.8574,-3.8574,-3.8574,-3.8574,-3.8574,-3.8574,-3.8574,-3.8574,-3.8574,-3.8574,-3.8574,-3.8574,-3.8574,-3.8574,-3.8574,-3.8574,-3.8574,-3.8574,-3.8574,-3.8574,-3.8574,-3.8574,-3.8574,-3.8574,-3.8209,-3.7476,-3.6182,-3.4954,-3.3902,-3.2538,-3.1545,-3.0854,-3.0083,-2.87,-2.7855,-2.7097,-2.6702,-2.64,-2.64,-2.64,-2.64,-2.64,-2.64,-2.64,-2.64,-2.64,-3.8574,-3.8574,-3.8574,-3.8672,-3.8828,-3.9082,-3.9394,-3.9785,-4.0293,-4.0762,-4.1172,-4.1172,-4.1172,-4.1172,-4.1172,-4.1172,-4.1172,-4.1172,-4.1172,-4.1172,-4.1172,-4.1172,-4.1172,-4.1113,-4.0937,-4.0625,-4.0508,-4.0312,-3.9902,-3.998,-3.9785,-3.8947,-3.7802,-3.5815,-3.3678,-3.118,-2.9726,-2.9944,-3.0485,-3.1469,-3.2664,-3.3551,-3.4132,-3.4046,-3.4064,-3.415,-3.4012,-3.407,-3.407,-3.407,-3.4053,-3.4597,-3.5121,-3.5923,-3.6682,-3.7383,-3.8282,-3.8501,-3.8574,-3.8574,-3.8574,-3.8574,-3.8574,-3.8594,-3.8633,-3.8613,-3.8594,-3.8574,-3.8633,-3.8691,-3.8613,-3.8594,-3.8574,-3.8574,-3.8613,-3.8672,-3.8711,-3.8769,-3.8769,-3.8848,-3.8691,-3.8574,-3.8574,-3.8574,-3.8574,-3.8574,-3.8574,-3.8574,-3.8574,-3.8574,-3.8574,-3.8574,-3.8574,-3.8501,-3.777,-3.6922,-3.6015,-3.5103,-3.4128,-3.2994,-3.1852,-3.0253,-2.9027,-2.8104,-2.724,-2.6702,-2.64,-2.64,-2.64,-2.64,-2.64,-2.64,-2.64,-2.64,-2.6426,-3.8574,-3.8574,-3.8574,-3.8574,-3.8613,-3.8887,-3.9082,-3.9316,-4.0,-4.0664,-4.1152,-4.1172,-4.1172,-4.1172,-4.1172,-4.1172,-4.1172,-4.1172,-4.1172,-4.1172,-4.1172,-4.1172,-4.1172,-4.1133,-4.1035,-4.0762,-4.0703,-4.0547,-4.0391,-4.0293,-4.0293,-3.9852,-3.8823,-3.7023,-3.4654,-3.1969,-3.0562,-3.1561,-3.2538,-3.3524,-3.4689,-3.5605,-3.6145,-3.6108,-3.6145,-3.6145,-3.6182,-3.6182,-3.6182,-3.6182,-3.6182,-3.6423,-3.6793,-3.7236,-3.7604,-3.8063,-3.8375,-3.8574,-3.8574,-3.8574,-3.8574,-3.8574,-3.875,-3.8769,-3.8769,-3.8867,-3.9101,-3.9062,-3.9023,-3.8945,-3.8945,-3.9062,-3.9101,-3.9199,-3.918,-3.9199,-3.918,-3.9219,-3.916,-3.9141,-3.9043,-3.9062,-3.9082,-3.9101,-3.8848,-3.8769,-3.8574,-3.8574,-3.8574,-3.8574,-3.8574,-3.8574,-3.8574,-3.8428,-3.8155,-3.7642,-3.7126,-3.6238,-3.5196,-3.3751,-3.2462,-3.0824,-2.929,-2.8246,-2.7398,-2.6702,-2.64,-2.6413,-2.64,-2.64,-2.64,-2.64,-2.64,-2.64,-2.648,-3.8574,-3.8574,-3.8574,-3.8574,-3.8574,-3.8594,-3.8809,-3.918,-3.9726,-4.041,-4.1113,-4.1172,-4.1172,-4.1172,-4.1172,-4.1172,-4.1172,-4.1172,-4.1172,-4.1172,-4.1172,-4.1172,-4.1172,-4.1152,-4.1133,-4.1152,-4.1074,-4.1016,-4.1016,-4.0918,-4.0976,-4.0802,-3.9894,-3.8423,-3.6106,-3.3712,-3.2918,-3.3676,-3.4857,-3.5734,-3.6627,-3.7552,-3.792,-3.7916,-3.7916,-3.7824,-3.7751,-3.7843,-3.7751,-3.7824,-3.7843,-3.799,-3.8136,-3.8209,-3.8428,-3.8501,-3.8574,-3.8594,-3.8594,-3.8594,-3.8672,-3.8652,-3.8828,-3.9062,-3.9238,-3.9473,-3.9687,-3.9531,-3.9648,-3.9726,-3.9785,-3.9785,-3.9707,-3.9668,-3.9629,-3.9609,-3.957,-3.9551,-3.9492,-3.9453,-3.9668,-3.9824,-3.9824,-3.9707,-3.9297,-3.9023,-3.8691,-3.8633,-3.873,-3.8828,-3.8926,-3.8945,-3.8965,-3.8891,-3.8837,-3.8696,-3.8159,-3.7347,-3.6218,-3.4784,-3.3109,-3.1369,-2.9922,-2.8631,-2.7787,-2.7225,-2.6799,-2.644,-2.6547,-2.6653,-2.644,-2.64,-2.64,-2.6453,-2.656,-3.8574,-3.8574,-3.8574,-3.8574,-3.8574,-3.8574,-3.8672,-3.8906,-3.957,-4.0371,-4.1035,-4.1172,-4.1172,-4.1172,-4.1172,-4.1172,-4.1172,-4.1172,-4.1172,-4.1172,-4.1172,-4.1172,-4.1172,-4.1172,-4.1172,-4.1172,-4.1172,-4.1172,-4.1133,-4.1172,-4.1172,-4.0977,-4.053,-3.9146,-3.7301,-3.5693,-3.5445,-3.621,-3.6877,-3.7483,-3.7987,-3.8596,-3.8848,-3.8613,-3.8594,-3.8574,-3.8574,-3.8574,-3.8574,-3.8574,-3.8574,-3.8574,-3.8574,-3.8574,-3.8574,-3.8574,-3.8594,-3.873,-3.8984,-3.918,-3.9141,-3.8984,-3.9023,-3.9277,-3.9258,-3.9629,-3.9824,-3.9941,-4.0,-4.0,-3.9863,-3.9883,-3.9844,-3.9824,-3.9805,-3.9805,-3.9785,-3.9805,-3.9785,-3.9766,-3.9883,-3.998,-4.0,-4.0156,-3.9863,-3.9726,-3.9492,-3.9355,-3.9414,-3.9492,-3.957,-3.957,-3.957,-3.9512,-3.9414,-3.9238,-3.8903,-3.8102,-3.6991,-3.5764,-3.4014,-3.2216,-3.093,-2.9809,-2.8753,-2.7767,-2.7269,-2.6988,-2.7015,-2.6947,-2.672,-2.6533,-2.6533,-2.6613,-2.672,-3.8574,-3.8574,-3.8574,-3.8574,-3.8574,-3.8574,-3.8633,-3.8906,-3.959,-4.0312,-4.0859,-4.1074,-4.1172,-4.1172,-4.1172,-4.1172,-4.1172,-4.1172,-4.1172,-4.1172,-4.1172,-4.1172,-4.1172,-4.1172,-4.1172,-4.1172,-4.1172,-4.1172,-4.1172,-4.1172,-4.1172,-4.1094,-4.0879,-4.0106,-3.8838,-3.8152,-3.772,-3.8235,-3.8595,-3.8765,-3.9005,-3.9129,-3.9062,-3.8848,-3.8691,-3.8574,-3.8574,-3.8574,-3.8574,-3.8574,-3.8594,-3.8594,-3.8594,-3.8594,-3.8574,-3.8574,-3.875,-3.8906,-3.9199,-3.959,-3.9473,-3.9219,-3.9434,-3.9629,-3.9726,-4.0176,-4.0332,-4.0391,-4.0293,-4.0312,-4.0312,-4.0293,-4.0273,-4.0273,-4.0273,-4.0293,-4.0312,-4.0351,-4.0332,-4.0293,-4.0254,-4.0273,-4.0273,-4.0391,-4.041,-4.0391,-4.0332,-4.0195,-4.0019,-4.0,-4.0019,-4.0,-3.9941,-3.9824,-3.9766,-3.9726,-3.9275,-3.8785,-3.7696,-3.6499,-3.5098,-3.3397,-3.2206,-3.0961,-3.0005,-2.8996,-2.7947,-2.7486,-2.7486,-2.7324,-2.6987,-2.6827,-2.6707,-2.6814,-2.6961,-3.8574,-3.8574,-3.8574,-3.8574,-3.8574,-3.8574,-3.8809,-3.9199,-3.9648,-4.0117,-4.0566,-4.0976,-4.1113,-4.1152,-4.1172,-4.1172,-4.1172,-4.1172,-4.1172,-4.1172,-4.1172,-4.1172,-4.1172,-4.1172,-4.1172,-4.1172,-4.1172,-4.1172,-4.1172,-4.1172,-4.1172,-4.1172,-4.1094,-4.0744,-4.0376,-4.0009,-3.9624,-3.9719,-3.9796,-3.9794,-3.9827,-3.9515,-3.9355,-3.9101,-3.8867,-3.8672,-3.8613,-3.8574,-3.8574,-3.8594,-3.8613,-3.8613,-3.8613,-3.8613,-3.8613,-3.875,-3.9062,-3.9297,-3.9473,-3.9902,-4.0059,-3.998,-4.0254,-4.0469,-4.0527,-4.0664,-4.082,-4.0898,-4.0879,-4.0996,-4.1055,-4.1016,-4.0976,-4.0996,-4.0996,-4.0996,-4.1016,-4.1016,-4.1016,-4.0976,-4.0957,-4.0937,-4.0898,-4.0937,-4.0781,-4.082,-4.0742,-4.0605,-4.043,-4.0273,-4.0273,-4.0254,-4.0195,-4.0078,-4.0059,-4.0195,-3.993,-3.951,-3.8282,-3.7102,-3.5817,-3.494,-3.3988,-3.2922,-3.1468,-3.0328,-2.9151,-2.84,-2.7894,-2.7812,-2.8152,-2.7405,-2.7392,-2.7243,-2.7308,-3.8574,-3.8574,-3.8574,-3.8574,-3.8574,-3.8574,-3.8809,-3.9199,-3.9375,-3.9805,-4.0547,-4.0644,-4.0898,-4.1152,-4.1172,-4.1172,-4.1172,-4.1172,-4.1172,-4.1172,-4.1172,-4.1172,-4.1172,-4.1172,-4.1172,-4.1172,-4.1172,-4.1172,-4.1172,-4.1172,-4.1172,-4.1172,-4.1172,-4.1172,-4.1074,-4.0918,-4.0801,-4.0723,-4.0684,-4.0547,-4.0391,-4.0137,-3.9785,-3.9394,-3.9101,-3.8887,-3.8691,-3.8594,-3.8594,-3.8613,-3.8867,-3.9004,-3.9023,-3.9316,-3.9531,-3.957,-3.9883,-4.0156,-4.0215,-4.0547,-4.0742,-4.0703,-4.0879,-4.0723,-4.0762,-4.0898,-4.1152,-4.1172,-4.1172,-4.1172,-4.1172,-4.1172,-4.1172,-4.1172,-4.1172,-4.1172,-4.1172,-4.1172,-4.1172,-4.1172,-4.1172,-4.1172,-4.1172,-4.1133,-4.1016,-4.1113,-4.1094,-4.0937,-4.082,-4.0664,-4.0586,-4.0566,-4.0586,-4.0508,-4.0684,-4.082,-4.0511,-4.0027,-3.9003,-3.8305,-3.7795,-3.6948,-3.605,-3.4865,-3.3451,-3.1849,-3.0321,-2.9821,-2.9895,-2.9821,-3.0015,-2.8853,-2.803,-2.8098,-2.8071,-3.8574,-3.8574,-3.8574,-3.8574,-3.8574,-3.8574,-3.873,-3.8965,-3.9121,-3.9551,-4.0019,-4.0371,-4.0684,-4.0898,-4.1074,-4.1172,-4.1172,-4.1172,-4.1172,-4.1172,-4.1172,-4.1172,-4.1172,-4.1172,-4.1172,-4.1172,-4.1172,-4.1172,-4.1172,-4.1172,-4.1172,-4.1172,-4.1172,-4.1172,-4.1133,-4.1113,-4.1133,-4.1113,-4.1094,-4.1016,-4.084,-4.0625,-4.0156,-3.9766,-3.9492,-3.9082,-3.8848,-3.875,-3.8672,-3.8769,-3.9141,-3.9316,-3.9394,-3.9746,-3.9863,-3.9902,-4.0195,-4.0391,-4.0488,-4.0859,-4.1094,-4.1172,-4.1172,-4.1035,-4.0976,-4.1055,-4.1133,-4.1172,-4.1172,-4.1172,-4.1172,-4.1172,-4.1172,-4.1172,-4.1172,-4.1172,-4.1172,-4.1172,-4.1172,-4.1172,-4.1172,-4.1172,-4.1172,-4.1172,-4.1172,-4.1172,-4.1172,-4.1113,-4.1055,-4.0996,-4.0937,-4.0937,-4.0996,-4.1035,-4.1172,-4.1172,-4.0938,-4.0705,-4.0375,-3.981,-3.949,-3.904,-3.8104,-3.6852,-3.5362,-3.3936,-3.2433,-3.2381,-3.2386,-3.2263,-3.2278,-3.1772,-3.0788,-2.9889,-2.9684,-3.8574,-3.8574,-3.8574,-3.8574,-3.8574,-3.8574,-3.8594,-3.8613,-3.8965,-3.918,-3.9394,-4.0098,-4.0488,-4.0664,-4.0976,-4.1152,-4.1172,-4.1172,-4.1172,-4.1172,-4.1172,-4.1172,-4.1172,-4.1172,-4.1172,-4.1172,-4.1172,-4.1172,-4.1172,-4.1172,-4.1172,-4.1172,-4.1172,-4.1172,-4.1172,-4.1172,-4.1172,-4.1172,-4.1172,-4.1113,-4.1035,-4.082,-4.0527,-4.0351,-3.9844,-3.9316,-3.918,-3.9023,-3.8848,-3.9121,-3.9375,-3.9609,-3.9922,-4.0098,-4.0098,-4.0176,-4.0508,-4.0605,-4.0742,-4.0996,-4.1113,-4.1172,-4.1172,-4.1133,-4.1113,-4.1113,-4.1152,-4.1172,-4.1172,-4.1172,-4.1172,-4.1172,-4.1172,-4.1172,-4.1172,-4.1172,-4.1172,-4.1172,-4.1172,-4.1172,-4.1172,-4.1172,-4.1172,-4.1172,-4.1172,-4.1172,-4.1172,-4.1172,-4.1172,-4.1172,-4.1172,-4.1172,-4.1172,-4.1172,-4.1172,-4.1172,-4.1172,-4.1074,-4.1016,-4.0938,-4.0451,-4.0275,-4.0275,-3.8585,-3.6895,-3.6075,-3.5073,-3.4847,-3.4603,-3.4603,-3.4603,-3.4749,-3.3985,-3.2663,-3.1827,-3.8574,-3.8574,-3.8574,-3.8574,-3.8574,-3.8574,-3.8574,-3.8594,-3.8672,-3.8906,-3.9258,-3.9766,-4.0234,-4.0508,-4.0918,-4.1133,-4.1172,-4.1172,-4.1172,-4.1172,-4.1172,-4.1172,-4.1172,-4.1172,-4.1172,-4.1172,-4.1172,-4.1172,-4.1172,-4.1172,-4.1172,-4.1172,-4.1172,-4.1172,-4.1172,-4.1172,-4.1172,-4.1172,-4.1172,-4.1172,-4.1133,-4.1074,-4.0898,-4.0625,-4.0156,-3.9941,-3.9785,-3.9648,-3.9609,-3.9746,-4.0078,-4.043,-4.082,-4.084,-4.0859,-4.0898,-4.0898,-4.0937,-4.0976,-4.1074,-4.1152,-4.1172,-4.1172,-4.1172,-4.1172,-4.1172,-4.1172,-4.1172,-4.1172,-4.1172,-4.1172,-4.1172,-4.1172,-4.1172,-4.1172,-4.1172,-4.1172,-4.1172,-4.1172,-4.1172,-4.1172,-4.1172,-4.1172,-4.1172,-4.1172,-4.1172,-4.1172,-4.1172,-4.1172,-4.1172,-4.1172,-4.1172,-4.1172,-4.1172,-4.1172,-4.1172,-4.1172,-4.1172,-4.1094,-4.1172,-4.1172,-4.0919,-4.0509,-3.955,-3.8268,-3.7693,-3.7197,-3.6797,-3.6717,-3.6877,-3.686,-3.694,-3.686,-3.588,-3.4975,-3.8574,-3.8574,-3.8574,-3.8574,-3.8574,-3.8574,-3.8574,-3.8574,-3.8574,-3.8711,-3.8965,-3.9394,-3.9824,-4.0254,-4.0684,-4.1055,-4.1113,-4.1172,-4.1172,-4.1172,-4.1172,-4.1172,-4.1172,-4.1172,-4.1172,-4.1172,-4.1172,-4.1172,-4.1172,-4.1172,-4.1172,-4.1172,-4.1172,-4.1172,-4.1172,-4.1172,-4.1172,-4.1172,-4.1172,-4.1172,-4.1172,-4.1133,-4.1094,-4.084,-4.0605,-4.041,-4.0215,-4.0059,-4.0019,-4.0215,-4.0566,-4.0801,-4.1055,-4.1094,-4.1133,-4.1133,-4.1133,-4.1172,-4.1172,-4.1172,-4.1172,-4.1172,-4.1172,-4.1172,-4.1172,-4.1172,-4.1172,-4.1172,-4.1172,-4.1172,-4.1172,-4.1172,-4.1172,-4.1172,-4.1172,-4.1172,-4.1172,-4.1172,-4.1172,-4.1172,-4.1172,-4.1172,-4.1172,-4.1172,-4.1172,-4.1172,-4.1172,-4.1172,-4.1172,-4.1172,-4.1172,-4.1172,-4.1172,-4.1172,-4.1172,-4.1172,-4.1172,-4.1172,-4.1172,-4.1172,-4.1172,-4.0997,-4.0607,-4.004,-3.9726,-3.9726,-3.9235,-3.8664,-3.8901,-3.9216,-3.9138,-3.9138,-3.8901,-3.8743,-3.8091,-3.8516,-3.8574,-3.8574,-3.8574,-3.8574,-3.8574,-3.8574,-3.8574,-3.8574,-3.8574,-3.8633,-3.8984,-3.9394,-3.9824,-4.0332,-4.0723,-4.0996,-4.1113,-4.1152,-4.1172,-4.1172,-4.1172,-4.1172,-4.1172,-4.1172,-4.1172,-4.1172,-4.1172,-4.1172,-4.1172,-4.1172,-4.1172,-4.1172,-4.1172,-4.1172,-4.1172,-4.1172,-4.1172,-4.1172,-4.1172,-4.1172,-4.1172,-4.1152,-4.1016,-4.084,-4.0625,-4.0469,-4.0391,-4.0332,-4.0527,-4.0898,-4.1055,-4.1133,-4.1172,-4.1172,-4.1172,-4.1172,-4.1172,-4.1172,-4.1172,-4.1172,-4.1172,-4.1172,-4.1172,-4.1172,-4.1172,-4.1172,-4.1172,-4.1172,-4.1172,-4.1172,-4.1172,-4.1172,-4.1172,-4.1172,-4.1172,-4.1172,-4.1172,-4.1172,-4.1172,-4.1172,-4.1172,-4.1172,-4.1172,-4.1172,-4.1172,-4.1172,-4.1172,-4.1172,-4.1172,-4.1172,-4.1172,-4.1172,-4.1172,-4.1172,-4.1172,-4.1172,-4.1172,-4.1172,-4.1172,-4.1172,-4.1094,-4.0997,-4.1094,-4.0841,-4.0607,-4.0685,-4.0353,-4.0763,-4.0841,-4.0607,-4.0197,-4.0275,-4.0197,-4.0607,-3.8262,-3.8574,-3.8574,-3.8574,-3.8574,-3.8574,-3.8574,-3.8574,-3.8574,-3.8574,-3.8594,-3.8652,-3.8945,-3.9394,-4.0195,-4.0625,-4.0762,-4.0996,-4.1152,-4.1172,-4.1172,-4.1172,-4.1172,-4.1172,-4.1172,-4.1172,-4.1172,-4.1172,-4.1172,-4.1172,-4.1172,-4.1172,-4.1172,-4.1172,-4.1172,-4.1172,-4.1172,-4.1172,-4.1172,-4.1172,-4.1172,-4.1172,-4.1172,-4.1113,-4.1094,-4.1055,-4.1016,-4.0976,-4.0996,-4.1055,-4.1094,-4.1152,-4.1172,-4.1172,-4.1172,-4.1172,-4.1172,-4.1172,-4.1172,-4.1172,-4.1172,-4.1172,-4.1172,-4.1172,-4.1172,-4.1172,-4.1172,-4.1172,-4.1172,-4.1172,-4.1172,-4.1172,-4.1172,-4.1172,-4.1172,-4.1172,-4.1172,-4.1172,-4.1172,-4.1172,-4.1172,-4.1172,-4.1172,-4.1172,-4.1172,-4.1172,-4.1172,-4.1172,-4.1172,-4.1172,-4.1172,-4.1172,-4.1172,-4.1172,-4.1172,-4.1172,-4.1172,-4.1172,-4.1172,-4.1172,-4.1172,-4.1172,-4.1172,-4.1172,-4.1172,-4.1016,-4.1172,-4.1172,-4.1172,-4.1094,-4.1094,-4.1016,-4.1172,-4.1172,-4.1172]},{"header":{"parameterUnit":"m.s-1","parameterCategory":1,"la1":31.0,"la2":29.5877,"lo1":-88.7671,"lo2":-86.6584,"dy":0.0162,"dx":0.0185,"nx":115,"ny":88,"refTime":"2026-03-30T12:00:00:Z","depth":0,"parameterNumber":3,"parameterNumberName":"V-component_of_WINDS"},"data":[0.0,0.0,0.0,0.0,0.0,0.0,0.0,0.0,0.0,0.0,0.0,0.0,0.0,0.0,0.0,0.0,0.0,0.0,0.0,0.0,0.0,0.0,0.0,0.0,0.0,0.0,0.0,0.0,0.0,0.0,0.0,0.0,0.0,0.0,0.0,0.0,0.0,0.0,0.0,0.0,0.0,0.0,0.0,0.0,0.0,0.0,0.0,0.0,0.0,0.0,0.0,0.0,0.0,0.0,0.0,0.0,0.0,0.0,0.0,0.0,0.0,0.0,0.0,0.0,0.0,0.0,0.0,0.0,0.0,0.0,0.0,0.0,0.0,0.0,0.0,0.0,0.0,0.0,0.0,0.0,0.0,0.0,0.0,0.0,0.0,0.0,0.0,0.0,0.0,0.0,0.0,0.0,0.0,0.0,0.0,0.0,0.0,0.0,0.0,0.0,0.0,0.0,0.0,0.0,0.0,0.0,0.0,0.0,0.0,0.0,0.0,0.0,0.0,0.0,0.0,0.0,0.0,0.0,0.0,0.0,0.0,0.0,0.0,0.0,0.0,0.0,0.0,0.0,0.0,0.0,0.0,0.0,0.0,0.0,0.0,0.0,0.0,0.0,0.0,0.0,0.0,0.0,0.0,0.0,0.0,0.0,0.0,0.0,0.0,0.0,0.0,0.0,0.0,0.0,0.0,0.0,0.0,0.0,0.0,0.0,0.0,0.0,0.0,0.0,0.0,0.0,0.0,0.0,0.0,0.0,0.0,0.0,0.0,0.0,0.0,0.0,0.0,0.0,0.0,0.0,0.0,0.0,0.0,0.0,0.0,0.0,0.0,0.0,0.0,0.0,0.0,0.0,0.0,0.0,0.0,0.0,0.0,0.0,0.0,0.0,0.0,0.0,0.0,0.0,0.0,0.0,0.0,0.0,0.0,0.0,0.0,0.0,0.0,0.0,0.0,0.0,0.0,0.0,0.0,0.0,0.0,0.0,0.0,0.0,0.0,0.0,0.0,0.0,0.0,0.0,0.0,0.0,0.0,0.0,0.0,0.0,0.0,0.0,0.0,0.0,0.0,0.0,0.0,0.0,0.0,0.0,0.0,0.0,0.0,0.0,0.0,0.0,0.0,0.0,0.0,0.0,0.0,0.0,0.0,0.0,0.0,0.0,0.0,0.0,0.0,0.0,0.0,0.0,0.0,0.0,0.0,0.0,0.0,0.0,0.0,0.0,0.0,0.0,0.0,0.0,0.0,0.0,0.0,0.0,0.0,0.0,0.0,0.0,0.0,0.0,0.0,0.0,0.0,0.0,0.0,0.0,0.0,0.0,0.0,0.0,0.0,0.0,0.0,0.0,0.0,0.0,0.0,0.0,0.0,0.0,0.0,0.0,0.0,0.0,0.0,0.0,0.0,0.0,0.0,0.0,0.0,0.0,0.0,0.0,0.0,0.0,0.0,0.0,0.0,0.0,0.0,0.0,0.0,0.0,0.0,0.0,0.0,0.0,0.0,0.0,0.0,0.0,0.0,0.0,0.0,0.0,0.0,0.0,0.0,0.0,0.0,0.0,0.0,0.0,0.0,0.0,0.0,0.0,0.0,0.0,0.0,0.0,0.0,0.0,0.0,0.0,0.0,0.0,0.0,0.0,0.0,0.0,0.0,0.0,0.0,0.0,0.0,0.0,0.0,0.0,0.0,0.0,0.0,0.0,0.0,0.0,0.0,0.0,0.0,0.0,0.0,0.0,0.0,0.0,0.0,0.0,0.0,0.0,0.0,0.0,0.0,0.0,0.0,0.0,0.0,0.0,0.0,0.0,0.0,0.0,0.0,0.0,0.0,0.0,0.0,0.0,0.0,0.0,0.0,0.0,0.0,0.0,0.0,0.0,0.0,0.0,0.0,0.0,0.0,0.0,0.0,0.0,0.0,0.0,0.0,0.0,0.0,0.0,0.0,0.0,0.0,0.0,0.0,0.0,0.0,0.0,0.0,0.0,0.0,0.0,0.0,0.0,0.0,0.0,0.0,0.0,0.0,0.0,0.0,0.0,0.0,0.0,0.0,0.0,0.0,0.0,0.0,0.0,0.0,0.0,0.0,0.0,0.0,0.0,0.0,0.0,0.0,0.0,0.0,0.0,0.0,0.0,0.0,0.0,0.0,0.0,0.0,0.0,0.0,0.0,0.0,0.0,0.0,0.0,0.0,0.0,0.0,0.0,0.0,0.0,0.0,0.0,0.0,0.0,0.0,0.0,0.0,0.0,0.0,0.0,0.0,0.0,0.0,0.0,0.0,0.0,0.0,0.0,0.0,0.0,0.0,0.0,0.0,0.0,0.0,0.0,0.0,0.0,0.0,0.0,0.0,0.0,0.0,0.0,0.0,0.0,0.0,0.0,0.0,0.0,0.0,0.0,0.0,0.0,0.0,0.0,0.0,0.0,0.0,0.0,0.0,0.0,0.0,0.0,0.0,0.0,0.0,0.0,0.0,0.0,0.0,0.0,0.0,0.0,0.0,0.0,0.0,0.0,0.0,0.0,0.0,0.0,0.0,0.0,0.0,0.0,0.0,0.0,0.0,0.0,0.0,0.0,0.0,0.0,0.0,0.0,0.0,0.0,0.0,0.0,0.0,0.0,0.0,0.0,0.0,0.0,0.0,0.0,0.0,0.0,0.0,0.0,0.0,0.0,0.0,0.0,0.0,0.0,0.0,0.0,0.0,0.0,0.0,0.0,0.0,0.0,0.0,0.0,0.0,0.0,0.0,0.0,0.0,0.0,0.0,0.0,0.0,0.0,0.0,0.0,0.0,0.0,0.0,0.0,0.0,0.0,0.0,0.0,0.0,0.0,0.0,0.0,0.0,0.0,0.0,0.0,0.0,0.0,0.0,0.0,0.0,0.0,0.0,0.0,0.0,0.0,0.0,0.0,0.0,0.0,0.0,0.0,0.0,0.0,0.0,0.0,0.0,0.0,0.0,0.0,0.0,0.0,0.0,0.0,0.0,0.0,0.0,0.0,0.0,0.0,0.0,0.0,0.0,0.0,0.0,0.0,0.0,0.0,0.0,0.0,0.0,0.0,0.0,0.0,0.0,0.0,0.0,0.0,0.0,0.0,0.0,0.0,0.0,0.0,0.0,0.0,0.0,0.0,0.0,0.0,0.0,0.0,0.0,0.0,0.0,0.0,0.0,0.0,0.0,0.0,0.0,0.0,0.0,0.0,0.0,0.0,0.0,0.0,0.0,0.0,0.0,0.0,0.0,0.0,0.0,0.0,0.0,0.0,0.0,0.0,0.0,0.0,0.0,0.0,0.0,0.0,0.0,0.0,0.0,0.0,0.0,0.0,0.0,0.0,0.0,0.0,0.0,0.0,0.0,0.0,0.0,0.0,0.0,0.0,0.0,0.0,0.0,0.0,0.0,0.0,0.0,0.0,0.0,0.0,0.0,0.0,0.0,0.0,0.0,0.0,0.0,0.0,0.0,0.0,0.0,0.0,0.0,0.0,0.0,0.0,0.0,0.0,0.0,0.0,0.0,0.0,0.0,0.0,0.0,0.0,0.0,0.0,0.0,0.0,0.0,0.0,0.0,0.0,0.0,0.0,0.0,0.0,0.0,0.0,0.0,0.0,0.0,0.0,0.0,0.0,0.0,0.0,0.0,0.0,0.0,0.0,0.0,0.0,0.0,0.0,0.0,0.0,0.0,0.0,0.0,0.0,0.0,0.0,0.0,0.0,0.0,0.0,0.0,0.0,0.0,0.0,0.0,0.0,0.0,0.0,0.0,0.0,0.0,0.0,0.0,0.0,0.0,0.0,0.0,0.0,0.0,0.0,0.0,0.0,0.0,0.0,0.0,0.0,0.0,0.0,0.0,0.0,0.0,0.0,0.0,0.0,0.0,0.0,0.0,0.0,0.0,0.0,0.0,0.0,0.0,0.0,0.0,0.0,0.0,0.0,0.0,0.0,0.0,0.0,0.0,0.0,0.0,0.0,0.0,0.0,0.0,0.0,0.0,0.0,0.0,0.0,0.0,0.0,0.0,0.0,0.0,0.0,0.0,0.0,0.0,0.0,0.0,0.0,0.0,0.0,0.0,0.0,0.0,0.0,0.0,0.0,0.0,0.0,0.0,0.0,0.0,0.0,0.0,0.0,0.0,0.0,0.0,0.0,0.0,0.0,0.0,0.0,0.0,0.0,0.0,0.0,0.0,0.0,0.0,0.0,0.0,0.0,0.0,0.0,0.0,0.0,0.0,0.0,0.0,0.0,0.0,0.0,0.0,0.0,0.0,0.0,2.5611,0.0,0.0,0.0,0.0,0.0,0.0,0.0,0.0,0.0,0.0,0.0,0.0,0.0,0.0,0.0,0.0,0.0,0.0,0.0,0.0,0.0,0.0,0.0,0.0,0.0,0.0,0.0,0.0,0.0,0.0,0.0,0.0,0.0,0.0,0.0,0.0,0.0,0.0,0.0,0.0,0.0,0.0,0.0,0.0,0.0,0.0,0.0,0.0,0.0,0.0,0.0,0.0,0.0,0.0,0.0,0.0,0.0,0.0,0.0,0.0,0.0,0.0,0.0,0.0,0.0,0.0,0.0,0.0,0.0,0.0,0.0,0.0,0.0,0.0,0.0,0.0,0.0,0.0,0.0,0.0,0.0,0.0,0.0,0.0,0.0,0.0,0.0,0.0,0.0,0.0,0.0,0.0,0.0,0.0,0.0,0.0,0.0,0.0,0.0,0.0,0.0,0.0,0.0,0.0,0.0,0.0,0.0,0.0,0.0,0.0,2.8172,2.8147,2.7344,2.6826,2.6515,0.0,0.0,0.0,0.0,0.0,0.0,0.0,0.0,0.0,0.0,0.0,0.0,0.0,0.0,0.0,0.0,0.0,0.0,0.0,0.0,0.0,0.0,0.0,0.0,0.0,0.0,0.0,0.0,0.0,0.0,0.0,0.0,0.0,0.0,0.0,0.0,0.0,0.0,0.0,0.0,0.0,0.0,0.0,0.0,0.0,0.0,0.0,0.0,0.0,0.0,0.0,0.0,0.0,0.0,0.0,0.0,0.0,0.0,0.0,0.0,0.0,0.0,0.0,0.0,0.0,0.0,0.0,0.0,0.0,0.0,0.0,0.0,0.0,0.0,0.0,0.0,0.0,0.0,0.0,0.0,0.0,0.0,0.0,0.0,0.0,0.0,0.0,0.0,0.0,0.0,0.0,0.0,0.0,0.0,0.0,0.0,0.0,0.0,0.0,0.0,0.0,0.0,0.0,0.0,0.0,0.0,0.0,0.0,0.0,0.0,0.0,0.0,2.7871,2.7203,2.6927,0.0,0.0,0.0,0.0,0.0,0.0,0.0,0.0,0.0,0.0,0.0,0.0,0.0,0.0,0.0,0.0,0.0,0.0,0.0,0.0,0.0,0.0,0.0,0.0,0.0,0.0,0.0,0.0,0.0,0.0,0.0,0.0,0.0,0.0,0.0,0.0,0.0,0.0,0.0,0.0,0.0,0.0,0.0,0.0,0.0,0.0,0.0,0.0,0.0,0.0,0.0,0.0,0.0,0.0,0.0,0.0,0.0,0.0,0.0,0.0,0.0,0.0,0.0,0.0,0.0,0.0,0.0,0.0,0.0,0.0,0.0,0.0,0.0,0.0,0.0,0.0,0.0,0.0,0.0,0.0,0.0,0.0,0.0,0.0,0.0,0.0,0.0,0.0,0.0,0.0,0.0,0.0,0.0,0.0,0.0,0.0,0.0,0.0,0.0,0.0,0.0,0.0,0.0,0.0,0.0,0.0,0.0,0.0,0.0,0.0,2.8888,2.8888,2.7871,0.0,2.5812,0.0,0.0,0.0,0.0,0.0,0.0,0.0,0.0,0.0,0.0,0.0,0.0,0.0,0.0,0.0,0.0,0.0,0.0,0.0,0.0,0.0,0.0,0.0,0.0,0.0,0.0,0.0,0.0,0.0,0.0,0.0,0.0,0.0,0.0,0.0,0.0,0.0,0.0,0.0,0.0,0.0,0.0,0.0,0.0,0.0,0.0,0.0,0.0,0.0,0.0,0.0,0.0,0.0,0.0,0.0,0.0,0.0,0.0,0.0,0.0,0.0,0.0,0.0,0.0,0.0,0.0,0.0,0.0,0.0,0.0,0.0,0.0,0.0,0.0,0.0,0.0,0.0,0.0,0.0,0.0,0.0,0.0,0.0,0.0,0.0,0.0,0.0,0.0,0.0,0.0,0.0,0.0,0.0,0.0,0.0,0.0,0.0,0.0,0.0,0.0,0.0,0.0,0.0,0.0,0.0,0.0,0.0,0.0,0.0,0.0,2.9453,2.9453,2.8047,2.6766,0.0,0.0,0.0,0.0,0.0,0.0,0.0,0.0,0.0,0.0,0.0,0.0,0.0,0.0,0.0,0.0,0.0,0.0,0.0,0.0,0.0,0.0,0.0,0.0,0.0,0.0,0.0,0.0,0.0,0.0,0.0,0.0,0.0,0.0,0.0,0.0,0.0,0.0,0.0,0.0,0.0,0.0,0.0,0.0,0.0,0.0,0.0,0.0,0.0,0.0,0.0,0.0,0.0,0.0,0.0,0.0,0.0,0.0,0.0,0.0,0.0,0.0,0.0,0.0,0.0,0.0,0.0,0.0,0.0,0.0,0.0,0.0,0.0,0.0,0.0,0.0,0.0,0.0,0.0,0.0,0.0,0.0,0.0,0.0,0.0,0.0,0.0,0.0,0.0,0.0,0.0,0.0,0.0,0.0,0.0,0.0,0.0,0.0,0.0,0.0,0.0,0.0,0.0,0.0,0.0,0.0,0.0,0.0,0.0,0.0,2.9783,2.9745,2.9555,2.817,2.679,2.5666,0.0,0.0,0.0,0.0,0.0,0.0,0.0,0.0,0.0,0.0,0.0,0.0,0.0,0.0,0.0,0.0,0.0,0.0,0.0,0.0,0.0,0.0,0.0,0.0,0.0,0.0,0.0,0.0,0.0,0.0,0.0,0.0,0.0,0.0,0.0,0.0,0.0,0.0,0.0,0.0,0.0,0.0,0.0,0.0,0.0,0.0,0.0,0.0,0.0,0.0,0.0,0.0,0.0,0.0,0.0,0.0,0.0,0.0,0.0,0.0,0.0,0.0,0.0,0.0,0.0,0.0,0.0,0.0,0.0,0.0,0.0,0.0,0.0,0.0,0.0,0.0,0.0,0.0,0.0,0.0,0.0,0.0,0.0,0.0,0.0,0.0,0.0,0.0,0.0,0.0,0.0,0.0,0.0,0.0,0.0,0.0,0.0,0.0,0.0,0.0,0.0,0.0,0.0,0.0,0.0,0.0,0.0,0.0,2.9497,2.9696,2.9621,2.9229,2.8108,2.6895,0.0,0.0,0.0,0.0,0.0,0.0,0.0,0.0,0.0,0.0,0.0,0.0,0.0,0.0,0.0,0.0,0.0,0.0,0.0,0.0,0.0,0.0,0.0,0.0,0.0,0.0,0.0,0.0,0.0,0.0,0.0,0.0,0.0,0.0,0.0,0.0,0.0,0.0,0.0,0.0,0.0,0.0,0.0,0.0,0.0,0.0,0.0,0.0,0.0,0.0,0.0,0.0,0.0,0.0,0.0,0.0,0.0,0.0,0.0,0.0,0.0,0.0,0.0,0.0,0.0,0.0,0.0,0.0,0.0,0.0,0.0,0.0,0.0,0.0,0.0,0.0,0.0,0.0,0.0,0.0,0.0,0.0,0.0,0.0,0.0,0.0,0.0,0.0,0.0,0.0,0.0,0.0,0.0,0.0,0.0,0.0,0.0,0.0,0.0,0.0,0.0,0.0,0.0,0.0,0.0,0.0,0.0,0.0,0.0,2.9448,3.0015,2.9847,2.8978,2.8228,2.7131,0.0,0.0,0.0,0.0,0.0,0.0,0.0,0.0,0.0,0.0,0.0,0.0,0.0,0.0,0.0,0.0,0.0,0.0,0.0,0.0,0.0,0.0,0.0,0.0,0.0,0.0,0.0,0.0,0.0,0.0,0.0,0.0,0.0,0.0,0.0,0.0,0.0,0.0,0.0,0.0,0.0,0.0,0.0,0.0,0.0,0.0,0.0,0.0,0.0,0.0,0.0,0.0,0.0,0.0,0.0,0.0,0.0,0.0,0.0,0.0,0.0,0.0,0.0,0.0,0.0,0.0,0.0,0.0,0.0,0.0,0.0,0.0,0.0,0.0,0.0,0.0,0.0,0.0,0.0,0.0,0.0,0.0,0.0,0.0,0.0,0.0,0.0,0.0,0.0,0.0,0.0,0.0,0.0,0.0,0.0,0.0,0.0,0.0,0.0,0.0,0.0,0.0,0.0,0.0,0.0,0.0,0.0,0.0,0.0,3.0042,0.0,3.106,2.9835,2.9059,2.7963,0.0,0.0,0.0,0.0,0.0,0.0,0.0,0.0,0.0,0.0,0.0,0.0,0.0,0.0,0.0,0.0,0.0,0.0,0.0,0.0,0.0,0.0,0.0,0.0,0.0,0.0,0.0,0.0,0.0,0.0,0.0,0.0,0.0,0.0,0.0,0.0,0.0,0.0,0.0,0.0,0.0,0.0,0.0,0.0,0.0,0.0,0.0,0.0,0.0,0.0,0.0,0.0,0.0,0.0,0.0,0.0,0.0,0.0,0.0,0.0,0.0,0.0,0.0,0.0,0.0,0.0,0.0,0.0,0.0,0.0,0.0,0.0,0.0,0.0,0.0,0.0,0.0,0.0,0.0,0.0,0.0,0.0,0.0,0.0,0.0,0.0,0.0,0.0,0.0,0.0,0.0,0.0,0.0,0.0,0.0,0.0,0.0,0.0,0.0,0.0,0.0,0.0,0.0,0.0,0.0,0.0,0.0,0.0,2.9427,3.1359,3.2976,3.3144,3.194,3.0742,2.9392,0.0,0.0,0.0,0.0,0.0,0.0,0.0,0.0,0.0,0.0,0.0,0.0,0.0,0.0,0.0,0.0,0.0,0.0,0.0,0.0,0.0,0.0,0.0,0.0,0.0,0.0,0.0,0.0,0.0,0.0,0.0,0.0,0.0,0.0,0.0,0.0,0.0,0.0,0.0,0.0,0.0,0.0,0.0,0.0,0.0,0.0,0.0,0.0,0.0,0.0,0.0,0.0,0.0,0.0,0.0,0.0,0.0,0.0,0.0,0.0,0.0,0.0,0.0,0.0,0.0,0.0,0.0,0.0,0.0,0.0,0.0,0.0,0.0,0.0,0.0,0.0,0.0,0.0,0.0,0.0,0.0,0.0,0.0,0.0,0.0,0.0,0.0,0.0,0.0,0.0,0.0,0.0,0.0,0.0,0.0,0.0,0.0,0.0,0.0,0.0,0.0,0.0,0.0,0.0,0.0,0.0,0.0,0.0,0.0,3.2388,3.4094,3.4348,3.305,3.2667,3.1485,0.0,0.0,0.0,0.0,0.0,0.0,0.0,0.0,0.0,0.0,0.0,0.0,0.0,0.0,0.0,0.0,0.0,0.0,0.0,0.0,0.0,0.0,0.0,0.0,0.0,0.0,0.0,0.0,0.0,0.0,0.0,0.0,0.0,0.0,0.0,0.0,0.0,0.0,0.0,0.0,0.0,0.0,0.0,0.0,0.0,0.0,0.0,0.0,0.0,0.0,0.0,0.0,0.0,0.0,0.0,0.0,0.0,0.0,0.0,0.0,0.0,0.0,0.0,0.0,0.0,0.0,0.0,0.0,0.0,0.0,0.0,0.0,0.0,0.0,0.0,0.0,0.0,0.0,0.0,0.0,0.0,0.0,0.0,0.0,0.0,0.0,0.0,0.0,0.0,0.0,0.0,0.0,0.0,0.0,0.0,0.0,0.0,0.0,0.0,0.0,0.0,0.0,0.0,0.0,0.0,0.0,0.0,0.0,0.0,3.5684,3.676,3.6567,3.5011,3.4741,3.3571,3.1368,0.0,0.0,0.0,0.0,0.0,0.0,0.0,0.0,0.0,0.0,0.0,0.0,0.0,0.0,0.0,0.0,0.0,0.0,0.0,0.0,0.0,0.0,0.0,0.0,0.0,0.0,0.0,0.0,0.0,0.0,0.0,0.0,0.0,0.0,0.0,0.0,0.0,0.0,0.0,0.0,0.0,0.0,0.0,0.0,0.0,0.0,0.0,0.0,0.0,0.0,0.0,0.0,0.0,0.0,0.0,0.0,0.0,0.0,0.0,0.0,0.0,0.0,0.0,0.0,0.0,0.0,0.0,0.0,0.0,0.0,0.0,0.0,0.0,0.0,0.0,0.0,0.0,0.0,0.0,0.0,0.0,0.0,0.0,0.0,0.0,0.0,0.0,0.0,0.0,0.0,0.0,0.0,0.0,0.0,0.0,0.0,0.0,0.0,0.0,0.0,0.0,0.0,0.0,0.0,0.0,0.0,0.0,0.0,4.0546,4.0756,3.9858,3.7823,3.7135,3.5756,0.0,0.0,0.0,0.0,0.0,0.0,0.0,0.0,0.0,0.0,0.0,0.0,0.0,0.0,0.0,0.0,0.0,0.0,0.0,0.0,0.0,0.0,0.0,0.0,0.0,0.0,0.0,0.0,0.0,0.0,0.0,0.0,0.0,0.0,0.0,0.0,0.0,0.0,0.0,0.0,0.0,0.0,0.0,0.0,0.0,0.0,0.0,0.0,0.0,0.0,0.0,0.0,0.0,0.0,0.0,0.0,0.0,0.0,0.0,0.0,0.0,0.0,0.0,0.0,0.0,0.0,0.0,0.0,0.0,0.0,0.0,0.0,0.0,0.0,0.0,0.0,0.0,0.0,0.0,0.0,0.0,0.0,0.0,0.0,0.0,0.0,0.0,0.0,0.0,0.0,0.0,0.0,0.0,0.0,0.0,0.0,0.0,0.0,0.0,0.0,0.0,0.0,0.0,0.0,0.0,0.0,0.0,0.0,0.0,4.2512,4.4945,4.4796,4.1855,4.0696,3.8931,0.0,0.0,0.0,0.0,0.0,0.0,0.0,0.0,0.0,0.0,0.0,0.0,0.0,0.0,0.0,0.0,0.0,0.0,0.0,0.0,0.0,0.0,0.0,0.0,0.0,0.0,0.0,0.0,0.0,0.0,0.0,0.0,0.0,0.0,0.0,0.0,0.0,0.0,0.0,0.0,0.0,0.0,0.0,0.0,0.0,0.0,0.0,0.0,0.0,0.0,0.0,0.0,0.0,0.0,0.0,0.0,0.0,0.0,0.0,0.0,0.0,0.0,0.0,0.0,0.0,0.0,0.0,0.0,0.0,0.0,0.0,0.0,0.0,0.0,0.0,0.0,0.0,0.0,0.0,0.0,0.0,0.0,0.0,0.0,0.0,0.0,0.0,0.0,0.0,0.0,0.0,0.0,0.0,0.0,0.0,0.0,0.0,0.0,0.0,0.0,0.0,0.0,0.0,0.0,0.0,0.0,0.0,0.0,4.2312,4.4515,4.7505,4.8057,4.5873,4.3748,4.1384,0.0,0.0,0.0,0.0,0.0,0.0,0.0,0.0,0.0,0.0,0.0,0.0,0.0,0.0,0.0,0.0,0.0,0.0,0.0,0.0,0.0,0.0,0.0,0.0,0.0,0.0,0.0,0.0,0.0,0.0,0.0,0.0,0.0,0.0,0.0,0.0,0.0,0.0,0.0,0.0,0.0,0.0,0.0,0.0,0.0,0.0,0.0,0.0,0.0,0.0,0.0,0.0,0.0,0.0,0.0,0.0,0.0,0.0,0.0,0.0,0.0,0.0,0.0,0.0,0.0,0.0,0.0,0.0,0.0,0.0,0.0,0.0,0.0,0.0,0.0,0.0,0.0,0.0,0.0,0.0,0.0,0.0,0.0,0.0,0.0,0.0,0.0,0.0,0.0,0.0,0.0,0.0,0.0,0.0,0.0,0.0,0.0,0.0,0.0,0.0,0.0,0.0,0.0,0.0,0.0,0.0,0.0,0.0,4.3958,4.6548,4.9089,5.0122,4.9449,4.6262,4.3299,0.0,0.0,0.0,0.0,0.0,0.0,0.0,0.0,0.0,0.0,0.0,0.0,0.0,0.0,0.0,0.0,0.0,0.0,0.0,0.0,0.0,0.0,0.0,0.0,0.0,0.0,0.0,0.0,0.0,0.0,0.0,0.0,0.0,0.0,0.0,0.0,0.0,0.0,0.0,0.0,0.0,0.0,0.0,0.0,0.0,0.0,0.0,0.0,0.0,0.0,0.0,0.0,0.0,0.0,0.0,0.0,0.0,0.0,0.0,0.0,0.0,0.0,0.0,0.0,0.0,0.0,0.0,0.0,0.0,0.0,0.0,0.0,0.0,0.0,0.0,0.0,0.0,0.0,0.0,0.0,0.0,0.0,0.0,0.0,0.0,0.0,0.0,0.0,0.0,0.0,0.0,0.0,0.0,0.0,0.0,0.0,0.0,0.0,0.0,0.0,0.0,0.0,0.0,0.0,0.0,0.0,0.0,0.0,4.5963,4.8596,5.069,5.1468,5.081,4.7608,4.4646,0.0,0.0,0.0,0.0,0.0,0.0,0.0,0.0,0.0,0.0,0.0,0.0,0.0,0.0,0.0,0.0,0.0,0.0,0.0,0.0,0.0,0.0,0.0,0.0,0.0,0.0,0.0,0.0,0.0,0.0,0.0,0.0,0.0,0.0,0.0,0.0,0.0,0.0,0.0,0.0,0.0,0.0,0.0,0.0,0.0,0.0,0.0,0.0,3.7015,0.0,0.0,0.0,0.0,0.0,0.0,0.0,0.0,0.0,0.0,0.0,0.0,0.0,0.0,0.0,0.0,0.0,0.0,0.0,0.0,0.0,0.0,0.0,0.0,0.0,0.0,0.0,0.0,0.0,0.0,0.0,0.0,0.0,0.0,0.0,0.0,0.0,0.0,0.0,0.0,0.0,0.0,0.0,0.0,0.0,0.0,0.0,0.0,0.0,0.0,0.0,0.0,0.0,0.0,0.0,0.0,0.0,0.0,0.0,4.7369,4.9673,5.1349,5.1887,5.1169,4.8626,4.5992,0.0,0.0,0.0,0.0,0.0,0.0,0.0,0.0,0.0,0.0,0.0,0.0,0.0,0.0,0.0,0.0,0.0,0.0,0.0,0.0,0.0,0.0,0.0,0.0,0.0,0.0,0.0,0.0,0.0,0.0,0.0,0.0,0.0,0.0,0.0,0.0,0.0,0.0,0.0,0.0,0.0,0.0,0.0,0.0,0.0,0.0,0.0,0.0,0.0,0.0,0.0,0.0,0.0,0.0,0.0,0.0,0.0,0.0,0.0,0.0,0.0,0.0,0.0,0.0,0.0,0.0,0.0,0.0,0.0,0.0,0.0,0.0,0.0,0.0,0.0,0.0,0.0,0.0,0.0,0.0,0.0,0.0,0.0,0.0,0.0,0.0,0.0,0.0,0.0,0.0,0.0,0.0,0.0,0.0,0.0,0.0,0.0,0.0,0.0,0.0,0.0,0.0,0.0,0.0,0.0,0.0,0.0,4.5693,4.8656,5.0435,5.1828,5.2157,5.1349,4.9374,4.698,4.4257,0.0,0.0,0.0,0.0,0.0,0.0,0.0,0.0,0.0,0.0,0.0,0.0,0.0,0.0,0.0,0.0,0.0,0.0,0.0,0.0,0.0,0.0,0.0,0.0,0.0,0.0,0.0,0.0,0.0,0.0,0.0,0.0,0.0,0.0,0.0,0.0,0.0,0.0,3.9345,4.1534,0.0,0.0,0.0,0.0,0.0,0.0,0.0,0.0,3.9138,0.0,0.0,0.0,0.0,0.0,0.0,0.0,0.0,0.0,0.0,0.0,0.0,0.0,0.0,0.0,0.0,0.0,0.0,0.0,0.0,0.0,0.0,0.0,0.0,0.0,0.0,0.0,0.0,0.0,0.0,0.0,0.0,0.0,0.0,0.0,0.0,0.0,0.0,0.0,0.0,0.0,0.0,0.0,0.0,0.0,0.0,0.0,0.0,0.0,0.0,0.0,0.0,0.0,0.0,0.0,0.0,4.2961,4.7415,5.0451,5.1858,5.3204,5.3294,5.2037,4.9613,4.677,4.3589,0.0,0.0,0.0,0.0,0.0,0.0,0.0,0.0,0.0,0.0,0.0,0.0,0.0,0.0,0.0,0.0,0.0,0.0,0.0,0.0,0.0,0.0,0.0,0.0,0.0,0.0,0.0,0.0,0.0,0.0,0.0,0.0,0.0,0.0,0.0,0.0,0.0,0.0,0.0,4.4561,4.531,0.0,0.0,0.0,0.0,0.0,0.0,0.0,0.0,4.1311,0.0,0.0,0.0,0.0,0.0,0.0,0.0,0.0,0.0,0.0,0.0,0.0,0.0,0.0,0.0,0.0,0.0,0.0,0.0,0.0,0.0,0.0,0.0,0.0,0.0,0.0,0.0,0.0,0.0,0.0,0.0,0.0,0.0,0.0,0.0,0.0,0.0,0.0,0.0,0.0,0.0,0.0,0.0,0.0,0.0,0.0,0.0,0.0,0.0,0.0,0.0,0.0,0.0,0.0,0.0,4.5364,4.9209,5.1887,5.3204,5.3862,5.3414,5.1708,4.9164,4.6232,0.0,0.0,0.0,0.0,0.0,0.0,0.0,0.0,0.0,0.0,0.0,0.0,0.0,0.0,0.0,0.0,0.0,0.0,0.0,0.0,0.0,0.0,0.0,0.0,0.0,0.0,0.0,0.0,0.0,0.0,0.0,0.0,0.0,0.0,0.0,0.0,0.0,0.0,0.0,0.0,4.7202,4.8394,4.7008,0.0,0.0,0.0,0.0,0.0,0.0,4.4291,4.3493,0.0,0.0,0.0,0.0,0.0,0.0,0.0,0.0,0.0,0.0,0.0,0.0,0.0,0.0,0.0,0.0,0.0,0.0,0.0,0.0,0.0,0.0,0.0,0.0,0.0,0.0,0.0,0.0,0.0,0.0,0.0,0.0,0.0,0.0,0.0,0.0,0.0,0.0,0.0,0.0,0.0,0.0,0.0,0.0,0.0,0.0,0.0,0.0,0.0,0.0,0.0,0.0,0.0,0.0,0.0,4.7379,5.0799,5.314,5.428,5.449,5.353,5.1446,4.8878,4.5913,0.0,0.0,0.0,0.0,0.0,0.0,0.0,0.0,0.0,0.0,0.0,0.0,0.0,0.0,0.0,0.0,0.0,0.0,0.0,0.0,0.0,0.0,0.0,0.0,0.0,0.0,0.0,0.0,0.0,0.0,0.0,0.0,0.0,0.0,0.0,0.0,0.0,0.0,0.0,0.0,0.0,5.0918,4.9515,4.8292,0.0,0.0,0.0,0.0,4.6463,4.6977,0.0,0.0,0.0,0.0,0.0,0.0,0.0,0.0,0.0,0.0,0.0,0.0,0.0,0.0,0.0,0.0,0.0,0.0,0.0,0.0,0.0,0.0,0.0,0.0,0.0,0.0,0.0,0.0,0.0,0.0,0.0,0.0,0.0,0.0,0.0,0.0,0.0,0.0,0.0,0.0,0.0,0.0,0.0,0.0,0.0,0.0,0.0,0.0,0.0,0.0,0.0,0.0,0.0,0.0,0.0,0.0,4.7892,5.1728,5.4092,5.488,5.5425,5.4582,5.2216,4.9751,4.6517,0.0,0.0,0.0,0.0,0.0,0.0,0.0,0.0,0.0,0.0,0.0,0.0,0.0,0.0,0.0,0.0,0.0,0.0,0.0,0.0,0.0,0.0,0.0,0.0,0.0,0.0,0.0,0.0,0.0,0.0,0.0,0.0,0.0,0.0,0.0,0.0,0.0,0.0,0.0,0.0,0.0,5.2065,5.1731,5.0827,5.0059,0.0,0.0,5.0189,5.0091,5.068,0.0,0.0,0.0,0.0,0.0,0.0,0.0,0.0,0.0,0.0,0.0,0.0,0.0,0.0,0.0,0.0,0.0,0.0,0.0,0.0,0.0,0.0,0.0,0.0,0.0,0.0,0.0,0.0,0.0,0.0,0.0,0.0,0.0,0.0,0.0,0.0,0.0,0.0,0.0,0.0,0.0,0.0,0.0,0.0,0.0,0.0,0.0,0.0,0.0,0.0,0.0,0.0,0.0,0.0,0.0,4.5326,4.9597,5.2839,5.505,5.6142,5.6419,5.544,5.3144,5.1267,4.8222,0.0,0.0,0.0,0.0,0.0,0.0,0.0,0.0,0.0,0.0,0.0,0.0,0.0,0.0,0.0,0.0,0.0,0.0,0.0,0.0,0.0,0.0,0.0,0.0,0.0,0.0,0.0,0.0,0.0,0.0,0.0,0.0,0.0,0.0,0.0,0.0,0.0,0.0,0.0,0.0,0.0,0.0,5.291,5.2876,0.0,0.0,0.0,5.3066,5.3467,0.0,0.0,0.0,0.0,0.0,0.0,0.0,0.0,0.0,0.0,0.0,0.0,0.0,0.0,0.0,0.0,0.0,0.0,0.0,0.0,0.0,0.0,0.0,0.0,0.0,0.0,0.0,0.0,0.0,0.0,0.0,0.0,0.0,0.0,0.0,0.0,0.0,0.0,0.0,0.0,0.0,0.0,0.0,0.0,0.0,0.0,0.0,0.0,0.0,0.0,0.0,0.0,0.0,0.0,0.0,0.0,0.0,5.1309,5.397,5.6029,5.7496,5.7449,5.6398,5.4421,5.295,0.0,0.0,0.0,0.0,0.0,0.0,0.0,0.0,0.0,0.0,0.0,0.0,0.0,0.0,0.0,0.0,0.0,0.0,0.0,0.0,0.0,0.0,0.0,0.0,0.0,0.0,0.0,3.221,0.0,0.0,0.0,0.0,0.0,0.0,0.0,0.0,0.0,0.0,0.0,0.0,0.0,0.0,5.3923,5.4296,5.4938,5.5412,0.0,0.0,5.5615,5.619,5.7171,5.6356,0.0,0.0,0.0,0.0,0.0,0.0,0.0,0.0,0.0,0.0,0.0,0.0,0.0,0.0,0.0,0.0,0.0,0.0,0.0,0.0,0.0,0.0,0.0,0.0,0.0,0.0,0.0,0.0,0.0,0.0,0.0,0.0,0.0,0.0,0.0,0.0,0.0,0.0,0.0,0.0,0.0,0.0,0.0,0.0,0.0,0.0,0.0,0.0,0.0,0.0,0.0,0.0,0.0,0.0,4.6937,5.2365,5.5016,5.7115,5.8696,5.8514,5.7688,5.6214,5.4633,5.1614,0.0,0.0,0.0,0.0,0.0,0.0,0.0,0.0,0.0,0.0,0.0,0.0,0.0,0.0,0.0,0.0,0.0,0.0,0.0,0.0,0.0,0.0,0.0,0.0,0.0,0.0,0.0,0.0,0.0,0.0,0.0,0.0,0.0,0.0,0.0,0.0,0.0,0.0,0.0,0.0,0.0,5.5006,5.6393,5.7205,5.7679,0.0,5.7679,5.7679,5.7712,5.7814,5.656,5.264,0.0,0.0,0.0,0.0,0.0,0.0,0.0,0.0,0.0,0.0,0.0,0.0,0.0,0.0,0.0,0.0,0.0,0.0,0.0,0.0,0.0,0.0,0.0,0.0,0.0,0.0,0.0,0.0,0.0,0.0,0.0,0.0,0.0,0.0,0.0,0.0,0.0,0.0,0.0,0.0,0.0,0.0,0.0,0.0,0.0,0.0,0.0,0.0,0.0,0.0,0.0,0.0,0.0,4.7728,5.284,5.6011,5.8343,5.9935,5.9892,5.9216,5.8115,5.6944,5.4164,0.0,0.0,0.0,0.0,0.0,0.0,0.0,0.0,0.0,0.0,0.0,0.0,0.0,0.0,0.0,0.0,0.0,0.0,0.0,0.0,0.0,0.0,0.0,0.0,0.0,0.0,0.0,0.0,3.6062,3.6265,3.6096,0.0,0.0,0.0,0.0,0.0,0.0,0.0,0.0,0.0,0.0,5.6494,5.7949,5.8795,0.0,0.0,5.9268,5.9099,5.866,5.8592,5.727,5.3585,4.9742,0.0,0.0,0.0,0.0,0.0,0.0,0.0,0.0,0.0,0.0,0.0,0.0,0.0,0.0,0.0,0.0,0.0,0.0,0.0,0.0,0.0,0.0,0.0,0.0,0.0,0.0,0.0,0.0,0.0,0.0,0.0,0.0,0.0,0.0,0.0,0.0,0.0,0.0,0.0,0.0,0.0,0.0,0.0,0.0,0.0,0.0,0.0,0.0,0.0,0.0,0.0,0.0,4.8364,5.3331,5.6795,5.93,6.0978,6.0861,6.0299,5.9343,5.8601,5.6016,0.0,0.0,0.0,0.0,0.0,0.0,0.0,0.0,0.0,0.0,0.0,0.0,0.0,0.0,0.0,0.0,0.0,0.0,0.0,0.0,0.0,0.0,0.0,0.0,0.0,0.0,0.0,0.0,3.7246,3.7043,3.6039,0.0,0.0,0.0,0.0,0.0,0.0,0.0,0.0,0.0,0.0,5.7171,5.9066,5.9776,6.025,6.0723,6.0385,5.9844,5.9133,5.8457,5.7002,5.3991,0.0,0.0,0.0,0.0,0.0,0.0,0.0,0.0,0.0,0.0,0.0,0.0,0.0,0.0,0.0,0.0,0.0,0.0,0.0,0.0,0.0,0.0,0.0,0.0,0.0,0.0,0.0,3.5519,0.0,0.0,3.5519,0.0,0.0,0.0,0.0,0.0,0.0,0.0,0.0,0.0,0.0,0.0,0.0,0.0,0.0,0.0,0.0,0.0,0.0,0.0,0.0,0.0,0.0,4.8754,5.3906,5.7363,5.9964,6.1602,6.1432,6.0812,5.9833,5.9291,5.6795,5.2101,0.0,0.0,0.0,0.0,0.0,0.0,0.0,0.0,0.0,0.0,0.0,0.0,0.0,0.0,0.0,0.0,0.0,0.0,0.0,0.0,0.0,0.0,0.0,0.0,0.0,0.0,3.969,3.9343,3.8294,0.0,0.0,0.0,0.0,0.0,0.0,0.0,0.0,0.0,5.0642,5.3788,5.6799,5.9641,6.0114,6.0622,6.2076,6.1028,5.9844,5.9066,5.7169,5.5277,0.0,0.0,0.0,0.0,0.0,0.0,0.0,0.0,0.0,0.0,0.0,0.0,0.0,0.0,0.0,0.0,0.0,0.0,0.0,0.0,0.0,0.0,0.0,0.0,0.0,0.0,0.0,3.9378,3.8855,0.0,0.0,0.0,0.0,0.0,0.0,0.0,0.0,0.0,0.0,0.0,4.7765,4.8911,0.0,0.0,0.0,0.0,0.0,0.0,0.0,0.0,0.0,0.0,0.0,0.0,4.8933,5.3584,5.7726,6.0555,6.2116,6.207,6.1672,6.0811,5.9637,5.5952,4.9499,0.0,0.0,0.0,0.0,0.0,0.0,0.0,0.0,0.0,0.0,0.0,0.0,0.0,0.0,0.0,0.0,0.0,0.0,0.0,0.0,0.0,0.0,0.0,0.0,0.0,3.8633,0.0,0.0,0.0,0.0,0.0,0.0,0.0,0.0,0.0,0.0,0.0,4.8815,5.23,5.4871,5.734,5.9776,6.0554,6.1095,0.0,0.0,0.0,0.0,0.0,0.0,0.0,0.0,0.0,0.0,0.0,0.0,0.0,0.0,5.3653,5.1928,5.1826,5.1758,5.1014,0.0,0.0,0.0,0.0,0.0,0.0,0.0,0.0,0.0,0.0,0.0,0.0,0.0,0.0,4.3434,4.2645,4.1731,0.0,0.0,0.0,0.0,0.0,0.0,0.0,0.0,5.2741,5.4117,5.3052,5.4183,5.4017,5.2655,5.2622,5.0025,0.0,0.0,0.0,0.0,0.0,0.0,0.0,0.0,4.9661,5.3856,5.8254,6.1129,6.2313,6.2415,6.2042,6.1298,5.9336,5.548,4.9661,4.6819,4.3639,0.0,0.0,0.0,0.0,0.0,0.0,0.0,0.0,0.0,0.0,0.0,0.0,0.0,0.0,0.0,0.0,0.0,0.0,0.0,0.0,0.0,0.0,0.0,3.9377,0.0,0.0,0.0,0.0,0.0,0.0,0.0,0.0,0.0,4.6561,4.8835,5.1532,5.4292,5.6133,5.7972,6.0186,0.0,0.0,0.0,0.0,0.0,0.0,0.0,5.5277,5.5074,5.46,5.46,5.5615,5.6498,5.7382,5.8405,0.0,0.0,5.7105,5.6968,5.707,5.6359,5.6224,5.5987,5.5175,5.5858,5.6782,0.0,0.0,0.0,0.0,4.5477,0.0,0.0,0.0,4.8418,4.7702,0.0,4.5431,0.0,0.0,0.0,0.0,4.4137,4.7507,0.0,0.0,5.7796,5.9776,5.9062,5.9704,5.937,5.8051,5.7881,5.629,5.3349,4.7912,0.0,0.0,0.0,0.0,0.0,0.0,5.0879,5.46,5.9032,6.167,6.2381,6.2415,6.2009,6.1197,5.8423,5.5513,5.2603,5.0304,4.7428,4.3713,4.2185,0.0,0.0,0.0,0.0,0.0,0.0,0.0,0.0,0.0,0.0,0.0,0.0,0.0,0.0,0.0,0.0,0.0,0.0,0.0,0.0,4.1331,0.0,0.0,0.0,0.0,0.0,0.0,0.0,0.0,0.0,0.0,5.0534,5.2265,5.4413,5.6627,0.0,0.0,0.0,0.0,6.2668,6.324,6.2538,6.1599,6.0588,5.8502,5.7205,5.7915,0.0,0.0,6.0047,6.1117,6.1855,6.2081,6.3436,6.4149,6.2824,6.2402,6.2159,6.1443,6.1278,6.11,6.0495,6.0975,6.2206,5.2946,0.0,0.0,0.0,0.0,5.2338,5.4045,5.5601,5.4317,5.34,5.2646,5.0648,0.0,0.0,0.0,0.0,0.0,0.0,5.3034,5.5598,5.9764,6.1332,6.0689,6.14,6.1231,6.0283,5.9201,5.7983,5.6528,5.3382,5.0043,4.6558,0.0,0.0,0.0,0.0,5.1623,5.5378,5.9302,6.167,6.2381,6.2415,6.1772,6.0486,5.9099,5.7239,5.4837,5.3112,5.0744,4.7564,4.6007,0.0,0.0,0.0,0.0,0.0,0.0,0.0,0.0,0.0,0.0,0.0,0.0,0.0,0.0,0.0,0.0,0.0,0.0,0.0,4.3211,4.3932,4.3683,0.0,0.0,0.0,0.0,0.0,0.0,0.0,0.0,0.0,5.7239,5.7558,5.8109,0.0,0.0,6.1944,6.3146,6.3923,6.4387,6.4323,6.369,0.0,6.1821,6.0724,6.025,6.0994,6.2415,6.3768,6.4715,6.5413,6.5915,6.6286,6.7087,6.7596,6.7539,6.6072,6.4752,6.4023,6.4195,6.4298,6.3717,6.4438,6.5506,5.9588,5.5228,5.4453,5.4815,5.6076,5.7666,5.9671,6.1608,6.0184,5.9152,5.8352,5.6121,5.3956,5.1858,5.0859,0.0,0.0,0.0,5.6847,5.895,6.2206,6.3328,6.2685,6.3362,6.299,6.1738,6.0791,5.981,5.8727,5.7442,5.5277,5.2232,0.0,4.6752,4.8984,5.0913,5.3416,5.6562,5.9979,6.1941,6.2381,6.2415,6.167,6.0148,5.9674,5.8389,5.6224,5.5006,5.3112,5.0439,4.8612,4.6244,0.0,0.0,0.0,0.0,0.0,0.0,0.0,0.0,0.0,0.0,0.0,3.366,3.4235,0.0,0.0,0.0,4.1845,4.4171,4.5945,4.687,0.0,0.0,0.0,0.0,0.0,0.0,0.0,5.495,5.7902,6.0415,6.2105,6.2835,6.2961,6.2433,6.3505,6.4577,6.5332,0.0,6.642,6.6093,6.5548,6.488,6.4137,6.3271,6.306,6.4045,6.5272,6.6432,6.7182,6.7725,6.8206,6.8642,6.9128,6.9636,7.0094,6.8894,6.7758,6.7328,6.7534,6.7778,6.771,6.8429,6.9212,6.5383,6.3836,6.0138,5.9703,6.1476,6.2566,6.4455,6.6745,6.5358,6.4377,6.3531,6.1332,5.9201,5.707,5.5649,0.0,5.822,5.9641,6.1028,6.255,6.4715,6.5324,6.4715,6.5358,6.458,6.255,6.2381,6.1535,6.0114,6.0013,5.9674,5.8825,5.2841,5.0811,5.2706,5.416,5.5919,5.8051,6.0926,6.2381,6.2415,6.2415,6.1637,6.0148,6.008,5.9099,5.7002,5.6258,5.4871,5.2672,5.0507,4.8308,4.5974,0.0,0.0,0.0,0.0,0.0,0.0,0.0,0.0,0.0,0.0,0.0,0.0,0.0,0.0,0.0,4.5399,0.0,4.9241,5.0169,0.0,0.0,0.0,4.9555,5.215,5.4725,5.7036,5.9003,0.0,0.0,6.5485,6.7577,6.8145,6.5886,6.6301,6.7059,6.778,6.8471,6.8782,6.846,6.7963,6.7481,6.7023,6.5992,6.5689,6.69,6.7204,6.7519,6.8107,6.8708,6.9161,6.9564,7.013,7.0644,7.1045,7.1078,7.1165,7.1231,7.1055,7.1161,7.1765,7.2193,7.2612,6.864,6.7732,6.6772,6.5794,6.4867,6.5947,6.6853,6.7557,6.6677,6.5865,6.5053,6.3429,6.1772,6.0182,5.9235,5.9404,6.052,6.1434,6.2347,6.3328,6.4918,6.5595,6.5425,6.5595,6.5121,6.4005,6.2347,6.1061,6.0114,5.9539,5.9167,5.893,5.7372,5.663,5.6562,5.6934,5.7915,5.9573,6.1434,6.2415,6.2415,6.2415,6.1637,6.0148,6.008,5.9336,5.7712,5.7476,5.663,5.4972,5.3348,5.0913,4.7564,4.5094,0.0,0.0,0.0,0.0,0.0,0.0,0.0,0.0,0.0,3.7362,3.9479,0.0,4.2964,0.0,4.8366,5.1622,5.3059,5.446,0.0,0.0,5.3529,5.3988,5.6656,5.8162,6.0158,6.3221,6.4977,6.6476,6.7871,6.9082,6.9806,6.9791,7.0493,7.1107,7.1326,7.1472,7.1434,7.1028,7.0486,7.0064,6.9626,6.9035,6.8609,6.8996,6.9066,6.9137,6.9313,6.9672,7.0164,7.0637,7.1067,7.177,7.2784,7.3014,7.3502,7.4374,7.3251,7.2072,7.2896,7.3384,7.3718,7.0466,7.0094,7.0094,6.9366,6.8327,6.8648,6.8813,6.8842,6.8166,6.7387,6.6609,6.5493,6.4546,6.3734,6.3294,6.3328,6.3768,6.4174,6.458,6.5019,6.5797,6.617,6.6203,6.6203,6.5628,6.4546,6.2685,6.14,6.0622,5.9877,5.9674,6.0013,6.0351,6.0317,5.9877,5.9235,5.9471,6.0622,6.1806,6.2415,6.2381,6.2076,6.1332,6.0148,5.9776,5.893,5.7476,5.7408,5.6731,5.5277,5.3788,5.1725,4.9018,4.6481,4.3369,0.0,0.0,0.0,0.0,0.0,0.0,0.0,0.0,0.0,0.0,0.0,4.7453,4.8969,5.1881,5.4457,5.6406,5.8067,5.9085,5.9401,5.9037,5.9488,6.1328,6.261,6.414,6.604,6.767,6.8972,6.9889,7.066,7.1321,7.1798,7.2202,7.2532,7.2532,7.2532,7.2409,7.2174,7.1707,7.1227,7.0806,7.0472,7.0232,7.0232,7.0232,7.0232,7.0266,7.0573,7.0973,7.1291,7.1707,7.2303,7.3428,7.3707,7.4221,7.5372,7.467,7.3929,7.4877,7.5293,7.5452,7.1312,7.1312,7.1312,7.1312,7.1278,7.0601,7.0263,7.0128,6.9519,6.8741,6.7861,6.7117,6.6812,6.6812,6.6711,6.6677,6.6677,6.6576,6.6542,6.6542,6.6609,6.6677,6.6677,6.6779,6.6034,6.4546,6.3091,6.2009,6.1298,6.0486,6.052,6.1298,6.2042,6.2415,6.2347,6.1061,6.0723,6.1434,6.2076,6.2415,6.2381,6.167,6.0926,6.0114,5.9302,5.8186,5.6731,5.6664,5.5987,5.4499,5.3145,5.1725,5.0135,4.7597,4.479,0.0,4.1189,0.0,0.0,0.0,0.0,0.0,0.0,0.0,0.0,5.0689,5.2209,5.4391,5.5564,5.7152,5.9441,6.1117,6.2658,6.4053,6.4237,6.4604,6.5521,6.6843,6.7797,6.8128,7.0036,7.1321,7.1468,7.2092,7.2496,7.2459,7.2459,7.2496,7.2532,7.2532,7.2438,7.2321,7.2018,7.1677,7.1295,7.1135,7.1135,7.1135,7.1135,7.1103,7.1135,7.1395,7.1651,7.1805,7.2078,7.268,7.367,7.3854,7.4404,7.5983,7.5592,7.5415,7.6515,7.6698,7.698,7.1312,7.1312,7.1312,7.1312,7.1312,7.1176,7.0737,7.0161,7.006,6.918,6.7861,6.7151,6.6812,6.6779,6.617,6.5899,6.5865,6.529,6.5019,6.5053,6.5628,6.5899,6.5933,6.6508,6.6034,6.4546,6.3091,6.2009,6.1298,6.0486,6.052,6.1298,6.2042,6.2415,6.2381,0.0,0.0,0.0,6.2313,6.2415,6.2381,6.167,6.0926,6.0114,5.8795,0.0,5.6021,5.5884,5.5243,5.3822,5.345,0.0,0.0,0.0,0.0,0.0,0.0,0.0,0.0,0.0,0.0,0.0,5.4098,5.4267,5.2726,5.4146,5.5922,5.7849,5.893,6.0199,6.1961,6.3613,6.4714,6.5044,6.5081,6.5632,6.7026,6.754,6.8421,7.0403,7.1027,7.155,7.2165,7.2422,7.2496,7.2532,7.2532,7.2532,7.2532,7.2532,7.2496,7.2438,7.2351,7.2321,7.2197,7.2167,7.2108,7.2197,7.2197,7.2167,7.2137,7.2197,7.2292,7.2351,7.2409,7.2915,7.4368,7.4698,7.5139,7.6723,7.6423,7.5946,7.624,7.5836,7.5329,7.1312,7.1312,7.1312,7.1312,0.0,7.1312,7.1109,7.0703,7.0331,6.9316,6.7861,6.7117,6.6609,6.6203,6.5493,6.4952,6.458,6.3835,6.3734,6.4106,6.4816,6.5358,6.5696,6.6474,6.6237,6.5087,6.3632,6.2753,6.2381,6.1603,6.1434,6.1839,6.2584,6.2753,6.2415,6.2415,6.2415,6.2415,6.2415,6.2415,6.2381,6.167,6.0926,6.0114,5.9032,0.0,0.0,0.0,0.0,0.0,0.0,0.0,0.0,0.0,0.0,4.7724,4.8077,4.8506,4.9038,5.1043,5.3372,5.5958,5.8592,5.9334,5.7522,5.8689,6.0017,6.1385,6.1973,6.2879,6.4457,6.5411,6.6072,6.6439,6.6843,6.743,6.8201,6.9009,6.9963,7.1064,7.1651,7.2055,7.2459,7.2532,7.2532,7.2532,7.2532,7.2532,7.2532,7.2532,7.2532,7.2532,7.2532,7.2496,7.2532,7.2532,7.2532,7.2496,7.2532,7.2532,7.2532,7.2532,7.2532,7.2532,7.2532,7.3046,7.4478,7.4888,7.5395,7.6723,7.635,7.5542,7.5506,7.5175,7.4888,7.1312,7.1312,7.1312,7.1312,7.1312,7.1312,7.1312,7.1244,7.0364,0.0,0.0,6.7218,6.6474,6.5831,6.4986,6.4275,6.3666,6.2787,6.2787,6.3531,6.4275,6.4986,6.5696,6.644,6.644,6.5628,6.4343,6.37,6.3666,6.2821,6.2482,6.2618,6.3091,6.299,6.2448,6.2415,6.2415,6.2415,6.2415,6.2415,6.2381,6.167,6.0994,6.0317,5.9336,5.7881,5.5987,5.5749,5.5108,5.3788,5.3179,5.2841,5.2672,5.1885,5.1526,5.1836,5.2537,5.3317,5.4117,5.5953,5.7561,5.8773,6.1702,6.3135,6.2291,6.2879,6.3539,6.4237,6.442,6.5081,6.6366,6.6659,6.7026,6.7834,6.8495,6.8972,6.9339,7.0412,7.1256,7.1513,7.2092,7.2496,7.2496,7.2532,7.2532,7.2532,7.2532,7.2532,7.2532,7.2532,7.2532,7.2532,7.2532,7.2532,7.2532,7.2532,7.2532,7.2532,7.2532,7.2532,7.2532,7.2532,7.2532,7.2532,7.2532,7.3193,7.4515,7.4888,7.5469,7.698,7.5989,7.4888,7.4852,7.4661,7.4404,7.1312,7.1312,7.1312,7.1312,7.1312,7.1312,7.1312,7.121,6.9857,6.9147,6.8842,6.7421,6.6745,6.6576,6.5222,6.4546,6.4343,6.299,6.2787,6.3531,6.4275,6.4986,6.5696,6.644,6.6406,6.5662,6.485,6.4444,6.4309,6.3091,6.2719,6.3193,6.2821,6.2482,6.2415,6.2415,6.2415,6.2415,6.2415,6.2415,6.2381,6.167,6.1264,6.1061,5.9133,5.7611,5.6697,5.6055,5.531,5.4499,5.4938,5.4938,5.4364,5.4941,5.558,5.6128,5.7381,5.9088,6.1176,6.1996,6.2854,6.4108,6.5312,6.5632,6.4897,6.4897,6.4982,6.5154,6.5742,6.6219,6.6549,6.7173,6.7907,6.8605,6.8825,6.9449,7.0669,7.1146,7.1615,7.2202,7.2422,7.2532,7.2532,7.2532,7.2532,7.2532,7.2532,7.2532,7.2532,7.2532,7.2532,7.2532,7.2532,7.2532,7.2532,7.2532,7.2532,7.2532,7.2532,7.2532,7.2532,7.2532,7.2532,7.2532,7.2532,7.312,7.4551,7.4888,7.5512,7.6723,7.5879,7.4882,7.4815,7.3927,7.2973,7.1312,7.1312,7.1312,7.1312,7.1312,7.1312,7.1312,7.121,7.0161,6.9451,6.8944,6.7489,6.6576,6.6136,6.5087,6.4377,6.3971,6.2888,6.2787,6.3531,6.4275,6.4986,6.5696,6.6474,6.6643,6.6271,6.5967,6.5595,6.5155,6.4512,6.3971,6.3531,6.2753,6.2584,6.2956,6.2584,6.2415,6.2415,6.2415,6.2415,6.2381,6.2076,6.1704,6.1298,6.025,5.8998,5.7442,5.7177,5.6571,5.5519,5.5894,5.603,5.5858,5.6909,5.7918,5.8749,6.0235,6.1917,6.3699,6.423,6.4862,6.5862,6.6292,6.6549,6.6623,6.6586,6.6586,6.6623,6.732,6.7797,6.7834,6.8531,6.9155,6.9486,6.9926,7.0513,7.1183,7.1725,7.2129,7.2459,7.2532,7.2532,7.2532,7.2532,7.2532,7.2532,7.2496,7.2496,7.2496,7.2496,7.2496,7.2532,7.2532,7.2532,7.2532,7.2532,7.2532,7.2532,7.2532,7.2532,7.2532,7.2532,7.2532,7.2532,7.2532,7.2973,7.4074,7.4258,7.4955,7.6056,7.5359,7.4515,7.4551,7.3634,7.2606,7.1312,7.1312,7.1312,7.1312,7.1312,7.1312,7.1312,7.1244,7.05,6.9857,6.918,6.7726,6.6643,6.5899,6.5155,6.4546,6.3937,6.3226,6.3294,6.4005,6.458,6.5222,6.5933,6.6542,6.6812,6.6812,6.6812,6.6508,6.5967,6.5595,6.4783,6.3599,6.2922,6.2922,6.3463,6.2753,6.2415,6.2415,6.2415,6.2415,6.2415,6.2415,6.211,6.1603,6.1366,6.0452,5.8832,5.8747,5.8351,5.7467,5.7636,5.7868,5.8166,5.9137,6.0246,6.1356,6.2664,6.3969,6.5159,6.563,6.6109,6.6696,6.6953,6.732,6.7871,6.8128,6.8128,6.8091,6.8495,6.8935,6.9155,6.9669,7.0183,7.0367,7.0917,7.1358,7.1578,7.2129,7.2532,7.2532,7.2532,7.2532,7.2532,7.2532,7.2467,7.238,7.2409,7.2409,7.2409,7.2409,7.2438,7.2496,7.2532,7.2532,7.2532,7.2532,7.2532,7.2532,7.2532,7.2532,7.2532,7.2532,7.2532,7.2532,7.2532,7.2863,7.3487,7.3707,7.4441,7.5652,7.4918,7.3891,7.4074,7.3377,7.2532,7.1312,7.1312,7.1312,7.1312,7.1312,7.1312,7.1312,7.121,7.05,7.0161,6.9891,6.847,6.7387,6.6677,6.5933,6.5527,6.5392,6.4749,6.4783,6.5392,6.5561,6.6,6.6643,6.6779,6.6812,6.6812,6.6812,6.6745,6.6508,6.5324,6.4309,6.3599,6.3429,6.3463,6.3463,6.2821,6.2415,6.2415,6.2415,6.2415,6.2415,6.2415,6.2347,6.2313,6.1637,6.1231,6.0901,6.0659,6.0623,6.1016,6.1325,6.1726,6.2174,6.2626,6.3417,6.4583,6.5185,6.6061,6.7212,6.7467,6.743,6.7614,6.8201,6.8641,6.8788,6.9412,6.9559,6.9045,6.8898,6.9302,6.9889,7.011,7.0513,7.1138,7.1321,7.155,7.2202,7.2459,7.2532,7.2532,7.2532,7.2532,7.2532,7.2467,7.2351,7.2048,7.2018,7.2018,7.2018,7.2174,7.2321,7.2438,7.2532,7.2532,7.2532,7.2532,7.2532,7.2532,7.2532,7.2532,7.2532,7.2532,7.2532,7.2532,7.2532,7.2789,7.3303,7.3744,7.4184,7.5139,7.4661,7.356,7.2973,7.2642,7.2532,7.1312,7.1312,7.1312,7.1312,7.1312,7.1312,7.1312,7.1278,7.0973,7.0601,7.0094,6.9079,6.8199,6.7421,6.6677,6.6339,6.6339,6.6034,6.6068,6.6339,6.6339,6.6508,6.6779,6.6812,6.6812,6.6812,6.6812,6.6576,6.6034,6.5087,6.4647,6.4715,6.4377,6.4377,6.4681,6.4072,6.37,6.3666,6.3294,6.3057,6.299,6.2736,6.2615,6.2736,6.2612,6.2282,6.2021,6.2084,6.2196,6.2185,6.2611,6.3026,6.3428,6.4226,6.4917,6.5532,6.6408,6.7158,6.765,6.7687,6.7687,6.7687,6.8458,6.8898,6.8935,6.9633,7.011,7.033,7.033,7.0477,7.0807,7.1248,7.1651,7.1945,7.2018,7.2165,7.2459,7.2532,7.2532,7.2532,7.2532,7.2496,7.2467,7.2321,7.2018,7.1609,7.1485,7.1521,7.1516,7.1738,7.2078,7.2409,7.2532,7.2532,7.2532,7.2532,7.2532,7.2532,7.2532,7.2532,7.2532,7.2532,7.2532,7.2532,7.2532,7.2606,7.2863,7.3046,7.3377,7.4221,7.4441,7.345,7.2679,7.2532,7.2532,7.1312,7.1312,7.1312,7.1312,7.1312,7.1312,7.1312,7.1312,7.1312,7.1007,7.0432,6.9519,6.8808,6.8132,6.7252,6.6812,6.6812,6.6812,6.6812,6.6812,6.6812,6.6812,6.6812,6.6812,6.6812,6.6812,6.6812,6.644,6.573,6.5425,6.5392,6.5561,6.5155,6.5155,6.5561,6.4986,6.4613,6.4512,6.3943,6.3617,6.3594,6.3299,6.3117,6.3196,6.3454,6.3401,6.3135,6.3587,6.3813,6.3634,6.4138,6.4531,6.4954,6.5727,6.6223,6.6408,6.7378,6.8017,6.8017,6.8201,6.8348,6.8385,6.9119,6.9559,6.9706,7.0293,7.0991,7.1505,7.1615,7.1615,7.1725,7.2165,7.2496,7.2532,7.2532,7.2532,7.2532,7.2532,7.2532,7.2532,7.2532,7.2467,7.2351,7.1988,7.1453,7.097,7.0839,7.094,7.1035,7.1359,7.1866,7.2409,7.2496,7.2532,7.2532,7.2532,7.2532,7.2532,7.2532,7.2532,7.2532,7.2532,7.2532,7.2532,7.2532,7.2532,7.2642,7.2642,7.2606,7.3156,7.345,7.3377,7.2679,7.2532,7.2532,7.1312,7.1312,7.1312,7.1312,7.1312,7.1312,7.1312,7.1312,7.1312,7.1278,7.1041,6.9755,6.9079,6.8876,6.7523,6.6812,6.6812,6.6812,6.6812,6.6812,6.6812,6.6812,6.6812,6.6812,6.6812,6.6812,6.6812,6.644,6.5797,6.6339,6.6373,6.573,6.5662,6.5662,6.5662,6.5087,6.4647,6.4681,6.4239,6.3961,6.4136,6.4125,6.4037,6.3966,6.4077,6.4462,6.4829,6.5258,6.5676,6.6169,6.6431,6.6879,6.7405,6.7486,6.7523,6.7623,6.8357,6.8825,6.8898,6.9449,6.9853,7.0,7.055,7.1109,7.0999,7.1688,7.2202,7.2422,7.2349,7.2386,7.2349,7.2422,7.2532,7.2532,7.2532,7.2532,7.2532,7.2532,7.2532,7.2496,7.2467,7.2285,7.2018,7.1395,7.0775,7.0267,7.013,7.0234,7.0606,7.1071,7.1744,7.2292,7.2532,7.2532,7.2532,7.2532,7.2532,7.2532,7.2532,7.2532,7.2532,7.2532,7.2496,7.2459,7.2349,7.2349,7.2459,7.2496,7.2459,7.2789,7.323,7.3083,7.2606,7.2532,7.2532,7.1312,7.1312,7.1312,7.1312,7.1312,7.1312,7.1312,7.1312,7.1312,7.1312,7.1142,7.0229,6.9553,6.9045,6.7996,6.7252,6.6846,6.6812,6.6812,6.6812,6.6812,6.6812,6.6812,6.6812,6.6812,6.6812,6.6812,6.6677,6.6474,6.6711,6.6677,6.6474,6.6406,6.6406,6.6373,6.6136,6.6034,6.5974,6.5583,6.5578,6.5949,6.6068,6.6319,6.6853,6.5767,6.5403,6.5752,6.613,6.6404,6.67,6.7061,6.7442,6.766,6.7687,6.7687,6.776,6.8458,6.8898,6.9009,6.9633,7.011,7.0146,7.0844,7.1293,7.1403,7.2018,7.2532,7.2532,7.2532,7.2532,7.2532,7.2532,7.2532,7.2532,7.2532,7.2532,7.2532,7.2532,7.2532,7.2467,7.2351,7.2018,7.1345,7.0806,7.0025,6.913,6.9163,6.9528,7.0024,7.064,7.1427,7.2263,7.2532,7.2532,7.2532,7.2532,7.2532,7.2532,7.2532,7.2532,7.2532,7.2422,7.2386,7.1872,7.1835,7.1578,7.1505,7.1762,7.1835,7.2312,7.2753,7.2789,7.2569,7.2349,7.2386,7.1312,7.1312,7.1312,7.1312,7.1312,7.1312,7.1312,7.1312,7.1312,7.1312,7.1176,7.05,6.9891,6.9316,6.8368,6.7658,6.7151,6.6948,6.6812,6.6812,6.6812,6.6812,6.6812,6.6812,6.6812,6.6812,6.6812,6.6812,6.6812,6.6812,6.6812,6.6812,6.6812,6.6812,6.6812,6.6854,6.6938,6.6969,6.677,6.6954,6.7424,6.7623,6.8046,6.8636,6.7492,6.6807,6.7046,6.7063,6.7061,6.7174,6.7405,6.7606,6.7687,6.7944,6.8091,6.8201,6.9119,6.9669,6.9779,7.0403,7.0881,7.0881,7.1358,7.1688,7.1725,7.2202,7.2459,7.2532,7.2532,7.2532,7.2532,7.2532,7.2532,7.2532,7.2532,7.2532,7.2532,7.2532,7.2291,7.1889,7.149,7.0915,7.0152,6.9346,6.8465,6.7454,6.7888,6.8516,6.914,7.0125,7.1103,7.2108,7.238,7.2438,7.2467,7.2532,7.2532,7.2532,7.2532,7.2532,7.2422,7.2312,7.1982,7.1468,7.0991,7.066,7.0624,7.0917,7.1321,7.1762,7.1982,7.2055,7.2018,7.2055,7.2202,7.1312,7.1312,7.1312,7.1312,7.1312,7.1312,7.1312,7.1312,7.1312,7.1312,7.121,7.0567,7.0229,6.9857,6.8741,6.7996,6.7827,6.7252,6.688,6.6812,6.6812,6.6812,6.6812,6.6812,6.6812,6.6812,6.6812,6.6812,6.6812,6.6812,6.6812,6.6812,6.6812,6.6812,6.6812,6.7056,6.7304,6.7467,6.7553,6.7889,6.8364,6.8687,6.9038,6.9484,6.899,6.8759,6.8889,6.8073,6.7633,6.766,6.766,6.7687,6.7797,6.8385,6.8862,6.9045,7.033,7.1109,7.1284,7.1872,7.2239,7.2239,7.2422,7.2386,7.2349,7.2459,7.2532,7.2532,7.2532,7.2532,7.2532,7.2532,7.2532,7.2532,7.2532,7.2532,7.2532,7.2459,7.205,7.1039,7.0268,6.9268,6.8067,6.727,6.6537,6.6109,6.6488,6.7326,6.8143,6.9318,7.0632,7.1677,7.2108,7.2233,7.238,7.2532,7.2532,7.2532,7.2532,7.2496,7.2312,7.2165,7.1578,7.0991,7.0,6.9669,6.9926,7.022,7.0624,7.1027,7.1174,7.1615,7.1872,7.2055,7.2092,7.1312,7.1312,7.1312,7.1312,7.1312,7.1312,7.1312,7.1312,7.1312,7.1312,7.1278,7.1075,7.0703,7.0195,6.9654,6.918,6.8673,6.7929,6.732,6.6914,6.6812,6.6812,6.6812,6.6812,6.6812,6.6812,6.6812,6.6812,6.6812,6.6812,6.6812,6.6812,6.6812,6.6812,6.6854,6.7188,6.7563,6.8024,6.8581,6.9318,7.0212,7.0586,7.0944,7.1392,7.0877,7.0531,7.0449,6.8715,6.7724,6.7724,6.7687,6.7687,6.7834,6.8458,6.8898,6.9082,7.044,7.1293,7.1366,7.2055,7.2532,7.2532,7.2532,7.2532,7.2532,7.2532,7.2532,7.2532,7.2532,7.2532,7.2532,7.2532,7.2496,7.2496,7.2532,7.2467,7.2365,7.178,7.1039,7.0289,6.9189,6.7964,6.6847,6.5974,6.5443,6.4965,6.5357,6.614,6.7238,6.8325,6.9629,7.0983,7.1438,7.1988,7.2204,7.2321,7.238,7.2409,7.2467,7.2496,7.2312,7.1688,7.1101,7.0257,6.9302,6.8972,6.9229,6.9596,7.0,7.0587,7.1064,7.1505,7.1982,7.2092,7.2055,7.1312,7.1312,7.1312,7.1312,7.1312,7.1312,7.1312,7.1312,7.1312,7.1312,7.1312,7.1312,7.1075,7.0601,7.0331,6.9958,6.9417,6.8402,6.7658,6.7218,6.688,6.6812,6.6812,6.6812,6.6812,6.6812,6.6812,6.6812,6.6812,6.6896,6.7014,6.7022,6.7063,6.7063,6.7105,6.7516,6.797,6.8527,6.9348,7.0302,7.1163,7.1707,7.2108,7.2328,7.1725,7.1329,7.1146,6.9522,6.8568,6.8568,6.8568,6.8568,6.8641,6.9376,6.9816,7.0036,7.0954,7.1733,7.1835,7.2239,7.2532,7.2532,7.2532,7.2532,7.2532,7.2532,7.2532,7.2532,7.2532,7.2532,7.2532,7.2532,7.2438,7.2321,7.2321,7.2321,7.2182,7.1325,7.0272,6.9377,6.7983,6.6567,6.5354,6.4683,6.4288,6.3928,6.4325,6.5094,6.6298,6.7427,6.8859,7.0114,7.0934,7.149,7.1988,7.2174,7.2233,7.2321,7.2409,7.2467,7.2422,7.1321,7.0477,6.9339,6.8348,6.8238,6.8495,6.8935,6.9339,7.011,7.0881,7.1138,7.1431,7.1762,7.1872,7.1312,7.1312,7.1312,7.1312,7.1312,7.1312,7.1312,7.1312,7.1312,7.1312,7.1312,7.1312,7.1278,7.1109,7.0635,7.0331,7.0026,6.8876,6.8267,6.7929,6.7387,6.6948,6.6846,6.6812,6.6812,6.6812,6.6812,6.6812,6.6812,6.7097,6.7346,6.7482,6.7557,6.7557,6.7604,6.7925,6.844,6.9017,6.992,7.0842,7.1707,7.2048,7.2358,7.2459,7.1835,7.1439,7.1358,7.066,7.0146,7.0073,6.9889,6.9853,7.0146,7.0844,7.1138,7.1138,7.2018,7.2349,7.2459,7.2459,7.2532,7.2532,7.2532,7.2532,7.2532,7.2532,7.2467,7.2467,7.2438,7.2438,7.2409,7.238,7.2197,7.1927,7.1866,7.1927,7.1854,7.0925,6.9652,6.8314,6.6768,6.5126,6.3586,6.3094,6.2824,6.2769,6.3323,6.4215,6.5348,6.6585,6.8031,6.9141,7.0093,7.064,7.1035,7.1427,7.1521,7.186,7.2071,7.2285,7.2247,7.1138,6.9816,6.8641,6.7934,6.7797,6.8017,6.8641,6.9229,7.0,7.0477,7.0587,7.1064,7.1651,7.1945,7.1312,7.1312,7.1312,7.1312,7.1312,7.1312,7.1312,7.1312,7.1312,7.1312,7.1312,7.1312,7.1312,7.1278,7.1109,7.1007,7.0703,6.9992,6.9586,6.935,6.8166,6.732,6.6914,6.6812,6.6812,6.6812,6.6812,6.6812,6.6812,6.7222,6.7604,6.7985,6.8088,6.8088,6.8098,6.8517,6.9013,6.9493,7.0336,7.1264,7.2108,7.2351,7.2438,7.2496,7.2275,7.2165,7.2202,7.1982,7.1248,7.0183,7.011,7.011,7.0257,7.0917,7.1366,7.1476,7.2055,7.2532,7.2532,7.2532,7.2532,7.2532,7.2532,7.2532,7.2532,7.2532,7.2438,7.2351,7.2233,7.2048,7.1994,7.1842,7.1395,7.0842,7.0973,7.1295,7.111,6.9881,6.8561,6.7605,6.5864,6.431,6.3243,6.2712,6.2629,6.2589,6.2866,6.3385,6.4755,6.5578,6.6969,6.8113,6.9056,6.9565,7.0024,7.0438,7.0839,7.1291,7.1635,7.2071,7.1772,7.1101,6.9596,6.8191,6.7898,6.7724,6.8274,6.8862,6.9486,7.0073,7.0624,7.1101,7.1725,7.2312,7.2275,7.1312,7.1312,7.1312,7.1312,7.1312,7.1312,7.1312,7.1312,7.1312,7.1312,7.1312,7.1312,7.1312,7.1312,7.1312,7.1312,7.121,7.0534,7.0161,6.9891,6.8571,6.7523,6.6981,6.6812,6.6812,6.6812,6.6812,6.6812,6.6896,6.727,6.7731,6.8211,6.844,6.8517,6.86,6.9087,6.9563,7.0024,7.074,7.1615,7.2409,7.2532,7.2496,7.2532,7.2532,7.2532,7.2496,7.2496,7.2018,7.1321,7.1138,7.1101,7.1138,7.1541,7.1798,7.1806,7.2275,7.2532,7.2532,7.2532,7.2532,7.2532,7.2532,7.2532,7.2532,7.2496,7.2438,7.2204,7.186,7.1552,7.1268,7.0842,7.0198,6.9493,6.9743,7.0198,7.057,6.937,6.832,6.7376,6.6035,6.4459,6.3453,6.3334,6.3294,6.3362,6.3463,6.3943,6.4566,6.5113,6.5841,6.7109,6.8115,6.8682,6.9238,6.9672,7.0404,7.0872,7.1732,7.2071,7.1414,7.0881,6.9633,6.8421,6.7981,6.7944,6.8678,6.9265,6.9669,7.0293,7.0962,7.1586,7.2165,7.2532,7.2532,7.1312,7.1312,7.1312,7.1312,7.1312,7.1312,7.1312,7.1312,7.1312,7.1312,7.1312,7.1312,7.1312,7.1312,7.1312,7.1312,7.1278,7.0703,7.0229,6.9688,6.8707,6.7692,6.688,6.6812,6.6812,6.6812,6.6812,6.6812,6.6896,6.727,6.7765,6.8284,6.8593,6.886,6.9124,6.9635,7.006,7.0436,7.1103,7.1805,7.238,7.2532,7.2532,7.2532,7.2532,7.2532,7.2532,7.2532,7.2422,7.2496,7.2532,7.2349,7.2386,7.2459,7.2459,7.2422,7.2459,7.2532,7.2532,7.2532,7.2532,7.2532,7.2532,7.2504,7.2504,7.2409,7.2226,7.1836,7.1323,7.0839,7.0336,6.96,6.898,6.8489,6.8366,6.8825,6.935,6.8893,6.8184,6.7934,6.6604,6.5529,6.4903,6.4613,6.4546,6.4005,6.4106,6.4241,6.4546,6.4945,6.5601,6.636,6.7226,6.7871,6.8447,6.8973,6.9778,7.0573,7.1799,7.216,7.1207,7.0477,6.9596,6.8862,6.8752,6.8935,6.9412,6.9853,7.0183,7.077,7.1651,7.2018,7.2312,7.2459,7.2532,7.1312,7.1312,7.1312,7.1312,7.1312,7.1312,7.1312,7.1312,7.1312,7.1312,7.1312,7.1312,7.1312,7.1312,7.1312,7.1312,7.1312,7.1041,7.0534,6.9316,6.9113,6.803,6.7083,6.6812,6.6812,6.6812,6.6812,6.6812,6.6896,6.727,6.7731,6.818,6.8708,6.9124,6.9529,7.0025,7.0507,7.0901,7.1422,7.1927,7.238,7.2532,7.2532,7.2532,7.2532,7.2532,7.2532,7.2532,7.2532,7.2532,7.2532,7.2532,7.2532,7.2532,7.2532,7.2532,7.2532,7.2532,7.2532,7.2532,7.2532,7.2532,7.2496,7.2438,7.2321,7.2137,7.1799,7.1232,7.064,6.9955,6.9198,6.867,6.8172,6.7856,6.7731,6.7845,6.8068,6.7819,6.7551,6.7159,6.6401,6.5338,6.4769,6.4783,6.4749,6.4647,6.4681,6.4647,6.4823,6.5033,6.5495,6.618,6.6562,6.7249,6.7776,6.852,6.9672,7.0573,7.1738,7.2393,7.1468,7.0881,7.0293,6.9963,6.9743,6.9963,7.0146,7.0587,7.0954,7.1615,7.2165,7.2312,7.2422,7.2496,7.2532,7.1312,7.1312,7.1312,7.1312,7.1312,7.1312,7.1312,7.1312,7.1312,7.1312,7.1312,7.1312,7.1312,7.1312,7.1312,7.1312,7.1312,7.1278,7.0534,6.9383,6.9011,6.8233,6.7083,6.6812,6.6812,6.6812,6.6812,6.6812,6.6896,6.7146,6.7563,6.8019,6.8555,6.9124,6.9778,7.0337,7.0911,7.1359,7.1769,7.2174,7.2438,7.2532,7.2532,7.2532,7.2532,7.2532,7.2532,7.2532,7.2532,7.2532,7.2532,7.2532,7.2532,7.2532,7.2532,7.2532,7.2936,7.2789,7.2679,7.2826,7.2899,7.2504,7.2496,7.2351,7.2108,7.183,7.1227,7.0539,6.9708,6.883,6.793,6.7684,6.74,6.7319,6.7195,6.7229,6.725,6.7307,6.7345,6.7242,6.6833,6.6255,6.5827,6.55,6.5561,6.5764,6.5797,6.573,6.5425,6.5636,6.567,6.6057,6.6253,6.6648,6.7134,6.8137,6.9672,7.0673,7.1769,7.2248,7.2018,7.1688,7.1394,7.0917,7.033,7.0513,7.0734,7.1183,7.1615,7.2055,7.2386,7.2459,7.2532,7.2532,7.2532,7.1312,7.1312,7.1312,7.1312,7.1312,7.1312,7.1312,7.1312,7.1312,7.1312,7.1312,7.1312,7.1312,7.1312,7.1312,7.1312,7.1312,7.1244,7.0534,6.9519,6.9383,6.847,6.7421,6.7083,6.6981,6.6846,6.6812,6.6812,6.6854,6.7022,6.727,6.765,6.828,6.8975,6.9743,7.0541,7.1236,7.1836,7.2144,7.2321,7.2467,7.2532,7.2532,7.2532,7.2753,7.2789,7.2863,7.2936,7.2973,7.2863,7.2863,7.2863,7.2826,7.2532,7.2467,7.2504,7.2922,7.2827,7.2475,7.2797,7.2841,7.2351,7.2321,7.2108,7.1738,7.1232,7.0606,6.9743,6.8865,6.7822,6.6938,6.6938,6.6896,6.6854,6.6812,6.6812,6.6854,6.7146,6.7332,6.7379,6.7012,6.6581,6.6558,6.644,6.6677,6.6812,6.6812,6.6643,6.6271,6.6,6.5933,6.5865,6.6,6.6746,6.7345,6.8258,6.9708,7.074,7.1799,7.216,7.2386,7.2202,7.1835,7.1248,7.0881,7.1101,7.1321,7.1651,7.2055,7.2422,7.2532,7.2532,7.2532,7.2532,7.2532,7.1312,7.1312,7.1312,7.1312,7.1312,7.1312,7.1312,7.1312,7.1312,7.1312,7.1312,7.1312,7.1312,7.1312,7.1312,7.1312,7.1312,7.1244,7.0804,7.0026,6.9857,6.9079,6.7861,6.7557,6.7354,6.6948,6.6812,6.6812,6.6812,6.6854,6.698,6.7188,6.7845,6.8711,6.9672,7.0539,7.1395,7.2137,7.238,7.2467,7.2467,7.2532,7.2532,7.2569,7.2936,7.323,7.3523,7.4074,7.4515,7.4515,7.4515,7.4375,7.3935,7.3054,7.2519,7.2475,7.2509,7.2462,7.2012,7.1858,7.1863,7.1687,7.162,7.1363,7.0976,7.0438,6.9778,6.8938,6.8049,6.7229,6.6854,6.6812,6.6812,6.6812,6.6812,6.6812,6.6812,6.6896,6.698,6.7029,6.6938,6.6854,6.6812,6.6812,6.6812,6.6812,6.6812,6.6609,6.6203,6.6,6.5865,6.5797,6.573,6.6739,6.7708,6.8758,6.9919,7.0773,7.1677,7.2321,7.2459,7.2496,7.2165,7.1688,7.1688,7.1945,7.2129,7.2165,7.2275,7.2496,7.2532,7.2532,7.2532,7.2532,7.2532,7.1312,7.1312,7.1312,7.1312,7.1312,7.1312,7.1312,7.1312,7.1312,7.1312,7.1312,7.1312,7.1312,7.1312,7.1312,7.1312,7.1312,7.1312,7.0872,7.0331,7.0094,6.9383,6.8098,6.7929,6.7455,6.7015,6.6812,6.6846,6.6812,6.6812,6.6812,6.7022,6.7684,6.8635,6.9672,7.0505,7.1453,7.2255,7.2532,7.2532,7.2532,7.2532,7.2532,7.2642,7.2863,7.3046,7.3156,7.3377,7.3634,7.3597,7.3634,7.3612,7.3369,7.2951,7.2386,7.2632,7.2642,7.2146,7.1424,7.1162,7.1072,7.0609,7.0573,7.037,6.9955,6.9384,6.879,6.793,6.7441,6.6938,6.6812,6.6812,6.6812,6.6812,6.6812,6.6812,6.6812,6.6812,6.6812,6.6812,6.6812,6.6812,6.6812,6.6812,6.6812,6.6812,6.6812,6.6576,6.6237,6.617,6.6102,6.6136,6.6177,6.6841,6.7901,6.8945,6.9954,7.0839,7.1677,7.2292,7.2532,7.2532,7.2532,7.2312,7.2459,7.2532,7.2496,7.2349,7.2459,7.2532,7.2532,7.2532,7.2532,7.2532,7.2532,7.0872,7.0872,7.0872,7.0939,7.1075,7.1109,7.1176,7.1278,7.1312,7.1312,7.1312,7.1312,7.1312,7.1312,7.1312,7.1312,7.1312,7.1312,7.0973,7.0601,7.0466,6.9654,6.8741,6.8233,6.803,6.7252,6.7151,6.6948,6.6846,6.6812,6.6812,6.7063,6.7644,6.8635,6.9672,7.0505,7.1453,7.2167,7.2532,7.2532,7.2532,7.2642,7.2642,7.2642,7.2789,7.3046,7.2973,7.3266,7.334,7.334,7.3201,7.3032,7.2745,7.2462,7.2496,7.2744,7.2824,7.1848,7.0907,7.031,7.006,6.9671,6.9529,6.9311,6.8978,6.8447,6.7742,6.6988,6.6812,6.6812,6.6812,6.6812,6.6812,6.6812,6.6812,6.6812,6.6812,6.6812,6.6812,6.6812,6.6812,6.6812,6.6812,6.6812,6.6812,6.6812,6.6812,6.6812,6.6542,6.6609,6.6576,6.6643,6.6803,6.7141,6.8014,6.9017,6.9954,7.0773,7.1677,7.2409,7.2532,7.2532,7.2496,7.2467,7.2532,7.2532,7.2532,7.2532,7.2532,7.2532,7.2532,7.2532,7.2532,7.2532,7.2532,6.935,6.9383,6.9383,6.9722,7.0297,7.0364,7.0737,7.1244,7.1278,7.1312,7.1312,7.1312,7.1312,7.1312,7.1312,7.1312,7.1312,7.1278,7.121,7.1041,7.1007,7.0567,6.9925,6.9925,6.8808,6.7827,6.7692,6.7387,6.6948,6.6812,6.6812,6.698,6.7684,6.8635,6.9672,7.0505,7.1458,7.2321,7.2496,7.2467,7.2577,7.3025,7.2951,7.2951,7.3428,7.3839,7.3296,7.3553,7.3956,7.4169,7.4345,7.4335,7.4134,7.3615,7.2593,7.172,7.0875,7.0168,6.9525,6.915,6.8955,6.8746,6.8711,6.8593,6.8206,6.7765,6.7195,6.6896,6.6812,6.6812,6.6812,6.6812,6.6812,6.6812,6.6812,6.6812,6.6812,6.6812,6.6812,6.6812,6.6812,6.6812,6.6812,6.6812,6.6812,6.6812,6.6812,6.6812,6.6812,6.6812,6.6812,6.6812,6.6896,6.7229,6.789,6.894,6.9743,7.0676,7.1521,7.2351,7.2351,7.2321,7.2467,7.2467,7.2467,7.2496,7.2532,7.2532,7.2532,7.2532,7.2532,7.2532,7.2532,7.2532,7.2532,6.8301,6.9079,6.9079,6.9282,6.962,6.9992,7.0364,7.0703,7.1142,7.1312,7.1312,7.1312,7.1312,7.1312,7.1312,7.1312,7.1312,7.1312,7.1312,7.1312,7.1244,7.0906,7.0297,7.0094,6.9383,6.8368,6.7827,6.7455,6.7049,6.688,6.6812,6.6938,6.7684,6.8635,6.9672,7.0505,7.1453,7.2137,7.2321,7.2204,7.2194,7.2316,7.2292,7.1964,7.2692,7.2765,7.2692,7.2729,7.2947,7.2984,7.2984,7.273,7.2312,7.1742,7.0982,6.9945,6.9148,6.8635,6.8327,6.793,6.7765,6.7644,6.7644,6.7523,6.7353,6.7146,6.6972,6.6812,6.6812,6.6812,6.6812,6.6812,6.6812,6.6812,6.6812,6.6812,6.6812,6.6812,6.6812,6.6812,6.6812,6.6812,6.6812,6.6812,6.6812,6.6812,6.6812,6.6812,6.6812,6.6812,6.6812,6.6812,6.6896,6.7105,6.7851,6.8749,6.9419,7.0267,7.1107,7.1775,7.2024,7.2114,7.2204,7.238,7.2438,7.2467,7.2496,7.2532,7.2532,7.2532,7.2532,7.2532,7.2532,7.2532,7.2532,6.7489,6.8504,6.8538,6.8639,6.8842,6.9383,6.9857,7.0263,7.077,7.1109,7.1278,7.1312,7.1312,7.1312,7.1312,7.1312,7.1312,7.1312,7.1312,7.1312,7.1244,7.1007,7.0703,7.0398,6.9823,6.847,6.8707,6.8267,6.7726,6.7421,6.7354,6.6888,6.7644,6.8673,6.9601,7.0503,7.139,7.2197,7.1921,7.1677,7.1531,7.1388,7.1254,7.1182,7.1218,7.1218,7.1074,7.111,7.111,7.1114,7.115,7.0991,7.0516,7.0062,6.9449,6.8625,6.8009,6.761,6.7448,6.7195,6.6854,6.6812,6.6812,6.698,6.6896,6.6812,6.6812,6.6812,6.6812,6.6812,6.6812,6.6812,6.6812,6.6812,6.6812,6.6812,6.6812,6.6812,6.6812,6.6812,6.6812,6.6812,6.6812,6.6812,6.6812,6.6812,6.6812,6.6812,6.6812,6.6812,6.6812,6.6812,6.6854,6.7022,6.7644,6.8405,6.9161,6.9778,7.0609,7.1139,7.1332,7.1615,7.1799,7.1981,7.2321,7.2438,7.2496,7.2532,7.2532,7.2532,7.2532,7.2532,7.2532,7.2532,7.2532,6.688,6.6948,6.7015,6.7421,6.7996,6.803,6.8876,6.9958,7.0229,7.0703,7.1278,7.1312,7.1312,7.1312,7.1312,7.1312,7.1312,7.1312,7.1312,7.1312,7.1278,7.1244,7.1075,7.0973,7.0703,6.9958,6.9688,6.935,6.9011,6.8538,6.7929,6.7175,6.7918,6.8743,6.9672,7.0611,7.1236,7.1707,7.1422,7.097,7.0785,7.0659,7.0487,7.0168,7.0452,7.0594,6.9885,6.9919,6.9919,6.9919,6.9954,6.9778,6.9383,6.8868,6.8331,6.789,6.736,6.7063,6.6938,6.6938,6.6854,6.6812,6.6812,6.6812,6.6812,6.6812,6.6812,6.6812,6.6812,6.6812,6.6812,6.6812,6.6812,6.6812,6.6812,6.6812,6.6812,6.6812,6.6812,6.6812,6.6812,6.6812,6.6812,6.6812,6.6812,6.6812,6.6812,6.6812,6.6812,6.6812,6.6812,6.6812,6.6812,6.7022,6.7435,6.8049,6.86,6.9126,6.9778,7.0233,7.0539,7.0872,7.1485,7.186,7.2233,7.238,7.2532,7.2532,7.2532,7.2532,7.2532,7.2532,7.2532,7.2532,7.2532,6.6812,6.6812,6.6812,6.6981,6.7252,6.7692,6.8233,6.891,6.9789,7.0601,7.1312,7.1312,7.1312,7.1312,7.1312,7.1312,7.1312,7.1312,7.1312,7.1312,7.1312,7.1312,7.1312,7.121,7.0906,7.0364,7.0161,6.9823,6.9113,6.9248,6.891,6.849,6.8549,6.9168,7.0017,7.0652,7.1107,7.0973,7.0742,7.0267,6.9849,6.9558,6.9405,6.9229,6.9264,6.944,6.9159,6.9087,6.9087,6.9087,6.9052,6.8825,6.8559,6.8098,6.7736,6.7441,6.698,6.6854,6.6812,6.6812,6.6812,6.6812,6.6812,6.6846,6.6914,6.688,6.6846,6.6812,6.6914,6.7015,6.688,6.6846,6.6812,6.6812,6.688,6.6981,6.7049,6.7151,6.7151,6.7286,6.7015,6.6812,6.6812,6.6812,6.6812,6.6812,6.6812,6.6812,6.6812,6.6812,6.6812,6.6812,6.6812,6.6854,6.727,6.765,6.8093,6.8524,6.9015,6.9564,7.0095,7.0842,7.1395,7.1805,7.2137,7.238,7.2532,7.2532,7.2532,7.2532,7.2532,7.2532,7.2532,7.2532,7.2606,6.6812,6.6812,6.6812,6.6812,6.688,6.7354,6.7692,6.8098,6.9282,7.0432,7.1278,7.1312,7.1312,7.1312,7.1312,7.1312,7.1312,7.1312,7.1312,7.1312,7.1312,7.1312,7.1312,7.1244,7.1075,7.0601,7.05,7.0229,6.9958,6.9789,6.9789,6.9727,6.9501,6.9814,6.9887,7.0556,7.0709,7.0268,6.9778,6.931,6.8822,6.8397,6.8157,6.8088,6.8157,6.8157,6.8049,6.8049,6.8049,6.8049,6.8049,6.7965,6.7765,6.7523,6.7319,6.7105,6.6972,6.6812,6.6812,6.6812,6.6812,6.6812,6.7117,6.7151,6.7151,6.732,6.7726,6.7658,6.759,6.7455,6.7455,6.7658,6.7726,6.7895,6.7861,6.7895,6.7861,6.7929,6.7827,6.7793,6.7624,6.7658,6.7692,6.7726,6.7286,6.7151,6.6812,6.6812,6.6812,6.6812,6.6812,6.6812,6.6812,6.6896,6.7097,6.7387,6.7672,6.7975,6.852,6.92,6.9814,7.068,7.1372,7.1707,7.2078,7.238,7.2532,7.2569,7.2532,7.2532,7.2532,7.2532,7.2532,7.2532,7.2753,6.6812,6.6812,6.6812,6.6812,6.6812,6.6846,6.7218,6.7861,6.8808,6.9992,7.121,7.1312,7.1312,7.1312,7.1312,7.1312,7.1312,7.1312,7.1312,7.1312,7.1312,7.1312,7.1312,7.1278,7.1244,7.1278,7.1142,7.1041,7.1041,7.0872,7.0973,7.0849,7.0333,7.0035,6.9545,6.9697,6.96,6.9237,6.8781,6.8462,6.7988,6.7571,6.7365,6.7188,6.7188,6.7195,6.7236,6.7229,6.7236,6.7195,6.7229,6.7146,6.7063,6.7022,6.6896,6.6854,6.6812,6.6846,6.6846,6.6846,6.6981,6.6948,6.7252,6.7658,6.7963,6.8368,6.8741,6.847,6.8673,6.8808,6.891,6.891,6.8774,6.8707,6.8639,6.8605,6.8538,6.8504,6.8402,6.8335,6.8707,6.8977,6.8977,6.8774,6.8064,6.759,6.7015,6.6914,6.7083,6.7252,6.7421,6.7455,6.7489,6.7531,6.7608,6.7193,6.7275,6.755,6.8295,6.9386,7.0201,7.1081,7.1575,7.1765,7.2389,7.3061,7.2886,7.2642,7.2936,7.323,7.2642,7.2532,7.2532,7.2679,7.2973,6.6812,6.6812,6.6812,6.6812,6.6812,6.6812,6.6981,6.7387,6.8538,6.9925,7.1075,7.1312,7.1312,7.1312,7.1312,7.1312,7.1312,7.1312,7.1312,7.1312,7.1312,7.1312,7.1312,7.1312,7.1312,7.1312,7.1312,7.1312,7.1244,7.1312,7.1312,7.1153,7.0734,7.026,7.0153,7.024,7.0322,6.9931,6.9538,6.9035,6.8178,6.77,6.7286,6.688,6.6846,6.6812,6.6812,6.6812,6.6812,6.6812,6.6812,6.6812,6.6812,6.6812,6.6812,6.6812,6.6846,6.7083,6.7523,6.7861,6.7793,6.7523,6.759,6.803,6.7996,6.8639,6.8977,6.918,6.9282,6.9282,6.9045,6.9079,6.9011,6.8977,6.8944,6.8944,6.891,6.8944,6.891,6.8876,6.9079,6.9248,6.9282,6.9553,6.9045,6.8808,6.8402,6.8166,6.8267,6.8402,6.8538,6.8538,6.8538,6.8436,6.8267,6.7963,6.8065,6.8561,6.9388,7.038,7.1112,7.1516,7.2209,7.2637,7.3229,7.3776,7.3669,7.3648,7.3971,7.4037,7.3413,7.2899,7.2899,7.312,7.3413,6.6812,6.6812,6.6812,6.6812,6.6812,6.6812,6.6914,6.7387,6.8571,6.9823,7.077,7.1142,7.1312,7.1312,7.1312,7.1312,7.1312,7.1312,7.1312,7.1312,7.1312,7.1312,7.1312,7.1312,7.1312,7.1312,7.1312,7.1312,7.1312,7.1312,7.1312,7.1176,7.0804,7.0707,7.0609,7.045,7.0017,6.9693,6.9449,6.922,6.8591,6.8116,6.7658,6.7286,6.7015,6.6812,6.6812,6.6812,6.6812,6.6812,6.6846,6.6846,6.6846,6.6846,6.6812,6.6812,6.7117,6.7387,6.7895,6.8571,6.8368,6.7929,6.8301,6.8639,6.8808,6.9586,6.9857,6.9958,6.9789,6.9823,6.9823,6.9789,6.9755,6.9755,6.9755,6.9789,6.9823,6.9891,6.9857,6.9789,6.9722,6.9755,6.9755,6.9958,6.9992,6.9958,6.9857,6.962,6.9316,6.9282,6.9316,6.9282,6.918,6.8977,6.8876,6.8808,6.9067,6.9612,7.034,7.1057,7.1368,7.1619,7.2548,7.3384,7.357,7.3847,7.4501,7.4755,7.4755,7.4565,7.4147,7.3707,7.3377,7.367,7.4074,6.6812,6.6812,6.6812,6.6812,6.6812,6.6812,6.7218,6.7895,6.8673,6.9485,7.0263,7.0973,7.121,7.1278,7.1312,7.1312,7.1312,7.1312,7.1312,7.1312,7.1312,7.1312,7.1312,7.1312,7.1312,7.1312,7.1312,7.1312,7.1312,7.1312,7.1312,7.1312,7.1176,7.1107,7.0822,7.0357,6.9857,6.9848,6.9804,6.9625,6.9156,6.8615,6.8166,6.7726,6.732,6.6981,6.688,6.6812,6.6812,6.6846,6.688,6.688,6.688,6.688,6.688,6.7117,6.7658,6.8064,6.8368,6.9113,6.9383,6.9248,6.9722,7.0094,7.0195,7.0432,7.0703,7.0838,7.0804,7.1007,7.1109,7.1041,7.0973,7.1007,7.1007,7.1007,7.1041,7.1041,7.1041,7.0973,7.0939,7.0906,7.0838,7.0906,7.0635,7.0703,7.0567,7.0331,7.0026,6.9755,6.9755,6.9722,6.962,6.9417,6.9383,6.962,6.9863,7.037,7.069,7.1273,7.1447,7.1836,7.268,7.3297,7.3466,7.3902,7.4961,7.5207,7.5104,7.4885,7.4799,7.4535,7.4249,7.4595,7.5028,6.6812,6.6812,6.6812,6.6812,6.6812,6.6812,6.7218,6.7895,6.8199,6.8944,7.0229,7.0398,7.0838,7.1278,7.1312,7.1312,7.1312,7.1312,7.1312,7.1312,7.1312,7.1312,7.1312,7.1312,7.1312,7.1312,7.1312,7.1312,7.1312,7.1312,7.1312,7.1312,7.1312,7.1312,7.1142,7.0872,7.0669,7.0534,7.0466,7.0229,6.9958,6.9519,6.891,6.8233,6.7726,6.7354,6.7015,6.6846,6.6846,6.688,6.732,6.7557,6.759,6.8098,6.847,6.8538,6.9079,6.9553,6.9654,7.0229,7.0567,7.05,7.0804,7.0534,7.0601,7.0838,7.1278,7.1312,7.1312,7.1312,7.1312,7.1312,7.1312,7.1312,7.1312,7.1312,7.1312,7.1312,7.1312,7.1312,7.1312,7.1312,7.1312,7.1244,7.1041,7.121,7.1176,7.0906,7.0703,7.0432,7.0297,7.0263,7.0297,7.0161,7.0466,7.0703,7.088,7.111,7.1276,7.1476,7.1836,7.2319,7.2902,7.3302,7.3615,7.4578,7.5759,7.5705,7.5172,7.5705,7.5713,7.5411,7.522,7.5403,7.558,6.6812,6.6812,6.6812,6.6812,6.6812,6.6812,6.7083,6.7489,6.776,6.8504,6.9316,6.9925,7.0466,7.0838,7.1142,7.1312,7.1312,7.1312,7.1312,7.1312,7.1312,7.1312,7.1312,7.1312,7.1312,7.1312,7.1312,7.1312,7.1312,7.1312,7.1312,7.1312,7.1312,7.1312,7.1244,7.121,7.1244,7.121,7.1176,7.1041,7.0737,7.0364,6.9553,6.8876,6.8402,6.7692,6.7286,6.7117,6.6981,6.7151,6.7793,6.8098,6.8233,6.8842,6.9045,6.9113,6.962,6.9958,7.0128,7.077,7.1176,7.1312,7.1312,7.1075,7.0973,7.1109,7.1244,7.1312,7.1312,7.1312,7.1312,7.1312,7.1312,7.1312,7.1312,7.1312,7.1312,7.1312,7.1312,7.1312,7.1312,7.1312,7.1312,7.1312,7.1312,7.1312,7.1312,7.121,7.1109,7.1007,7.0906,7.0906,7.1007,7.1075,7.1312,7.1312,7.1266,7.1219,7.1362,7.1634,7.2167,7.2279,7.2424,7.3112,7.3931,7.4682,7.5262,7.5369,7.5155,7.5548,7.5584,7.5077,7.5022,7.5636,7.5843,6.6812,6.6812,6.6812,6.6812,6.6812,6.6812,6.6846,6.688,6.7489,6.7861,6.8233,6.9451,7.0128,7.0432,7.0973,7.1278,7.1312,7.1312,7.1312,7.1312,7.1312,7.1312,7.1312,7.1312,7.1312,7.1312,7.1312,7.1312,7.1312,7.1312,7.1312,7.1312,7.1312,7.1312,7.1312,7.1312,7.1312,7.1312,7.1312,7.121,7.1075,7.0703,7.0195,6.9891,6.9011,6.8098,6.7861,6.759,6.7286,6.776,6.8199,6.8605,6.9147,6.9451,6.9451,6.9586,7.0161,7.0331,7.0567,7.1007,7.121,7.1312,7.1312,7.1244,7.121,7.121,7.1278,7.1312,7.1312,7.1312,7.1312,7.1312,7.1312,7.1312,7.1312,7.1312,7.1312,7.1312,7.1312,7.1312,7.1312,7.1312,7.1312,7.1312,7.1312,7.1312,7.1312,7.1312,7.1312,7.1312,7.1312,7.1312,7.1312,7.1312,7.1312,7.1312,7.1312,7.1323,7.1401,7.1446,7.1678,7.1732,7.1732,7.2567,7.3397,7.376,7.4155,7.4305,7.4419,7.4419,7.4419,7.4308,7.4574,7.512,7.5436,6.6812,6.6812,6.6812,6.6812,6.6812,6.6812,6.6812,6.6846,6.6981,6.7387,6.7996,6.8876,6.9688,7.0161,7.0872,7.1244,7.1312,7.1312,7.1312,7.1312,7.1312,7.1312,7.1312,7.1312,7.1312,7.1312,7.1312,7.1312,7.1312,7.1312,7.1312,7.1312,7.1312,7.1312,7.1312,7.1312,7.1312,7.1312,7.1312,7.1312,7.1244,7.1142,7.0838,7.0364,6.9553,6.918,6.891,6.8673,6.8605,6.8842,6.9417,7.0026,7.0703,7.0737,7.077,7.0838,7.0838,7.0906,7.0973,7.1142,7.1278,7.1312,7.1312,7.1312,7.1312,7.1312,7.1312,7.1312,7.1312,7.1312,7.1312,7.1312,7.1312,7.1312,7.1312,7.1312,7.1312,7.1312,7.1312,7.1312,7.1312,7.1312,7.1312,7.1312,7.1312,7.1312,7.1312,7.1312,7.1312,7.1312,7.1312,7.1312,7.1312,7.1312,7.1312,7.1312,7.1312,7.1312,7.1356,7.1312,7.1312,7.1412,7.16,7.209,7.2735,7.299,7.32,7.3402,7.3442,7.3362,7.3327,7.3287,7.3327,7.3768,7.4158,6.6812,6.6812,6.6812,6.6812,6.6812,6.6812,6.6812,6.6812,6.6812,6.7049,6.7489,6.8233,6.8977,6.9722,7.0466,7.1109,7.121,7.1312,7.1312,7.1312,7.1312,7.1312,7.1312,7.1312,7.1312,7.1312,7.1312,7.1312,7.1312,7.1312,7.1312,7.1312,7.1312,7.1312,7.1312,7.1312,7.1312,7.1312,7.1312,7.1312,7.1312,7.1244,7.1176,7.0737,7.0331,6.9992,6.9654,6.9383,6.9316,6.9654,7.0263,7.0669,7.1109,7.1176,7.1244,7.1244,7.1244,7.1312,7.1312,7.1312,7.1312,7.1312,7.1312,7.1312,7.1312,7.1312,7.1312,7.1312,7.1312,7.1312,7.1312,7.1312,7.1312,7.1312,7.1312,7.1312,7.1312,7.1312,7.1312,7.1312,7.1312,7.1312,7.1312,7.1312,7.1312,7.1312,7.1312,7.1312,7.1312,7.1312,7.1312,7.1312,7.1312,7.1312,7.1312,7.1312,7.1312,7.1312,7.1312,7.1312,7.1312,7.1367,7.159,7.1864,7.2038,7.2038,7.2262,7.2525,7.2398,7.2228,7.227,7.227,7.2398,7.2483,7.2783,6.6711,6.6812,6.6812,6.6812,6.6812,6.6812,6.6812,6.6812,6.6812,6.6812,6.6914,6.7523,6.8233,6.8977,6.9857,7.0534,7.1007,7.121,7.1278,7.1312,7.1312,7.1312,7.1312,7.1312,7.1312,7.1312,7.1312,7.1312,7.1312,7.1312,7.1312,7.1312,7.1312,7.1312,7.1312,7.1312,7.1312,7.1312,7.1312,7.1312,7.1312,7.1312,7.1278,7.1041,7.0737,7.0364,7.0094,6.9958,6.9857,7.0195,7.0838,7.1109,7.1244,7.1312,7.1312,7.1312,7.1312,7.1312,7.1312,7.1312,7.1312,7.1312,7.1312,7.1312,7.1312,7.1312,7.1312,7.1312,7.1312,7.1312,7.1312,7.1312,7.1312,7.1312,7.1312,7.1312,7.1312,7.1312,7.1312,7.1312,7.1312,7.1312,7.1312,7.1312,7.1312,7.1312,7.1312,7.1312,7.1312,7.1312,7.1312,7.1312,7.1312,7.1312,7.1312,7.1312,7.1312,7.1312,7.1312,7.1312,7.1312,7.1356,7.1367,7.1356,7.1457,7.159,7.1546,7.1688,7.1501,7.1457,7.159,7.1776,7.1732,7.1776,7.159,6.6271,6.6812,6.6812,6.6812,6.6812,6.6812,6.6812,6.6812,6.6812,6.6812,6.6846,6.6948,6.7455,6.8233,6.962,7.0364,7.0601,7.1007,7.1278,7.1312,7.1312,7.1312,7.1312,7.1312,7.1312,7.1312,7.1312,7.1312,7.1312,7.1312,7.1312,7.1312,7.1312,7.1312,7.1312,7.1312,7.1312,7.1312,7.1312,7.1312,7.1312,7.1312,7.1312,7.121,7.1176,7.1109,7.1041,7.0973,7.1007,7.1109,7.1176,7.1278,7.1312,7.1312,7.1312,7.1312,7.1312,7.1312,7.1312,7.1312,7.1312,7.1312,7.1312,7.1312,7.1312,7.1312,7.1312,7.1312,7.1312,7.1312,7.1312,7.1312,7.1312,7.1312,7.1312,7.1312,7.1312,7.1312,7.1312,7.1312,7.1312,7.1312,7.1312,7.1312,7.1312,7.1312,7.1312,7.1312,7.1312,7.1312,7.1312,7.1312,7.1312,7.1312,7.1312,7.1312,7.1312,7.1312,7.1312,7.1312,7.1312,7.1312,7.1312,7.1312,7.1312,7.1401,7.1312,7.1312,7.1312,7.1356,7.1356,7.1401,7.1312,7.1312,7.1312]}]]